     2              OBSERVATION DATA    GPS                 RINEX VERSION / TYPE
srx v1.3 (5/19/93) STARR 93/10/11 17:30:18                  PGM / RUN BY / DATE
                                                            COMMENT
sig: 9 8 7 6 5 4 1 0                                        COMMENT
sig: 9 8 7 6 5 4 1 0                                        COMMENT
sig: 9 8 7 6 5 4 1 0                                        COMMENT
Original Marker Name: 3076                                  COMMENT
Campaign Name: Baja (Dixon) 1993                            COMMENT
4-Character Station Name: 3076                              COMMENT
6-Character Antenna Code: DMRCHT                            COMMENT
Vertical Measurement Point: BPA                             COMMENT
Vertical Offset to Rinex Ref. Point: 0.0000                 COMMENT
Radial Measurement Point: RRP                               COMMENT
Radial Offset to Rinex Ref. Point: 0.0000                   COMMENT
Antenna Height from Field Measurement: 0.0814 m             COMMENT
Additional Antenna Identification Info.:                    COMMENT
Turborogue and Ashtech Choke Ring                           COMMENT
Original XYZ: -2493309.0382 -4655182.3466 3565500.9443      COMMENT
New XYZ position is based on association with SCEC monument COMMENT
E1C2Y8C7+0011. Position of that monument is believed to be  COMMENT
valid to within 1 m horizontally; vertical accuracy         COMMENT
should be no worse than 3-times this value.                 COMMENT
                                                            COMMENT
Revised Rinex header created by UCSD GPS archive for        COMMENT
GSAC on 09-Nov-2004 (2004:314) 22:00:52 GMT                 COMMENT
For assistance contact dagnew@ucsd.edu                      COMMENT
or anderson@python.ucsd.edu                                 COMMENT
                                                            COMMENT
3076S                                                       MARKER NAME
THE OBSERVER WAS?___JET PROPULSION LABORATORY               OBSERVER / AGENCY
133 TURBOROGUE SNR-8000 100.1                               REC # / TYPE / VERS
133 DORNE-MARGOL. TYPE T                                    ANT # / TYPE
 -2371055.0000 -4870509.0000  3358730.0000                  APPROX POSITION XYZ
        0.0814        0.0000        0.0000                  ANTENNA: DELTA H/E/N
     1     1     0                                          WAVELENGTH FACT L1/2
     4    L1    L2    P1    P2                              # / TYPES OF OBSERV
   120                                                      INTERVAL
  1993     4    16     0     0    0.000000                  TIME OF FIRST OBS
  1993     4    16    23    18    0.000000                  TIME OF LAST OBS
    23                                                      # OF SATELLITES
          01   887   887   887   887                        PRN / # OF OBS
          02   998   998   998   998                        PRN / # OF OBS
          03   829   829   829   829                        PRN / # OF OBS
          11  1076  1076  1076  1076                        PRN / # OF OBS
          12   862   862   862   862                        PRN / # OF OBS
          13   817   817   817   817                        PRN / # OF OBS
          14   859   859   859   859                        PRN / # OF OBS
          15  1009  1009  1009  1009                        PRN / # OF OBS
          16   870   870   870   870                        PRN / # OF OBS
          17   936   936   936   936                        PRN / # OF OBS
          18  1032  1032  1032  1032                        PRN / # OF OBS
          19  1172  1172  1172  1172                        PRN / # OF OBS
          20   687   687   687   687                        PRN / # OF OBS
          21   890   890   890   890                        PRN / # OF OBS
          22  1087  1087  1087  1087                        PRN / # OF OBS
          23   819   819   819   819                        PRN / # OF OBS
          24   756   756   756   756                        PRN / # OF OBS
          25   842   842   842   842                        PRN / # OF OBS
          26  1101  1101  1101  1101                        PRN / # OF OBS
          27  1096  1096  1096  1096                        PRN / # OF OBS
          28  1155  1155  1155  1155                        PRN / # OF OBS
          29  1012  1012  1012  1012                        PRN / # OF OBS
                                                            END OF HEADER
 93 04 16 00 00 00.0000000  0  6 27 13 02 26 24 12
   7726434.99108   6020562.15307  21761195.51408  21761205.02907
 -32478577.92109 -25307954.52608  16892141.02109  16892143.07508
  -9867667.66408  -7689092.50808  18756264.37808  18756266.33008
 -22646779.44108 -17646854.05308  20725496.51008  20725503.10908
 -19558217.39608 -15240133.20108  19152772.38808  19152776.32208
 -13483980.67708 -10506987.46108  19896679.09508  19896682.51608
 93 04 16 00 02 00.0000000  0  6 27 13 02 26 24 12
   8047883.19607   6271039.79207  21822366.21907  21822376.36707
 -32549688.82409 -25363365.55508  16878609.02009  16878611.04108
  -9812361.28508  -7645996.70808  18766788.93708  18766790.95108
 -22525108.50308 -17552046.29308  20748650.32608  20748657.17308
 -20090538.29508 -15654928.22108  19051474.74108  19051478.55908
 -13997405.87708 -10907058.74708  19798977.30108  19798980.61708
 93 04 16 00 04 00.0000000  0  5 13 02 26 24 12
 -32613104.62809 -25412780.40008  16866541.33409  16866543.33508
  -9752818.78708  -7599600.05208  18778119.52508  18778121.60508
 -22401756.81308 -17455928.84108  20772124.00208  20772130.94908
 -20618176.39708 -16066074.30308  18951068.10408  18951071.84908
 -14507592.23708 -11304606.31608  19701891.81308  19701895.13308
 93 04 16 00 06 00.0000000  0  5 13 02 26 24 12
 -32669018.40409 -25456349.50008  16855901.23609  16855903.21608
  -9688956.58508  -7549837.40508  18790272.19408  18790274.32108
 -22276820.60308 -17358576.65908  20795899.07508  20795906.17508
 -21141181.58408 -16473610.31708  18851543.19608  18851546.75308
 -15014434.22308 -11699547.80408  19605442.82208  19605446.02708
 93 04 16 00 08 00.0000000  0  5 13 02 26 24 12
 -32717407.82409 -25494055.46708  16846692.98909  16846694.95808
  -9620203.10308  -7496263.38208  18803355.61208  18803357.72908
 -22149698.28108 -17259521.01108  20820090.21208  20820097.39708
 -21659339.53208 -16877369.28408  18752940.65508  18752944.15508
 -15517603.39008 -12091627.35208  19509692.65708  19509695.77308
 93 04 16 00 10 00.0000000  0  5 13 02 24 26 12
 -32758426.46009 -25526017.96108  16838887.33809  16838889.27108
  -9546853.89108  -7439108.26908  18817313.61308  18817315.75608
 -22172461.21408 -17277203.91108  18655296.49308  18655299.85708
 -22020778.20508 -17159064.54208  20844623.31408  20844630.88408
 -16016942.02708 -12480722.08708  19414671.43908  19414674.54608
 93 04 16 00 12 00.0000000  0  5 13 02 24 12 26
 -32792336.66309 -25552441.42008  16832434.37009  16832436.30808
  -9468854.61908  -7378329.74808  18832156.47008  18832158.59908
 -22680270.75908 -17672899.22308  18558663.22708  18558666.49808
 -16512398.26008 -12866791.60508  19320389.09708  19320392.02608
 -21890823.62708 -17057802.00808  20869353.57108  20869361.25108
 93 04 16 00 14 00.0000000  0  5 13 02 24 12 26
 -32819428.57609 -25573551.92608  16827278.92709  16827280.81808
  -9386383.87408  -7314066.96908  18847850.19808  18847852.34508
 -23182787.11708 -18064469.98208  18463037.20908  18463040.39308
 -17003947.05108 -13249816.38008  19226850.18508  19226853.12908
 -21760117.45008 -16955953.79108  20894226.70308  20894234.54508
 93 04 16 00 16 00.0000000  0  5 13 02 24 12 26
 -32839831.83109 -25589450.49908  16823396.24509  16823398.12008
  -9299546.40908  -7246401.54808  18864375.03508  18864377.18808
 -23680064.84408 -18451958.70408  18368408.12908  18368411.17608
 -17491398.83308 -13629648.64808  19134091.03108  19134093.86108
 -21628533.69808 -16853421.77107  20919266.85608  20919274.87507
 93 04 16 00 18 00.0000000  0  5 13 24 02 12 26
 -32853725.41509 -25600276.60908  16820752.36509  16820754.21108
 -24171971.92308 -18835262.50408  18274800.99408  18274803.94308
  -9208429.54008  -7175401.53408  18881714.03308  18881716.23008
 -17974608.43308 -14006175.34408  19042139.08908  19042141.88408
 -21496625.04508 -16750636.58507  20944368.72108  20944376.97407
 93 04 16 00 20 00.0000000  0  5 13 24 02 12 26
 -32861339.95409 -25606209.96608  16819303.32209  16819305.17408
 -24658549.57808 -19214413.52508  18182208.04408  18182210.86908
  -9113026.39808  -7101061.57508  18899868.77908  18899871.08008
 -18453483.16708 -14379324.20708  18951012.03708  18951014.72308
 -21364332.72307 -16647552.43307  20969543.67107  20969552.15307
 93 04 16 00 22 00.0000000  0  5 26 13 24 02 12
 -21231769.76808 -16544257.43008  20994770.16308  20994778.82508
 -32862929.35009 -25607448.41808  16819000.82809  16819002.68208
 -25139073.26308 -19588847.18908  18090767.15408  18090769.89108
  -9013401.34908  -7023431.83208  18918826.83608  18918829.21008
 -18927946.52608 -14749035.68308  18860724.50608  18860727.09708
 93 04 16 00 24 00.0000000  0  5 26 13 24 02 12
 -21099717.74007 -16441360.56307  21019899.53507  21019908.26407
 -32858617.87709 -25604088.78708  16819821.26209  16819823.08408
 -25613866.04508 -19958815.22408  18000416.80108  18000419.44708
  -8909376.56108  -6942373.71808  18938622.26008  18938624.62708
 -19397795.28108 -15115151.41008  18771315.08208  18771317.71808
 93 04 16 00 26 00.0000000  0  5 26 13 24 02 12
 -20967884.35407 -16338634.05107  21044986.98507  21044996.05507
 -32848525.98209 -25596224.93708  16821741.69009  16821743.47408
 -26083089.80408 -20324443.77208  17911126.23508  17911128.78808
  -8800762.69108  -6857739.69708  18959290.88308  18959293.35508
 -19862820.02308 -15477508.19708  18682823.69008  18682826.25608
 93 04 16 00 28 00.0000000  0  5 26 13 24 02 12
 -20836673.29707 -16236392.45007  21069956.42007  21069965.64807
 -32832868.82909 -25584024.51508  16824721.10609  16824722.89308
 -26546133.87508 -20685256.99008  17823011.61808  17823014.10208
  -8688181.04108  -6770013.89908  18980714.61608  18980717.00308
 -20322903.95008 -15836014.97508  18595272.51108  18595275.04108
 93 04 16 00 30 00.0000000  0  5 26 13 24 02 12
 -20705945.31307 -16134527.23507  21094833.58007  21094842.90707
 -32811668.84409 -25567504.99808  16828755.26409  16828757.05408
 -27002570.69308 -21040921.71408  17736154.30008  17736156.73308
  -8571298.73508  -6678936.93108  19002956.64308  19002959.12108
 -20777735.96508 -16190429.31108  18508720.68108  18508723.17408
 93 04 16 00 32 00.0000000  0  5 26 13 24 02 12
 -20575829.89607 -16033139.29808  21119594.24507  21119603.90108
 -32784953.07509 -25546687.48108  16833839.09809  16833840.88308
 -27452721.43208 -21391688.20308  17650493.22508  17650495.56908
  -8449668.70908  -6584160.43908  19026102.21108  19026104.71808
 -21227009.73208 -16540512.54308  18423226.55508  18423228.98408
 93 04 16 00 34 00.0000000  0  5 26 24 12 02 13
 -20446633.71107 -15932467.71407  21144180.21107  21144189.92307
 -27896095.87908 -21737174.46908  17566121.63808  17566123.88608
 -21670584.58008 -16886155.09808  18338816.92308  18338819.35908
  -8323785.48708  -6486069.77008  19050057.11208  19050059.73608
 -32752913.08609 -25521721.21608  16839936.06809  16839937.80708
 93 04 16 00 36 00.0000000  0  5 26 24 02 12 13
 -20318294.36307 -15832463.80407  21168602.81907  21168612.70707
 -28332405.32908 -22077155.55208  17483094.47208  17483096.65908
  -8193166.03708  -6384288.52808  19074913.32908  19074916.02508
 -22108093.45808 -17227070.95608  18255561.63108  18255563.95208
 -32715511.60709 -25492577.16508  16847053.28709  16847055.03008
 93 04 16 00 38 00.0000000  0  5 26 24 12 02 13
 -20190586.86407 -15732952.15907  21192905.22507  21192915.32107
 -28761626.61708 -22411613.40408  17401416.16608  17401418.26908
 -22539201.35508 -17562999.07008  18173524.44708  18173526.76208
  -8057491.79408  -6278568.53308  19100731.38908  19100734.09908
 -32672745.16909 -25459252.63508  16855191.47309  16855193.21808
 93 04 16 00 40 00.0000000  0  5 26 24 12 02 13
 -20063652.46107 -15634042.96307  21217060.63907  21217070.94807
 -29183182.68508 -22740098.36408  17321196.49508  17321198.54008
 -22963694.91008 -17893773.14508  18092745.93108  18092748.20908
  -7917064.47308  -6169144.84708  19127453.91008  19127456.78208
 -32624733.39309 -25421840.82908  16864327.77509  16864329.45208
 93 04 16 00 42 00.0000000  0  5 26 24 12 02 13
 -19938382.76607 -15536430.90507  21240899.23707  21240909.68507
 -29596871.99908 -23062453.39408  17242473.83208  17242475.79908
 -23381388.33008 -18219248.40808  18013261.40208  18013263.65108
  -7772133.31608  -6056211.63808  19155033.57808  19155036.31608
 -32571619.53709 -25380453.37508  16874434.98609  16874436.67708
 93 04 16 00 44 00.0000000  0  5 26 24 12 02 13
 -19813828.70507 -15439376.52607  21264601.62007  21264612.30407
 -30003112.14308 -23379003.89008  17165168.68308  17165170.59008
 -23791979.92608 -18539189.78808  17935128.31508  17935130.55208
  -7622138.00708  -5939332.36508  19183576.79608  19183579.67508
 -32513427.79808 -25335109.13508  16885508.42308  16885510.23708
 93 04 16 00 46 00.0000000  0  5 26 24 12 02 13
 -19690031.01707 -15342911.39507  21288160.00407  21288170.77807
 -30401020.00608 -23689061.70708  17089449.13508  17089450.99908
 -24194967.41608 -18853205.89308  17858442.23608  17858444.46308
  -7466611.65608  -5818143.17908  19213172.61808  19213175.47408
 -32449981.90608 -25285670.75108  16897581.80508  16897583.49608
 93 04 16 00 48 00.0000000  0  5 26 24 12 13 02
 -19567605.20307 -15247515.33407  21311457.31407  21311468.41907
 -30790293.94808 -23992391.79608  17015372.57908  17015374.39408
 -24590003.31508 -19161025.94108  17783269.31408  17783271.52208
 -32381255.68708 -25232117.80508  16910659.98508  16910661.59108
  -7305954.01008  -5692955.59108  19243744.99708  19243747.87608
 93 04 16 00 50 00.0000000  0  5 26 24 12 13 02
 -19446255.98308 -15152958.16507  21334549.83508  21334560.94507
 -31170818.71208 -24288904.35008  16942960.94208  16942962.68608
 -24976910.08108 -19462511.60908  17709643.28808  17709645.49108
 -32307391.74608 -25174561.43008  16924715.70108  16924717.42408
  -7139945.32908  -5563598.36708  19275335.39308  19275338.47108
 93 04 16 00 52 00.0000000  0  5 26 24 12 13 02
 -19325956.87207 -15059219.29507  21357442.52707  21357453.72707
 -31542183.65908 -24578279.38908  16872292.34708  16872294.04808
 -25355439.40008 -19757469.40808  17637611.47008  17637613.65008
 -32228459.40708 -25113055.66808  16939735.95908  16939737.72108
  -6968479.14408  -5429988.54608  19307964.56408  19307967.61508
 93 04 16 00 54 00.0000000  0  5 26 24 12 13 02
 -19206909.54407 -14966455.82207  21380096.81907  21380108.35007
 -31904703.56508 -24860762.19608  16803306.89608  16803308.54608
 -25725375.95908 -20045731.53508  17567214.79308  17567216.96408
 -32144555.24608 -25047675.77308  16955702.41608  16955704.14008
  -6791702.80108  -5292240.91908  19341604.15408  19341607.25508
 93 04 16 00 56 00.0000000  0  5 26 24 12 13 02
 -19089193.03807 -14874729.41607  21402498.21707  21402509.95407
 -32258079.22408 -25136119.62208  16736061.60408  16736063.20308
 -26086550.33608 -20327165.97508  17498485.48808  17498487.60608
 -32055818.05008 -24978529.88408  16972588.51808  16972590.23408
  -6608940.41308  -5149828.82908  19376382.67208  19376385.74808
 93 04 16 00 58 00.0000000  0  5 26 24 12 13 02
 -18972986.77507 -14784179.98707  21424612.19807  21424624.08807
 -32602081.75608 -25404173.32608  16670599.93508  16670601.49308
 -26438727.22608 -20601589.38408  17431468.33608  17431470.45008
 -31962316.68408 -24905671.65808  16990381.23608  16990382.89408
  -6421006.40408  -5003386.89808  19412145.50308  19412148.71208
 93 04 16 01 00 00.0000000  0  4 24 12 13 02
 -32936847.75708 -25665029.74008  16606895.90808  16606897.41808
 -26781753.99708 -20868882.82508  17366192.38108  17366194.50108
 -31864199.24108 -24829216.49408  17009052.33808  17009054.06408
  -6227605.88608  -4852685.36308  19448948.56308  19448951.82808
 93 04 16 01 02 00.0000000  0  4 24 12 13 02
 -33262184.87208 -25918538.97608  16544986.18908  16544987.63808
 -27115736.67308 -21129128.91608  17302637.47708  17302639.57908
 -31761868.20408 -24749478.00708  17028525.27308  17028527.04008
  -6028901.63408  -4697851.07608  19486760.77108  19486764.19308
 93 04 16 01 04 00.0000000  0  4 24 12 13 02
 -33578658.17408 -26165141.33008  16484763.15108  16484764.58208
 -27441145.70908 -21382694.23708  17240714.09208  17240716.17808
 -31656082.02108 -24667047.17808  17048655.68808  17048657.49708
  -5825805.86108  -4539594.80508  19525408.85908  19525412.18008
 93 04 16 01 06 00.0000000  0  4 24 12 13 02
 -33884343.45508 -26403337.39708  16426593.03108  16426594.44708
 -27755760.76908 -21627848.64808  17180844.71908  17180846.86208
 -31544904.96008 -24580415.60708  17069811.98908  17069813.73708
  -5616202.19108  -4376267.43008  19565295.25208  19565298.74208
 93 04 16 01 08 00.0000000  0  4 24 12 13 02
 -34179651.31008 -26633447.05908  16370397.62108  16370398.97708
 -28059891.75808 -21864833.56608  17122970.37908  17122972.44908
 -31428925.36008 -24490041.68408  17091882.02908  17091883.83208
  -5400548.83908  -4208225.90408  19606332.81608  19606336.35608
 93 04 16 01 10 00.0000000  0  4 24 12 13 02
 -34453049.98808 -26846484.71008  16318371.34308  16318372.59608
 -28341890.82508 -22084572.91008  17069307.58208  17069309.56908
 -31296765.89708 -24387060.16208  17117031.03108  17117032.61308
  -5167388.96008  -4026542.98008  19650701.67908  19650705.13108
 93 04 16 01 12 00.0000000  0  4 24 12 13 02
 -34693969.15508 -27034213.69908  16272525.75008  16272526.90608
 -28591209.32009 -22278846.91008  17021863.70109  17021865.63208
 -31138144.18408 -24263458.75708  17147215.67508  17147217.22808
  -4906138.36108  -3822971.17408  19700416.09508  19700419.57708
 93 04 16 01 14 00.0000000  0  4 24 12 13 02
 -34904971.50908 -27198630.90808  16232373.18708  16232374.30308
 -28810576.95209 -22449782.58808  16980119.31109  16980121.17908
 -30956049.65108 -24121566.86808  17181867.04208  17181868.66508
  -4620089.81608  -3600076.27408  19754849.31708  19754852.82008
 93 04 16 01 16 00.0000000  0  4 24 12 13 02
 -35092370.64808 -27344656.01708  16196712.11708  16196713.18508
 -29005821.65709 -22601921.18308  16942965.35009  16942967.16908
 -30756560.43508 -23966120.68608  17219828.49708  17219830.08208
  -4315368.37908  -3362631.07208  19812835.94808  19812839.34008
 93 04 16 01 18 00.0000000  0  4 24 12 13 02
 -35258348.93808 -27473989.57408  16165127.35708  16165128.39108
 -29179337.56309 -22737128.24908  16909946.22509  16909948.06108
 -30542315.84208 -23799176.82808  17260597.89108  17260599.42108
  -3993860.97708  -3112105.88608  19874016.84608  19874020.41908
 93 04 16 01 20 00.0000000  0  4 24 12 13 02
 -35406578.92308 -27589493.28308  16136919.98408  16136920.96008
 -29334643.97609 -22858146.09508  16880392.27909  16880394.08808
 -30317069.95608 -23623660.53508  17303460.71408  17303462.28508
  -3659694.08908  -2851716.19908  19937606.70108  19937610.32308
 93 04 16 01 22 00.0000000  0  4 24 12 13 02
 -35540466.29908 -27693820.94208  16111441.94008  16111442.89008
 -29474899.16309 -22967435.73608  16853702.50709  16853704.29208
 -30084208.89408 -23442210.34408  17347772.68108  17347774.22308
  -3316340.48907  -2584167.87407  20002944.59107  20002948.18007
 93 04 16 01 24 00.0000000  0  4 24 12 13 02
 -35660848.43808 -27787625.05108  16088533.82308  16088534.74808
 -29600720.19709 -23065478.01208  16829759.48109  16829761.23208
 -29844573.57008 -23255481.48608  17393373.72308  17393375.30408
  -2964315.08307  -2309862.30107  20069932.85907  20069936.27307
 93 04 16 01 26 00.0000000  0  4 24 12 13 02
 -35768674.05608 -27871644.87008  16068015.18308  16068016.07708
 -29713584.60009 -23153424.23608  16808282.03609  16808283.77208
 -29599849.16108 -23064787.09108  17439943.19908  17439944.70908
  -2605337.10707  -2030139.21307  20138244.20807  20138247.45107
 93 04 16 01 28 00.0000000  0  3 24 12 13
 -35866102.21808 -27947562.78408  16049475.11008  16049475.98208
 -29815591.23109 -23232909.85808  16788870.73309  16788872.49308
 -29352339.21208 -22871922.14208  17487042.72508  17487044.24808
 93 04 16 01 30 00.0000000  0  5 24 12 13 20 16
 -35955111.06708 -28016920.19508  16032537.17708  16032538.03008
 -29907944.83309 -23304873.61908  16771296.35709  16771298.11008
 -29103443.30608 -22677977.24708  17534405.97308  17534407.51908
         0.08418        -0.10517  19944666.60718  19944669.16417
         0.24017         0.02117  20517734.91817  20517740.55317
 93 04 16 01 32 00.0000000  0  5 24 12 13 20 16
 -36036766.80208 -28080547.91408  16016998.50808  16016999.31108
 -29991819.65309 -23370230.51008  16755335.41609  16755337.15508
 -28854520.58208 -22484011.49108  17581774.38708  17581775.92408
   -399165.49108   -311037.85108  19868707.68608  19868709.94608
   -362368.54707   -282363.61507  20448777.32207  20448782.58007
 93 04 16 01 34 00.0000000  0  5 24 12 13 20 16
 -36110828.27108 -28138258.03008  16002904.94508  16002905.75008
 -30066988.08409 -23428803.21208  16741031.23809  16741032.96908
 -28605520.24508 -22289985.28508  17629157.56708  17629159.15808
   -799335.06108   -622858.03408  19792557.54708  19792560.13908
   -727821.19407   -567130.42407  20379232.74607  20379237.61907
 93 04 16 01 36 00.0000000  0  5 24 12 13 20 16
 -36177769.81208 -28190420.15708  15990166.30908  15990167.07408
 -30133984.65709 -23481008.26008  16728282.13109  16728283.85008
 -28357142.51908 -22096444.23208  17676422.31908  17676423.84108
  -1201009.27908   -935850.69708  19716121.55408  19716123.68408
  -1096751.71508   -854607.35407  20309026.49208  20309031.04107
 93 04 16 01 38 00.0000000  0  5 24 12 13 20 16
 -36237078.29908 -28236634.44308  15978880.16208  15978880.92708
 -30192536.82709 -23526633.26808  16717139.97909  16717141.67108
 -28109272.28008 -21903298.58408  17723590.46908  17723591.97708
  -1603871.70208  -1249769.20908  19639459.02108  19639461.31008
  -1468743.10907  -1144469.34708  20238237.79007  20238242.15408
 93 04 16 01 40 00.0000000  0  5 24 12 13 20 16
 -36290594.89508 -28278335.57708  15968696.19708  15968696.92308
 -30243717.38609 -23566514.15708  16707400.57809  16707402.26208
 -27863129.65608 -21711499.10608  17770429.82408  17770431.37908
  -2008938.25308  -1565405.27908  19562377.48308  19562379.61408
  -1844778.89508  -1437482.85907  20166679.58608  20166683.36007
 93 04 16 01 42 00.0000000  0  5 24 12 13 20 16
 -36338236.77108 -28315459.01508  15959630.20508  15959630.88408
 -30287524.51809 -23600649.51208  16699064.30409  16699065.96208
 -27618849.57308 -21521150.96208  17816914.71008  17816916.23808
  -2416142.87608  -1882707.38508  19484888.67608  19484890.74808
  -2224771.07808  -1733579.51408  20094368.53508  20094372.18508
 93 04 16 01 44 00.0000000  0  5 24 12 13 20 16
 -36380552.39908 -28348432.14408  15951577.71108  15951578.37508
 -30324730.56909 -23629641.18408  16691984.14609  16691985.81408
 -27377332.23108 -21332955.62608  17862873.96608  17862875.50508
  -2826185.57508  -2202221.02208  19406860.12808  19406862.18108
  -2609099.93508  -2033055.54608  20021232.39408  20021235.92008
 93 04 16 01 46 00.0000000  0  5 24 12 13 20 16
 -36417638.02608 -28377329.94808  15944520.50708  15944521.17308
 -30355168.41408 -23653358.94608  16686191.99008  16686193.63608
 -27138528.45608 -21146874.77908  17908316.75608  17908318.30508
  -3238814.84308  -2523750.09208  19328339.18008  19328341.21208
  -2997775.11408  -2335918.50207  19947269.16608  19947272.56207
 93 04 16 01 48 00.0000000  0  5 24 12 13 20 16
 -36449913.25608 -28402479.39508  15938378.64208  15938379.27208
 -30379289.80908 -23672154.80408  16681601.80108  16681603.43308
 -26902994.27008 -20963341.66908  17953137.45708  17953139.02208
  -3654389.96608  -2847574.56508  19249257.44908  19249259.49908
  -3391170.93408  -2642459.89208  19872408.02708  19872410.97508
 93 04 16 01 50 00.0000000  0  5 24 12 13 20 16
 -36477017.41208 -28423599.44608  15933220.78408  15933221.42908
 -30396489.00308 -23685556.73708  16678328.85208  16678330.50308
 -26670223.25608 -20781961.66708  17997432.25008  17997433.84508
  -4072203.16508  -3173143.00808  19169750.15508  19169752.07908
  -3788327.73308  -2951931.87408  19796831.01808  19796833.58308
 93 04 16 01 52 00.0000000  0  5 24 12 13 20 16
 -36498827.03208 -28440593.89308  15929070.54308  15929071.15108
 -30406705.80508 -23693517.84708  16676384.63108  16676386.26708
 -26440240.64208 -20602754.42308  18041196.50608  18041197.98308
  -4492080.90008  -3500320.22408  19089849.91608  19089851.83008
  -4188837.00008  -3264016.31808  19720616.03108  19720618.64808
 93 04 16 01 54 00.0000000  0  5 24 12 13 20 16
 -36515964.45608 -28453947.67708  15925809.31408  15925809.91908
 -30410793.44908 -23696702.99608  16675606.73108  16675608.36608
 -26213976.95208 -20426445.05808  18084253.01808  18084254.63508
  -4914752.30408  -3829674.34508  19009417.98508  19009419.95008
  -4593521.33508  -3579354.14408  19643606.64208  19643609.07108
 93 04 16 01 56 00.0000000  0  5 24 12 13 20 16
 -36528973.13108 -28464084.26108  15923333.79608  15923334.37308
 -30409023.09708 -23695323.48108  16675943.57808  16675945.20808
 -25991768.08808 -20253295.29808  18126537.92008  18126539.52708
  -5340358.88208  -4161315.60008  18928427.48408  18928429.43408
  -5002862.00408  -3898320.37708  19565711.37808  19565713.63508
 93 04 16 01 58 00.0000000  0  5 24 12 20 16 13
 -36537648.32608 -28470844.11008  15921682.89608  15921683.49108
 -30400675.69208 -23688818.99708  16677532.00208  16677533.65608
  -5768040.50108  -4494573.74608  18847042.16308  18847043.90708
  -5415706.11608  -4220016.57708  19487149.28008  19487151.46608
 -25772948.94308 -20082786.88608  18168177.77208  18168179.39608
 93 04 16 02 00 00.0000000  0  5 24 12 20 16 13
 -36541082.39708 -28473519.96908  15921029.37108  15921029.94308
 -30385111.27708 -23676690.88308  16680493.79308  16680495.43708
  -6197003.18008  -4828830.11908  18765413.09808  18765414.77908
  -5831038.71808  -4543651.94008  19408113.81308  19408115.84408
 -25556926.86708 -19914457.98408  18209285.41808  18209286.97308
 93 04 16 02 02 00.0000000  0  5 24 12 20 16 13
 -36538756.82408 -28471707.79508  15921471.85208  15921472.40508
 -30361832.72108 -23658551.75908  16684923.55408  16684925.20008
  -6626589.64008  -5163572.60208  18683665.41708  18683667.04008
  -6247886.98608  -4868468.38408  19328789.85108  19328791.91708
 -25343237.80608 -19747947.03108  18249949.08008  18249950.65308
 93 04 16 02 04 00.0000000  0  5 24 12 20 16 13
 -36530899.28708 -28465585.00008  15922967.06208  15922967.59508
 -30331276.39908 -23634741.62808  16690738.19208  16690739.85608
  -7057065.14508  -5499007.86408  18601748.52108  18601750.02108
  -6666707.30008  -5194821.54408  19249090.74508  19249092.68208
 -25132343.25708 -19583613.62808  18290080.96508  18290082.57508
 93 04 16 02 06 00.0000000  0  5 24 12 20 16 13
 -36518168.76908 -28455665.08408  15925389.54908  15925390.10408
 -30293902.71908 -23605619.25608  16697850.14908  16697851.78008
  -7488711.39908  -5835355.38708  18519608.79008  18519610.18008
  -7088108.46108  -5523185.75408  19168900.43108  19168902.46208
 -24924715.40708 -19421825.71108  18329591.25008  18329592.83008
 93 04 16 02 08 00.0000000  0  5 24 12 20 16 13
 -36500773.81608 -28442110.54308  15928699.66108  15928700.18508
 -30249326.11708 -23570884.22908  16706332.77108  16706334.40008
  -7920952.77608  -6172166.66808  18437355.85908  18437357.18908
  -7511294.29208  -5852940.63408  19088370.62808  19088372.41108
 -24719973.99308 -19262286.94608  18368552.22908  18368553.84208
 93 04 16 02 10 00.0000000  0  5 24 12 20 16 13
 -36478291.90308 -28424592.14408  15932977.80508  15932978.32308
 -30197631.30308 -23530602.55708  16716169.94208  16716171.58808
  -8353673.53508  -6509351.48708  18355011.65508  18355013.02308
  -7935931.99608  -6183826.87908  19007564.48408  19007566.28108
 -24518195.34208 -19105056.82008  18406949.37508  18406950.94108
 93 04 16 02 12 00.0000000  0  5 24 12 20 16 13
 -36449994.95608 -28402542.54108  15938362.50108  15938362.98408
 -30138148.33708 -23484252.19908  16727489.18908  16727490.80008
  -8785996.58808  -6846226.38608  18272743.09408  18272744.37908
  -8361277.83208  -6515264.92508  18926623.74108  18926625.33608
 -24318694.93208 -18949601.94208  18444913.03908  18444914.55108
 93 04 16 02 14 00.0000000  0  5 24 12 20 16 13
 -36416235.49408 -28376236.43808  15944786.66608  15944787.15608
 -30070839.62608 -23431803.85708  16740297.60208  16740299.21508
  -9217667.26608  -7182592.93208  18190598.69908  18190599.97008
  -8786958.92708  -6846964.20608  18845619.14008  18845620.67008
 -24121407.65308 -18795871.58608  18482455.48308  18482457.08908
 93 04 16 02 16 00.0000000  0  5 24 12 20 16 13
 -36376711.50008 -28345438.48808  15952307.74308  15952308.26308
 -29995480.98608 -23373082.84008  16754637.88308  16754639.47608
  -9648234.66208  -7518099.79508  18108664.34108  18108665.55408
  -9212298.41908  -7178397.32308  18764679.54408  18764681.01808
 -23926073.54308 -18643663.18008  18519626.33408  18519627.96008
 93 04 16 02 18 00.0000000  0  5 24 12 20 16 13
 -36332236.49108 -28310782.59908  15960771.06208  15960771.54208
 -29912872.77008 -23308712.80408  16770357.69008  16770359.26608
 -10078264.22108  -7853187.58608  18026832.26708  18026833.39008
  -9637890.81108  -7510027.53408  18683691.85008  18683693.25108
 -23733445.60508 -18493563.45608  18556282.16408  18556283.75308
 93 04 16 02 20 00.0000000  0  5 24 12 20 16 13
 -36283057.51508 -28272461.28708  15970129.45608  15970129.92808
 -29823348.79208 -23238953.86608  16787393.51608  16787395.10608
 -10507847.15608  -8187927.37308  17945085.18708  17945086.32308
 -10063828.95008  -7841927.17808  18602638.28408  18602639.63408
 -23543800.64908 -18345788.11508  18592370.36708  18592371.87608
 93 04 16 02 22 00.0000000  0  5 24 12 20 16 13
 -36228216.96408 -28229728.36408  15980565.23308  15980565.71308
 -29725937.86908 -23163049.25508  16805930.20008  16805931.77908
 -10935761.55308  -8521366.99408  17863655.64808  17863656.72708
 -10489010.03008  -8173236.90708  18521728.78608  18521730.26608
 -23356103.61808 -18199530.64308  18628087.92608  18628089.45508
 93 04 16 02 24 00.0000000  0  5 24 12 20 16 13
 -36167417.03409 -28182351.77608  15992135.09509  15992135.57908
 -29620188.25608 -23080646.96508  16826053.67308  16826055.25508
 -11361295.25208  -8852951.52408  17782679.12208  17782680.19008
 -10912473.10908  -8503207.95308  18441146.30708  18441147.72808
 -23169828.40308 -18054381.06908  18663534.84208  18663536.34508
 93 04 16 02 26 00.0000000  0  5 24 20 16 12 13
 -36100752.73109 -28130405.53908  16004820.84309  16004821.31008
 -11784432.70408  -9182668.83708  17702158.60408  17702159.65908
 -11333940.36608  -8831623.82208  18360943.67508  18360944.96108
 -29506350.69008 -22991942.37008  16847716.22008  16847717.82508
 -22985139.49808 -17910467.59308  18698679.97008  18698681.42008
 93 04 16 02 28 00.0000000  0  6 03 24 20 16 12 13
         0.06317        -0.18417  21086466.52617  21086469.89417
 -36028840.32609 -28074369.86708  16018505.26209  16018505.71308
 -12205544.34808  -9510807.60908  17622023.60508  17622024.55108
 -11754236.54508  -9159127.14608  18280963.75808  18280965.02808
 -29385069.53108 -22897437.57508  16870795.24908  16870796.84108
 -22802587.26308 -17768219.06308  18733418.41808  18733419.90308
 93 04 16 02 30 00.0000000  0  6 03 24 20 16 12 13
   -341691.83407   -266253.48207  21021444.61307  21021447.97107
 -35952238.20609 -28014679.87208  16033082.17109  16033082.64708
 -12624502.78308  -9837268.58108  17542298.31508  17542299.24108
 -12173044.37708  -9485470.73008  18201267.19908  18201268.46508
 -29256498.17408 -22797252.11008  16895261.59008  16895263.15908
 -22622228.00608 -17627679.35108  18767739.64608  18767741.07708
 93 04 16 02 32 00.0000000  0  6 24 20 16 12 13 03
 -35869813.82309 -27950453.05508  16048766.94009  16048767.41608
 -13040390.27508 -10161336.61608  17463157.45808  17463158.36008
 -12589359.29908  -9809871.80108  18122044.94408  18122046.11908
 -29120008.91408 -22690896.85108  16921234.62308  16921236.18908
 -22443321.36208 -17488271.52508  18801784.41008  18801785.79008
   -682517.24907   -531831.65607  20956587.63107  20956591.00507
 93 04 16 02 34 00.0000000  0  6 24 20 16 12 13 03
 -35781840.50009 -27881902.39208  16065507.74509  16065508.19808
 -13452761.71608 -10482664.88308  17384685.69408  17384686.53308
 -13002690.51808 -10131947.92608  18043390.43208  18043391.60408
 -28975451.02508 -22578254.35408  16948743.09108  16948744.65508
 -22265599.53408 -17349786.92008  18835603.67108  18835605.13008
  -1022221.59207   -796536.28907  20891944.03507  20891947.33807
 93 04 16 02 36 00.0000000  0  6 24 20 16 12 13 03
 -35688584.70709 -27809235.51508  16083253.68509  16083254.11708
 -13861939.60908 -10801504.63008  17306821.60808  17306822.40408
 -13413319.81308 -10451918.64608  17965250.22108  17965251.32208
 -28823449.63508 -22459811.73008  16977668.00608  16977669.55408
 -22089560.41008 -17212613.50508  18869102.74408  18869104.19908
  -1361321.88907  -1060770.19207  20827415.23807  20827418.62907
 93 04 16 02 38 00.0000000  0  6 24 20 16 12 13 03
 -35590710.82909 -27732970.13508  16101878.44209  16101878.85608
 -14268050.98808 -11117954.93408  17229541.04108  17229541.86208
 -13821158.09208 -10769714.55608  17887641.07808  17887642.12908
 -28664439.78508 -22335907.96808  17007926.57508  17007928.13908
 -21915504.93308 -17076985.80508  18902224.36008  18902225.81608
  -1700141.11707  -1324785.03107  20762940.07807  20762943.24207
 93 04 16 02 40 00.0000000  0  6 24 20 16 12 13 03
 -35487669.95208 -27652678.52308  16121486.43408  16121486.86208
 -14670329.47908 -11431418.55908  17152989.89408  17152990.66108
 -14225727.47708 -11084963.28708  17810653.94008  17810655.02208
 -28497968.08408 -22206189.77608  17039605.11008  17039606.66408
 -21742836.53908 -16942438.96007  18935082.00408  18935083.34707
  -2038110.12307  -1588137.36607  20698626.53907  20698629.91007
 93 04 16 02 42 00.0000000  0  6 24 20 16 12 13 03
 -35379419.30508 -27568327.34708  16142085.82608  16142086.23808
 -15068616.04308 -11741771.61908  17077198.35808  17077199.16208
 -14626855.97808 -11397530.81808  17734321.58508  17734322.59908
 -28324193.74708 -22070781.21708  17072673.26308  17072674.83608
 -21571566.11808 -16808981.42507  18967673.56108  18967674.95907
  -2375267.64007  -1850857.39707  20634467.56507  20634470.80607
 93 04 16 02 44 00.0000000  0  6 24 20 16 12 13 03
 -35266393.67008 -27480255.39408  16163593.85008  16163594.28708
 -15462936.20708 -12049033.94308  17002161.65208  17002162.33608
 -15024123.31008 -11707089.63808  17658724.06808  17658725.04108
 -28143466.94208 -21929955.14908  17107064.44308  17107066.02008
 -21401885.84608 -16676762.97407  18999962.68508  18999963.93207
  -2711841.27607  -2113122.40207  20570419.58407  20570422.79907
 93 04 16 02 46 00.0000000  0  6 20 16 24 12 13 03
 -15852849.06708 -12352862.00308  16927963.55108  16927964.30508
 -15417440.28808 -12013570.29808  17583878.26508  17583879.23908
 -35148602.74208 -27388470.23008  16186008.69308  16186009.09408
 -27955675.98908 -21783624.55608  17142799.86508  17142801.45308
 -21233518.87708 -16545567.88507  19032001.76808  19032003.15607
  -3047592.04007  -2374746.15507  20506528.14007  20506531.28807
 93 04 16 02 48 00.0000000  0  6 20 16 24 12 13 03
 -16238060.62208 -12653026.73908  16854660.15808  16854660.85208
 -15806654.60808 -12316854.08308  17509813.12908  17509814.07508
 -35026147.63008 -27293050.64308  16209311.10208  16209311.48708
 -27760859.31208 -21631819.37708  17179872.26708  17179873.83008
 -21066334.67408 -16415294.41907  19063815.85808  19063817.22007
  -3382428.96407  -2635657.80707  20442810.52207  20442813.71507
 93 04 16 02 50 00.0000000  0  6 20 16 24 12 13 03
 -16618470.69508 -12949450.07808  16782270.45508  16782271.08808
 -16191366.35508 -12616629.37308  17436604.82008  17436605.72708
 -34898790.56208 -27193811.35908  16233546.31108  16233546.72408
 -27559253.57808 -21474724.03108  17218236.58508  17218238.15108
 -20900394.17208 -16285990.09607  19095393.21808  19095394.58307
  -3716454.70107  -2895937.37207  20379247.51507  20379250.56107
 93 04 16 02 52 00.0000000  0  6 20 16 24 12 03 13
 -16994142.88308 -13242181.57408  16710782.34608  16710782.95408
 -16571325.17508 -12912701.07508  17364300.99508  17364301.90408
 -34767435.12808 -27091456.47308  16258542.45208  16258542.83608
 -27351261.89008 -21312652.62008  17257816.08808  17257817.68008
  -4049936.23807  -3155792.89307  20315787.90307  20315790.80207
 -20735916.71708 -16157825.80507  19126692.21508  19126693.50907
 93 04 16 02 54 00.0000000  0  6 20 16 24 12 03 13
 -17365375.01708 -13531453.28308  16640139.17208  16640139.74208
 -16947166.17508 -13205564.08208  17292780.72808  17292781.60808
 -34632425.81408 -26986254.39808  16284233.83308  16284234.20308
 -27137527.08608 -21146106.05308  17298488.53008  17298490.12208
  -4383376.90707  -3415616.54207  20252336.06207  20252339.00507
 -20573355.49208 -16031154.66807  19157626.54108  19157627.80607
 93 04 16 02 56 00.0000000  0  6 20 16 24 12 03 13
 -17732166.82908 -13817265.00808  16570340.93408  16570341.54608
 -17318736.41608 -13495099.23408  17222073.16808  17222074.00208
 -34493696.63808 -26878153.72508  16310633.12308  16310633.47808
 -26918396.09608 -20975354.66408  17340187.76508  17340189.35608
  -4716981.64007  -3675568.04207  20188853.00407  20188855.86107
 -20412862.44608 -15906095.09307  19188167.26208  19188168.63307
 93 04 16 02 58 00.0000000  0  6 20 16 24 03 12 13
 -18094547.87908 -14099639.78108  16501382.05308  16501382.58208
 -17686146.49508 -13781392.71508  17152157.28508  17152158.06808
 -34351944.21208 -26767697.27008  16337607.70708  16337608.02308
  -5050983.70707  -3935829.22307  20125294.36207  20125297.15207
 -26694246.73808 -20800692.85908  17382841.99508  17382843.57308
 -20254616.20008 -15782786.26807  19218280.46008  19218281.80407
 93 04 16 03 00 00.0000000  0  6 20 16 24 03 12 13
 -18451964.02808 -14378145.80208  16433367.94208  16433368.46508
 -18049003.12608 -14064138.06208  17083107.90708  17083108.72608
 -34206816.01908 -26654610.35308  16365224.65108  16365224.97508
  -5385032.45507  -4196126.78408  20061726.80007  20061729.67108
 -26464876.64908 -20621962.95808  17426489.66808  17426491.26408
 -20098206.08608 -15660908.21307  19248044.27308  19248045.53207
 93 04 16 03 02 00.0000000  0  6 20 16 24 03 12 13
 -18803375.89308 -14651973.14408  16366496.43708  16366496.91008
 -18405816.38108 -14342174.28308  17015208.48808  17015209.27108
 -34057727.43908 -26538437.43408  16393595.17308  16393595.53208
  -5718292.46508  -4455809.74308  19998309.37808  19998312.13108
 -26229599.90908 -20438630.47508  17471261.35608  17471262.97008
 -19942737.86808 -15539764.09707  19277628.82408  19277630.01507
 93 04 16 03 04 00.0000000  0  6 20 16 24 03 12 13
 -19148923.55508 -14921230.96908  16300740.78608  16300741.26508
 -18756941.38408 -14615778.10608  16948391.53208  16948392.28308
 -33905187.11208 -26419574.84508  16422622.63408  16422623.02108
  -6051107.09608  -4715145.63008  19934976.76108  19934979.46108
 -25988911.72008 -20251081.28708  17517062.79808  17517064.41308
 -19788492.23608 -15419572.64507  19306980.72408  19306982.02507
 93 04 16 03 06 00.0000000  0  6 20 16 24 03 12 13
 -19488286.17708 -15185669.28208  16236162.14708  16236162.58908
 -19101888.81208 -14884568.23708  16882750.18008  16882750.89308
 -33748796.83508 -26297712.29208  16452382.71508  16452383.10708
  -6383356.30408  -4974040.91108  19871751.65508  19871754.32608
 -25742846.79908 -20059342.43508  17563887.42908  17563889.01208
 -19635280.47408 -15300186.79907  19336135.91708  19336137.09507
 93 04 16 03 08 00.0000000  0  6 20 16 24 03 12 13
 -19821814.66008 -15445561.52108  16172693.69508  16172694.12008
 -19441285.17408 -15149032.86708  16818165.13508  16818165.82508
 -33589416.49508 -26173519.81308  16482711.80108  16482712.14908
  -6715588.98908  -5232923.26508  19808529.67808  19808532.28008
 -25492110.60108 -19863963.63308  17611600.95708  17611602.59408
 -19483591.24508 -15181987.35207  19365001.36708  19365002.45207
 93 04 16 03 10 00.0000000  0  6 20 16 24 12 03 13
 -20149229.54208 -15700689.93808  16110388.64808  16110389.05308
 -19774527.38508 -15408702.05308  16754751.18208  16754751.85008
 -33426982.31608 -26046947.71008  16513621.93308  16513622.25008
 -25236781.03308 -19665005.57808  17660188.58408  17660190.22608
  -7047725.29308  -5491730.54008  19745326.10008  19745328.64608
 -19333271.16108 -15064854.75507  19393606.23108  19393607.47407
 93 04 16 03 12 00.0000000  0  6 20 16 24 12 03 13
 -20470568.81108 -15951084.09508  16049239.76608  16049240.14908
 -20101988.86808 -15663866.77308  16692437.26808  16692437.93208
 -33261949.67908 -25918350.83508  16545026.55908  16545026.87608
 -24977251.16608 -19462774.56008  17709575.51208  17709577.14608
  -7379998.07808  -5750644.18808  19682096.50708  19682099.02108
 -19184482.31608 -14948915.33007  19421919.79608  19421920.92907
 93 04 16 03 14 00.0000000  0  7 20 16 24 12 03 17 13
 -20785054.29108 -16196137.64608  15989395.09208  15989395.48008
 -20422801.26508 -15913850.38008  16631388.65708  16631389.28908
 -33093853.90508 -25787367.09908  16577014.06008  16577014.40608
 -24713100.41708 -19256942.85408  17759841.74308  17759843.38108
  -7711824.95508  -6009210.40808  19618951.69608  19618954.25508
        -0.51617        -0.57617  20320194.59917  20320197.09417
 -19036569.16608 -14833658.27507  19450066.65708  19450067.74707
 93 04 16 03 16 00.0000000  0  7 20 16 24 12 03 17 13
 -21091766.43908 -16435134.03908  15931029.66008  15931029.98808
 -20735879.12208 -16157807.07608  16571811.81408  16571812.44308
 -32921910.92408 -25653385.54308  16609733.77708  16609734.06408
 -24443762.61808 -19047069.29408  17811095.07208  17811096.70608
  -8042476.00108  -6266860.42208  19556030.80808  19556033.22708
   -486414.44407   -379023.97707  20227632.82007  20227635.02207
 -18888728.78207 -14718457.87707  19478199.68207  19478200.85407
 93 04 16 03 18 00.0000000  0  7 20 16 24 12 03 17 13
 -21389771.88608 -16667345.99908  15874321.04608  15874321.35108
 -21040273.95008 -16394997.77808  16513887.33508  16513887.93108
 -32745432.70208 -25515870.03508  16643316.39408  16643316.67608
 -24168657.31608 -18832701.56508  17863445.87808  17863447.54608
  -8371205.76908  -6523013.30708  19493475.53808  19493477.87708
   -969706.32007   -755614.56307  20135665.06007  20135667.26007
 -18740140.07207 -14602674.41807  19506475.14607  19506476.21607
 93 04 16 03 20 00.0000000  0  7 20 16 24 12 03 17 13
 -21677667.98708 -16891680.55208  15819536.17608  15819536.47008
 -21334524.81208 -16624284.08808  16457893.26808  16457893.85508
 -32563413.35908 -25374036.77808  16677953.52708  16677953.84508
 -23886733.40208 -18613020.63408  17917094.24008  17917095.90308
  -8696796.23908  -6776719.97208  19431517.69808  19431519.89908
  -1448442.28307  -1128655.15707  20044564.25807  20044566.39807
 -18589509.47207 -14485299.86507  19535139.09707  19535140.23307
 93 04 16 03 22 00.0000000  0  7 20 16 24 12 03 17 13
 -21954437.02408 -17107344.67308  15766868.72108  15766869.02908
 -21617792.47408 -16845012.06408  16403989.20808  16403989.74608
 -32375182.82208 -25227363.62708  16713772.66208  16713772.96608
 -23597322.15708 -18387505.42108  17972167.42308  17972169.07408
  -9018411.73208  -7027329.21408  19370316.07008  19370318.30708
  -1921793.65707  -1497499.95507  19954488.19207  19954490.22607
 -18435921.61407 -14365620.98507  19564365.89607  19564366.98007
 93 04 16 03 24 00.0000000  0  7 20 16 24 12 03 17 13
 -22221422.82708 -17315385.49808  15716062.99208  15716063.26208
 -21891357.37208 -17058179.44708  16351931.45508  16351931.98208
 -32182058.46708 -25076877.10908  16750522.97308  16750523.27108
 -23302113.82508 -18157472.98908  18028343.72908  18028345.41108
  -9337572.81208  -7276025.94408  19309581.50808  19309583.76608
  -2390894.50307  -1863032.72307  19865221.07607  19865222.93007
 -18280819.03407 -14244761.78607  19593880.93207  19593881.97607
 93 04 16 03 26 00.0000000  0  7 20 16 24 12 03 17 13
 -22479050.35108 -17516134.16808  15667038.05808  15667038.32208
 -22155739.54408 -17264191.45908  16301621.10908  16301621.63508
 -31984699.40708 -24923090.81908  16788079.17408  16788079.47108
 -23001877.50108 -17923522.64908  18085476.84008  18085478.52208
  -9654878.54708  -7523276.93608  19249200.09608  19249202.32108
  -2856259.51807  -2225654.49407  19776664.67707  19776666.54707
 -18124720.49407 -14123126.49807  19623585.38307  19623586.46007
 93 04 16 03 28 00.0000000  0  7 20 16 24 12 03 17 13
 -22727349.16208 -17709613.71708  15619788.35408  15619788.61008
 -22410716.13608 -17462874.45408  16253100.66508  16253101.19508
 -31783684.62108 -24766455.90308  16826330.99708  16826331.34008
 -22696982.74908 -17685942.36208  18143496.45108  18143498.14308
  -9970527.46508  -7769236.90008  19189133.93108  19189136.03608
  -3318113.41807  -2585540.37007  19688776.66007  19688778.36607
 -17967744.17007 -14000807.29807  19653457.14407  19653458.09607
 93 04 16 03 30 00.0000000  0  7 20 16 24 12 03 17 13
 -22966212.85208 -17895741.22908  15574334.08008  15574334.32608
 -22656518.66308 -17654408.82908  16206325.93808  16206326.43308
 -31579169.31908 -24607093.31908  16865249.01008  16865249.26908
 -22387660.48508 -17444912.05608  18202358.54208  18202360.21908
 -10284579.06308  -8013952.21008  19129371.80508  19129373.79608
  -3776304.00407  -2942571.73507  19601585.76807  19601587.43407
 -17809869.32907 -13877787.86806  19683499.63107  19683500.52406
 93 04 16 03 32 00.0000000  0  7 20 16 24 12 03 17 13
 -23195488.63508 -18074397.64408  15530704.31808  15530704.55608
 -22892722.39808 -17838463.62108  16161377.81908  16161378.33508
 -31371124.50508 -24444980.45708  16904838.55408  16904838.82808
 -22074091.02608 -17200572.25808  18262028.87308  18262030.57108
 -10597039.25908  -8257427.48108  19069912.41008  19069914.42508
  -4230922.76107  -3296819.88407  19515074.47607  19515076.05007
 -17651021.47107 -13754010.29707  19713727.30807  19713728.45007
 93 04 16 03 34 00.0000000  0  7 20 16 24 12 03 17 13
 -23415006.56808 -18245450.54108  15488931.44408  15488931.63908
 -23118942.68808 -18014739.10708  16118329.50108  16118329.97108
 -31159422.31708 -24280017.69608  16945124.15208  16945124.45308
 -21756433.45208 -16953046.92408  18322477.12708  18322478.80708
 -10907893.72208  -8499651.53708  19010758.60308  19010760.63108
  -4681490.49508  -3647911.43307  19429334.26908  19429335.75807
 -17491105.24107 -13629400.24106  19744158.39407  19744159.25606
 93 04 16 03 36 00.0000000  0  7 20 16 24 03 17 12 13
 -23624590.17208 -18408762.40908  15449049.00008  15449049.21508
 -23335490.52508 -18183477.61808  16077121.73408  16077122.18508
 -30944256.53508 -24112356.03108  16986068.89808  16986069.16008
 -11217114.47708  -8740602.58708  18951915.76108  18951917.64308
  -5127925.92008  -3995783.00107  19344380.16208  19344381.70007
 -21434834.58708 -16702450.44308  18383675.37408  18383677.13308
 -17330009.55507 -13503871.12206  19774813.84807  19774814.84406
 93 04 16 03 38 00.0000000  0  6 20 16 24 03 17 12
 -23824052.29908 -18564187.40508  15411092.59808  15411092.81308
 -23542052.20908 -18344434.71308  16037814.35808  16037814.80108
 -30725768.05008 -23942105.23808  17027645.84708  17027646.11108
 -11524658.19808  -8980246.90808  18893392.06708  18893393.90408
  -5570442.03308  -4340600.58207  19260172.20308  19260173.52807
 -21109426.92208 -16448886.05408  18445598.48708  18445600.19208
 93 04 16 03 40 00.0000000  0  6 20 16 24 03 17 12
 -24013227.79308 -18711596.83608  15375093.69008  15375093.90508
 -23738297.48508 -18497353.04508  16000470.14008  16000470.56108
 -30503987.31008 -23769289.05608  17069849.29808  17069849.57208
 -11830497.31808  -9218562.93808  18835192.77808  18835194.53008
  -6008730.50608  -4682123.89908  19176768.45508  19176769.96908
 -20780359.42708 -16192469.83608  18508217.93108  18508219.69108
 93 04 16 03 42 00.0000000  0  7 20 16 24 03 17 12 13
 -24191947.35208 -18850858.78308  15341084.46508  15341084.69708
 -23924390.62208 -18642360.61908  15965057.73608  15965058.15708
 -30278705.62908 -23593744.87108  17112719.02408  17112719.28208
 -12134594.34708  -9455521.49608  18777324.87408  18777326.68508
  -6442483.61608  -5020113.13908  19094227.84608  19094229.21408
 -20447771.20808 -15933310.21108  18571507.41208  18571509.14008
        -0.52917        -0.52716  19868353.04617  19868354.16516
 93 04 16 03 44 00.0000000  0  7 20 16 24 03 17 12 13
 -24360033.18608 -18981834.71008  15309098.80008  15309099.00108
 -24099758.73808 -18779011.03308  15931686.29908  15931686.70408
 -30050206.81208 -23415693.82108  17156200.96708  17156201.23508
 -12436896.64708  -9691081.56708  18719798.53008  18719800.33208
  -6871704.46808  -5354570.77008  19012549.63508  19012551.12608
 -20111786.42708 -15671503.89708  18635443.24308  18635444.97508
    167002.97207    130132.04806  19900132.89807  19900133.79106
 93 04 16 03 46 00.0000000  0  6 20 16 24 03 17 12
 -24517335.82408 -19104408.15708  15279165.08208  15279165.30008
 -24264434.52008 -18907329.76208  15900349.55408  15900349.95108
 -29818373.29608 -23235044.32008  17200317.37408  17200317.60908
 -12737373.20708  -9925218.99608  18662619.74008  18662621.41508
  -7296347.62908  -5685461.35708  18931742.74208  18931744.10908
 -19772552.63808 -15407165.88308  18699997.29908  18699999.01908
 93 04 16 03 48 00.0000000  0  7 20 16 24 03 17 12 25
 -24663706.17708 -19218462.95308  15251311.73708  15251311.93808
 -24418534.69608 -19027407.76608  15871025.23008  15871025.62108
 -29583174.38108 -23051772.43608  17245074.25808  17245074.54808
 -13035986.59508 -10157904.59608  18605795.36708  18605796.98408
  -7716391.39908  -6012768.02508  18851810.88208  18851812.18708
 -19430211.21108 -15140406.36308  18765142.78008  18765144.57508
        -0.15517        -0.78416  19757826.37117  19757827.64116
 93 04 16 03 50 00.0000000  0  7 20 16 24 03 17 12 25
 -24799062.99708 -19323935.78208  15225554.18308  15225554.40208
 -24561584.64408 -19138875.21108  15843803.68808  15843804.04208
 -29345097.09708 -22866257.68608  17290378.92408  17290379.14708
 -13332759.05408 -10389155.72308  18549321.32408  18549322.98708
  -8131379.78008  -6336135.42708  18772841.24108  18772842.45308
 -19084963.76808 -14871382.43108  18830841.22508  18830843.04308
   -144089.64907   -112278.26907  19730406.89707  19730408.37007
 93 04 16 03 52 00.0000000  0  7 20 16 24 03 17 12 25
 -24923316.04008 -19420756.31808  15201909.61308  15201909.83008
 -24693800.27908 -19241900.33808  15818643.88608  15818644.22908
 -29104095.62608 -22678464.34308  17336239.93808  17336240.23008
 -13627698.64708 -10618978.66208  18493196.19108  18493197.77808
  -8541572.47608  -6655765.93208  18694783.85108  18694785.13508
 -18736996.89208 -14600239.47508  18897057.15708  18897059.05308
   -278571.51107   -217069.24107  19704815.79707  19704817.04307
 93 04 16 03 54 00.0000000  0  7 20 16 24 03 17 12 25
 -25036365.81908 -19508847.04408  15180396.97508  15180397.18508
 -24814932.79308 -19336289.27508  15795593.13108  15795593.46608
 -28860007.74508 -22488266.00708  17382688.30808  17382688.65808
 -13920793.35108 -10847364.03808  18437422.00908  18437423.61308
  -8946593.46708  -6971366.53508  18617710.89108  18617712.14408
 -18386478.77608 -14327108.58408  18963758.54808  18963760.53308
   -403221.00907   -314198.64207  19681095.56207  19681097.05307
 93 04 16 03 56 00.0000000  0  7 20 16 24 03 17 12 25
 -25138118.68808 -19588134.99108  15161034.05108  15161034.26308
 -24924701.46508 -19421823.27308  15774704.81908  15774705.13208
 -28612924.61308 -22295733.70508  17429706.67708  17429706.97908
 -14212032.53008 -11074303.56408  18382001.03208  18382002.47008
  -9346580.07208  -7283044.24808  18541595.86108  18541596.97808
 -18033578.75008 -14052121.69608  19030913.38508  19030915.37508
   -517966.84507   -403610.93507  19659260.34407  19659261.99407
 93 04 16 03 58 00.0000000  0  6 20 16 24 03 17 12
 -25228515.90508 -19658574.38108  15143832.04208  15143832.24908
 -25023366.82508 -19498705.34308  15755929.39208  15755929.71908
 -28362838.39208 -22100861.33208  17477296.59008  17477296.89608
 -14501430.61808 -11299808.46308  18326930.24308  18326931.88008
  -9741567.94708  -7590826.86408  18466432.07208  18466433.23608
 -17678492.68108 -13775431.38608  19098484.07408  19098486.06608
 93 04 16 04 00 00.0000000  0  6 20 16 03 17 24 12
 -25307467.64508 -19720095.21708  15128808.04108  15128808.23608
 -25110960.74908 -19566960.31908  15739260.81608  15739261.13208
 -14788963.28308 -11523859.76008  18272214.56408  18272216.12708
 -10131209.47208  -7894443.50708  18392285.72108  18392286.71408
 -28110131.08508 -21903946.55308  17525385.15408  17525385.44708
 -17321376.83008 -13497159.44608  19166441.16008  19166443.13108
 93 04 16 04 02 00.0000000  0  6 20 16 03 17 24 12
 -25374942.24408 -19772672.83108  15115968.04608  15115968.26308
 -25187123.02408 -19626307.51608  15724767.61308  15724767.91208
 -15074656.29308 -11746477.56208  18217848.92708  18217850.33508
 -10515505.80708  -8193895.08208  18319156.43508  18319157.52508
 -27854527.89808 -21704775.24608  17574024.81908  17574025.11908
 -16962438.12008 -13217467.08407  19234745.00608  19234746.98307
 93 04 16 04 04 00.0000000  0  7 20 16 03 17 24 12 25
 -25430919.18708 -19816291.23308  15105316.00708  15105316.22108
 -25251923.44308 -19676801.32008  15712436.49608  15712436.81108
 -15358538.29108 -11967684.18508  18163827.84708  18163829.33408
 -10894282.15808  -8489045.38608  18247077.64208  18247078.69908
 -27596236.54208 -21503509.25308  17623176.09808  17623176.40208
 -16601886.71308 -12936518.05307  19303355.74208  19303357.69007
         0.44217         0.38017  19590306.88417  19590308.16617
 93 04 16 04 06 00.0000000  0  7 20 16 03 17 24 12 25
 -25475377.98908 -19850934.46408  15096855.78008  15096856.00708
 -25305301.12108 -19718394.29208  15702279.00008  15702279.32908
 -15640627.48108 -12187493.82208  18110148.01308  18110149.41708
 -11268019.05708  -8780268.85408  18175957.81508  18175958.78908
 -27335753.82508 -21300535.71108  17672744.27008  17672744.65908
 -16239922.65108 -12654468.22407  19372235.24908  19372237.47607
    -66299.22907    -51661.57606  19577690.40107  19577691.69506
 93 04 16 04 08 00.0000000  0  7 20 16 03 17 24 12 25
 -25508286.92808 -19876577.80008  15090593.42808  15090593.66108
 -25347231.79108 -19751067.52308  15694299.86708  15694300.17808
 -15920925.71408 -12405907.94708  18056808.94008  18056810.28808
 -11636414.34208  -9067330.00908  18105854.49208  18105855.46008
 -27072799.88808 -21095636.54708  17722782.74808  17722783.08908
 -15876730.17008 -12371461.18107  19441348.72808  19441350.65707
   -122987.84607    -95834.51506  19566902.92307  19566904.03806
 93 04 16 04 10 00.0000000  0  7 20 16 03 17 24 12 25
 -25529614.61508 -19893196.78008  15086534.92608  15086535.15608
 -25378067.04508 -19775094.97108  15688432.15508  15688432.45908
 -16199423.96908 -12622919.46108  18003812.40408  18003813.83008
 -11999084.23908  -9349929.83908  18036840.64508  18036841.62208
 -26807064.48908 -20888570.00908  17773350.54008  17773350.91708
 -15512483.13908 -12087632.43607  19510662.59508  19510664.76907
   -169990.85507   -132460.17507  19557958.57707  19557959.85607
 93 04 16 04 12 00.0000000  0  7 20 16 03 17 24 12 25
 -25539373.76208 -19900801.31808  15084677.82908  15084678.06708
 -25397529.10908 -19790260.18908  15684728.60808  15684728.90108
 -16476146.70708 -12838547.43408  17951153.70208  17951155.07608
 -12356333.40608  -9628305.70208  17968858.28208  17968859.24508
 -26538951.99408 -20679651.19508  17824370.67908  17824370.95708
 -15147388.96908 -11803143.63407  19580137.99408  19580140.15207
   -207542.39807   -161721.13007  19550812.70807  19550813.91507
 93 04 16 04 14 00.0000000  0  7 20 16 03 17 24 12 25
 -25537567.70908 -19899394.01908  15085021.51508  15085021.77408
 -25405585.34208 -19796537.74708  15683195.54908  15683195.83408
 -16751102.70408 -13052798.72008  17898831.26108  17898832.55008
 -12708342.89108  -9902598.71708  17901873.04908  17901873.96608
 -26268748.70108 -20469103.19308  17875788.63508  17875788.99908
 -14781639.66007 -11518144.33507  19649737.74207  19649739.96607
   -235873.93407   -183797.56907  19545421.31507  19545422.57107
 93 04 16 04 16 00.0000000  0  7 20 16 03 17 24 12 25
 -25524220.37108 -19888993.50808  15087561.45808  15087561.70908
 -25402525.55708 -19794153.47108  15683777.81608  15683778.06908
 -17024313.00008 -13265689.71408  17846840.93108  17846842.26208
 -13054705.68408 -10172491.69008  17835962.36908  17835963.25108
 -25996321.33208 -20256822.14308  17927629.93008  17927630.25408
 -14415439.00707 -11232793.35007  19719423.44607  19719425.79507
   -254588.42708   -198380.28007  19541860.12708  19541861.16507
 93 04 16 04 18 00.0000000  0  7 20 16 03 17 24 12 25
 -25499383.71308 -19869640.28208  15092287.74508  15092287.97508
 -25388338.42608 -19783098.53508  15686477.49308  15686477.78608
 -17295815.51208 -13477249.98708  17795175.70508  17795176.97508
 -13395470.84508 -10438022.86908  17771116.80808  17771117.64808
 -25721882.05608 -20042973.36808  17979853.92408  17979854.32408
 -14049008.86907 -10947263.55507  19789152.84607  19789155.38607
   -264243.61307   -205903.75407  19540022.71607  19540023.88307
 93 04 16 04 20 00.0000000  0  7 20 16 03 17 24 12 25
 -25463075.45208 -19841348.15308  15099197.00008  15099197.23508
 -25362569.76108 -19763019.04008  15691381.12708  15691381.42808
 -17565604.91608 -13687475.35308  17743836.38908  17743837.60708
 -13730856.74808 -10699362.41708  17707294.93808  17707295.73608
 -25445431.91008 -19827557.67508  18032460.70908  18032460.99508
 -13682528.35008 -10661694.54207  19858892.14108  19858894.58807
   -264845.34307   -206372.63307  19539908.14607  19539909.41807
 93 04 16 04 22 00.0000000  0  8 20 16 03 17 24 12 25 26
 -25415335.73408 -19804148.39608  15108281.58608  15108281.84108
 -25325733.45008 -19734315.40008  15698390.84908  15698391.14208
 -17833689.00808 -13896371.93108  17692821.60008  17692822.72008
 -14060858.93208 -10956506.86108  17644497.48608  17644498.34608
 -25166983.58708 -19610584.95908  18085447.70308  18085448.05308
 -13316188.96607 -10376235.48307  19928604.26407  19928606.66407
   -256174.17307   -199615.81607  19541558.37107  19541559.52507
        -0.23317        -0.03017  19615390.50117  19615390.57717
 93 04 16 04 24 00.0000000  0  8 20 16 03 17 24 12 25 26
 -25356219.80608 -19758084.05908  15119531.00408  15119531.26508
 -25277978.05008 -19697103.38708  15707478.40308  15707478.70108
 -18100081.98408 -14103950.74608  17642128.66208  17642129.74708
 -14385223.54108 -11209258.40408  17582772.98008  17582773.70608
 -24887055.74108 -19392459.36108  18138716.14108  18138716.52508
 -12950189.95607 -10091041.75707  19998251.89007  19998254.44507
   -238434.78307   -185792.94007  19544934.00807  19544935.33407
   -318358.40108   -248071.33107  19554809.11208  19554809.06807
 93 04 16 04 26 00.0000000  0  8 20 16 03 17 24 12 25 26
 -25285795.65808 -19703208.12708  15132932.30808  15132932.57108
 -25219215.16908 -19651314.11308  15718660.58608  15718660.86608
 -18364800.57008 -14310224.86908  17591754.23208  17591755.35008
 -14703766.17608 -11457473.34808  17522156.22408  17522156.96108
 -24605040.30508 -19172707.08108  18192381.91808  18192382.34508
 -12584732.16207  -9806269.77307  20067796.54107  20067799.15007
   -211632.09407   -164907.68907  19550034.46207  19550035.51307
   -636671.42908   -496107.43408  19494236.08008  19494236.34608
 93 04 16 04 28 00.0000000  0  8 20 16 03 17 24 12 25 26
 -25204132.25608 -19639574.33808  15148472.35908  15148472.63708
 -25149581.59308 -19597054.16908  15731911.41108  15731911.67908
 -18627854.12208 -14515201.55508  17541696.78108  17541697.95008
 -15017097.54208 -11701627.56408  17462531.21108  17462531.87308
 -24321103.23808 -18951457.42008  18246413.38708  18246413.73808
 -12220010.72907  -9522071.63207  20137200.98207  20137203.62807
   -176051.42607   -137182.50007  19556805.20907  19556806.30307
   -954805.37907   -744004.03208  19433696.94807  19433697.18908
 93 04 16 04 30 00.0000000  0  8 20 16 03 17 24 12 25 26
 -25111318.64908 -19567252.08408  15166134.23908  15166134.53308
 -25069080.88808 -19534326.33608  15747230.23008  15747230.50208
 -18889263.11908 -14718896.79508  17491952.29108  17491953.25008
 -15325058.67808 -11941597.18508  17403928.05708  17403928.74408
 -24035801.30508 -18729144.22408  18300704.61608  18300704.97408
 -11856230.64207  -9238607.08707  20206426.17407  20206429.15107
   -132189.44007   -103004.38307  19565151.82307  19565153.00207
  -1272675.77508   -991695.26008  19373208.41608  19373208.60508
 93 04 16 04 32 00.0000000  0  8 20 16 03 17 24 12 25 26
 -25007470.26508 -19486331.30508  15185895.98108  15185896.26008
 -24977686.95708 -19463110.27108  15764621.89808  15764622.15508
 -19149063.27808 -14921338.38008  17442513.82308  17442514.89508
 -15627168.03708 -12177006.99008  17346438.52508  17346439.13808
 -23748885.51108 -18505573.48208  18355302.81008  18355303.21808
 -11493613.52607  -8956048.81507  20275430.59307  20275433.45607
    -80023.48307    -62355.62507  19575078.73907  19575079.94607
  -1590079.05008  -1239022.51908  19312808.58708  19312808.83808
 93 04 16 04 34 00.0000000  0  7 20 16 03 17 24 25 26
 -24892714.79908 -19396911.50208  15207733.24408  15207733.54508
 -24875597.42408 -19383559.97208  15784048.83208  15784049.08108
 -19407294.59608 -15122557.47608  17393374.04108  17393374.99208
 -15923895.02808 -12408222.73608  17289973.18108  17289973.85308
 -23460627.43608 -18280956.79908  18410156.55608  18410156.88208
    -19297.89907    -15037.02807  19586634.45507  19586635.74707
  -1906911.62208  -1485904.98208  19252517.38308  19252517.56008
 93 04 16 04 36 00.0000000  0  7 20 16 03 17 24 25 26
 -24767149.07308 -19299068.12008  15231627.64208  15231627.95108
 -24763284.20508 -19296043.16608  15805421.36608  15805421.64108
 -19663957.93808 -15322554.78808  17344532.55308  17344533.48408
 -16215280.23108 -12635276.06108  17234524.39008  17234524.95608
 -23171168.00808 -18055404.01708  18465238.85008  18465239.17308
     49684.80307     38715.75307  19599761.40607  19599762.77207
  -2223062.59408  -1732256.35608  19192355.94208  19192356.12108
 93 04 16 04 38 00.0000000  0  7 20 16 03 17 24 25 26
 -24630923.35308 -19192918.25308  15257550.58008  15257550.90808
 -24640663.38208 -19200494.46608  15828755.33508  15828755.59008
 -19919095.96608 -15521363.53508  17295981.29008  17295982.24808
 -16501353.25808 -12858190.02608  17180086.41108  17180087.00708
 -22880339.07408 -17828784.06808  18520581.75908  18520582.08408
    126597.63407     98647.79407  19614397.42307  19614398.73407
  -2538524.21008  -1978070.57708  19132325.48808  19132325.55608
 93 04 16 04 40 00.0000000  0  7 20 16 03 17 24 25 26
 -24484190.19508 -19078580.76308  15285472.99508  15285473.34708
 -24507954.36208 -19097084.83108  15854009.00208  15854009.28608
 -20172747.03108 -15719013.62008  17247713.00708  17247713.99108
 -16782270.47908 -13077086.48508  17126629.64208  17126630.22308
 -22588380.97908 -17601284.25208  18576139.52408  18576139.86408
    211345.89707    164685.36507  19630524.58707  19630525.77107
  -2853141.42608  -2223226.83608  19072455.78508  19072456.03808
 93 04 16 04 42 00.0000000  0  7 20 03 16 17 24 25 26
 -24327118.17608 -18956187.02208  15315362.84308  15315363.19608
 -20424956.18708 -15915540.16008  17199719.13808  17199720.12708
 -24365049.22208 -18985730.17008  15881202.95708  15881203.23908
 -17057723.89708 -13291725.41908  17074212.48508  17074212.98908
 -22295505.30808 -17373069.44108  18631871.92208  18631872.25508
    303514.77007    236505.24407  19648063.82907  19648064.91807
  -3166606.20108  -2467485.07308  19012805.54808  19012805.69208
 93 04 16 04 44 00.0000000  0  7 20 03 16 17 24 25 26
 -24159832.38208 -18825834.49508  15347196.32208  15347196.67008
 -20675714.74908 -16110936.38408  17152001.35608  17152002.28908
 -24212172.91508 -18866605.77408  15910294.35708  15910294.64308
 -17327951.48408 -13502292.28408  17022789.84508  17022790.32908
 -22001355.90808 -17143862.12108  18687846.69608  18687847.06008
    403257.90907    314227.10607  19667044.29207  19667045.56207
  -3478818.67608  -2710767.49408  18953393.21608  18953393.36508
 93 04 16 04 46 00.0000000  0  7 20 03 16 17 24 25 26
 -23982483.24308 -18687640.39908  15380944.74808  15380945.12208
 -20925031.44908 -16305209.08308  17104557.94808  17104558.76708
 -24049805.56508 -18740085.76508  15941191.83208  15941192.12908
 -17593112.87008 -13708911.44308  16972331.21908  16972331.72308
 -21706468.15408 -16914079.46808  18743961.96908  18743962.35808
    510295.41607    397632.81807  19687412.93507  19687414.30107
  -3789947.17008  -2953205.24808  18894187.45208  18894187.60308
 93 04 16 04 48 00.0000000  0  7 03 20 16 17 24 25 26
 -21172883.66308 -16498340.60508  17057393.09108  17057394.06308
 -23795198.83608 -18541704.54708  15416583.82708  15416584.22908
 -23877638.84008 -18605929.88008  15973954.09908  15973954.37808
 -17853151.41508 -13911538.77408  16922847.50708  16922847.89308
 -21410989.18908 -16683836.13608  18800189.77208  18800190.08708
    624213.47007    486400.02307  19709091.07407  19709092.33307
  -4099527.66108  -3194436.75208  18835276.25008  18835276.44608
 93 04 16 04 50 00.0000000  0  7 03 20 16 17 24 25 26
 -21419305.09408 -16690357.25308  17010500.57008  17010501.58108
 -23598171.42308 -18388176.74708  15454076.96108  15454077.34808
 -23695958.79908 -18464361.01808  16008526.63808  16008526.90808
 -18108062.74108 -14110170.88808  16874339.36808  16874339.80308
 -21114540.96908 -16452837.55508  18856602.06908  18856602.40908
    744929.14107    580464.04707  19732062.47407  19732063.88507
  -4407635.35208  -3434520.68808  18776645.41908  18776645.44508
 93 04 16 04 52 00.0000000  0  7 03 20 16 17 24 25 26
 -21664274.71108 -16881242.60708  16963884.44708  16963885.30508
 -23391547.87408 -18227171.43208  15493396.14708  15493396.54108
 -23505256.56108 -18315761.88108  16044816.12908  16044816.38908
 -18357893.89308 -14304844.42808  16826798.07108  16826798.48608
 -20817278.60008 -16221204.57008  18913169.22108  18913169.58708
    872460.36207    679838.94207  19756330.93607  19756332.22307
  -4713749.67108  -3673051.30908  18718393.64408  18718393.62808
 93 04 16 04 54 00.0000000  0  8 03 20 16 17 24 23 25 26
 -21907790.37308 -17070995.00008  16917544.96408  16917545.75608
 -23175501.66608 -18058823.78908  15534508.42008  15534508.83908
 -23305355.14708 -18159994.55108  16082856.06608  16082856.36808
 -18602914.98908 -14495769.89208  16780172.02408  16780172.41408
 -20519923.33808 -15989499.20408  18969754.06308  18969754.44808
        -0.44517        -0.00718  19130402.57117  19130403.68818
   1006781.67207    784504.73107  19781891.50907  19781893.05207
  -5017965.36708  -3910102.45908  18660503.43608  18660503.40208
 93 04 16 04 56 00.0000000  0  8 03 20 16 17 24 23 25 26
 -22149821.16608 -17259590.37708  16871487.98208  16871488.73908
 -22950185.31208 -17883252.65308  15577384.73308  15577385.15408
 -23096686.41708 -17997395.54908  16122564.43408  16122564.75308
 -18843000.27308 -14682849.26708  16734485.25608  16734485.66108
 -20221807.22208 -15757200.93708  19026483.69208  19026484.05408
   -434618.29808   -338663.07808  19047697.32508  19047698.51208
   1147297.15807    893997.23207  19808630.86707  19808632.23207
  -5320327.52508  -4145709.31408  18602965.51608  18602965.70408
 93 04 16 04 58 00.0000000  0  8 03 20 16 17 24 23 25 26
 -22390340.06208 -17447007.65608  16825718.72108  16825719.49408
 -22715762.60408 -17700585.65208  15621993.93108  15621994.35208
 -22879044.68008 -17827804.59008  16163980.27208  16163980.55608
 -19077900.20308 -14865888.10508  16689785.26808  16689785.64708
 -19922957.39608 -15524330.92808  19083352.87808  19083353.28008
   -866859.80008   -675474.53308  18965444.60308  18965445.58508
   1293949.59907   1008271.79507  19836537.86607  19836539.34307
  -5620087.28908  -4379288.34308  18545923.48408  18545923.30808
 93 04 16 05 00 00.0000000  0  8 03 20 16 17 24 23 25 26
 -22629325.61608 -17633230.12208  16780241.27608  16780242.00408
 -22472412.65608 -17510962.35908  15668301.93308  15668302.36708
 -22652806.58208 -17651515.16608  16207031.94208  16207032.22808
 -19308231.14508 -15045366.68608  16645954.63908  16645955.02308
 -19623791.70908 -15291214.77707  19140282.30408  19140282.50207
  -1296797.36708  -1010490.69408  18883629.99708  18883630.89708
   1446710.20007   1127305.91107  19865607.37807  19865608.85507
  -5917547.86908  -4611075.78008  18489318.60408  18489318.66808
 93 04 16 05 02 00.0000000  0  8 03 20 16 17 24 23 25 26
 -22866775.01808 -17818255.59108  16735056.15108  16735056.76708
 -22220340.41008 -17314542.47008  15716269.71908  15716270.13808
 -22418370.08508 -17468837.37908  16251643.77708  16251644.05408
 -19533618.68408 -15220993.27208  16603064.80208  16603065.13008
 -19324103.13608 -15057691.15007  19197310.97908  19197311.43907
  -1723879.26208  -1343281.69408  18802358.85008  18802359.95308
   1605047.10607   1250685.20207  19895737.93607  19895739.46007
  -6212782.59608  -4841128.77608  18433137.15808  18433137.32708
 93 04 16 05 04 00.0000000  0  8 03 20 16 17 24 23 25 26
 -23102651.90708 -18002055.73408  16690170.26108  16690170.93108
 -21959722.96708 -17111463.98408  15765863.59908  15765864.03808
 -22175280.78908 -17279417.15108  16297902.13008  16297902.37308
 -19754309.23408 -15392959.86908  16561068.71608  16561069.05508
 -19024264.67007 -14824050.72307  19254368.34607  19254368.57707
  -2148365.94608  -1674050.46408  18721581.75608  18721582.70708
   1768780.87907   1378269.87006  19926895.50807  19926896.93006
  -6505486.38008  -5069209.63108  18377437.52408  18377437.59608
 93 04 16 05 06 00.0000000  0  8 03 20 16 17 24 23 25 26
 -23336962.50508 -18184635.37608  16645582.35908  16645583.12508
 -21690790.15208 -16901905.99608  15817039.86008  15817040.32108
 -21924291.70208 -17083841.24708  16345663.76508  16345664.06008
 -19970308.26808 -15561270.75208  16519965.46608  16519965.71808
 -18724050.17107 -14590117.31807  19311497.22107  19311497.40807
  -2570251.98708  -2002792.76108  18641299.39608  18641300.42108
   1938036.09307   1510156.88806  19959103.89807  19959105.48106
  -6795021.80908  -5294821.62908  18322340.74408  18322340.80208
 93 04 16 05 08 00.0000000  0  8 03 20 16 17 24 23 25 26
 -23569686.51508 -18365978.70808  16601296.39508  16601297.04208
 -21413750.17008 -16686030.73608  15869758.84908  15869759.30808
 -21665594.27208 -16882258.84408  16394892.26408  16394892.52808
 -20181470.46608 -15725812.67408  16479782.54808  16479782.79508
 -18423791.03307 -14356149.13907  19368634.63707  19368635.00007
  -2988974.74408  -2329070.13808  18561619.14908  18561620.05308
   2112228.43506   1645890.92906  19992251.76106  19992253.41806
  -7081377.42508  -5517955.82408  18267849.13708  18267849.08408
 93 04 16 05 10 00.0000000  0  8 03 20 16 17 24 23 25 26
 -23800786.57308 -18546056.63708  16557319.47708  16557320.15908
 -21128801.62108 -16463992.96608  15923982.81408  15923983.28808
 -21399416.24808 -16674847.41108  16445544.27908  16445544.55708
 -20388381.25608 -15887041.81108  16440408.76508  16440409.00508
 -18123379.84907 -14122062.47007  19425800.98707  19425801.27207
  -3404684.92308  -2653000.04808  18482511.94408  18482512.90208
   2291370.20206   1785481.68206  20026341.49506  20026343.14806
  -7365043.80108  -5738994.54308  18213869.08508  18213869.08108
 93 04 16 05 12 00.0000000  0  8 03 20 16 17 24 23 25 26
 -24030215.86508 -18724832.65208  16513660.53408  16513661.20208
 -20836139.91708 -16235944.94008  15979674.52208  15979675.01008
 -21125548.15908 -16461443.72408  16497659.63608  16497659.88208
 -20590675.75508 -16044673.84008  16401913.34508  16401913.61508
 -17822988.09807 -13887990.96807  19482963.60807  19482963.95507
  -3817231.28108  -2974464.63308  18404007.00008  18404007.87508
   2475281.07107   1928788.59006  20061338.74507  20061340.41206
  -7645560.42908  -5957578.89608  18160488.58808  18160488.53308
 93 04 16 05 14 00.0000000  0  7 03 20 16 17 24 23 26
 -24257921.09808 -18902265.27308  16470329.63708  16470330.27008
 -20535961.33008 -16002039.60208  16036796.65308  16036797.14908
 -20844425.02408 -16242386.75008  16551155.62208  16551155.87308
 -20788320.73908 -16198682.87708  16364302.72408  16364302.92808
 -17522241.59907 -13653643.02507  19540193.80107  19540193.90707
  -4226616.41708  -3293465.89508  18326103.50008  18326104.35008
  -7922743.44508  -6173565.63908  18107742.38908  18107742.34508
 93 04 16 05 16 00.0000000  0  7 03 20 16 17 24 23 26
 -24483890.97308 -19078345.66208  16427329.00908  16427329.60508
 -20228509.23808 -15762466.59908  16095302.86208  16095303.41708
 -20556291.86208 -16017867.41908  16605985.57208  16605985.83308
 -20981296.02108 -16349053.18308  16327580.71908  16327580.97108
 -17221520.14007 -13419314.60607  19597419.11507  19597419.38707
  -4632774.87908  -3609952.90008  18248814.01408  18248814.84108
  -8195981.40508  -6386478.30108  18055746.91108  18055746.84308
 93 04 16 05 18 00.0000000  0  7 03 20 16 17 24 23 26
 -24708071.82308 -19253032.01408  16384668.77208  16384669.39708
 -19913991.40908 -15517387.82608  16155153.66408  16155154.20008
 -20261195.39408 -15787922.13708  16662140.57308  16662140.87008
 -21170406.59808 -16496412.03608  16291594.15908  16291594.36308
 -16920986.68607 -13185132.69307  19654608.77507  19654609.09107
  -5035522.58308  -3923782.17908  18172173.66108  18172174.38008
  -8465641.52808  -6596603.03108  18004432.30008  18004432.22608
 93 04 16 05 20 00.0000000  0  8 03 20 16 17 24 23 22 26
 -24930422.70108 -19426292.40208  16342356.81208  16342357.39708
 -19592635.69408 -15266980.82608  16216305.66008  16216306.19408
 -19959560.89408 -15552882.28508  16719539.69108  16719539.95408
 -21355239.37908 -16640437.54208  16256421.61608  16256421.82608
 -16620401.07107 -12950910.10907  19711808.25307  19711808.48707
  -5434583.58308  -4234738.70608  18096234.77808  18096235.55208
        -0.20216        -0.86416  19766849.39416  19766849.92816
  -8731629.55908  -6803866.39408  17953816.39708  17953816.24308
 93 04 16 05 22 00.0000000  0  8 03 20 16 17 24 23 22 26
 -25150885.02408 -19598081.20808  16300404.19008  16300404.73908
 -19264656.83808 -15011412.92608  16278717.99308  16278718.57508
 -19651309.75808 -15312686.61308  16778197.97808  16778198.20108
 -21535799.72408 -16781133.88108  16222062.07808  16222062.25608
 -16320091.20407 -12716902.44607  19768955.38607  19768955.62007
  -5830449.47508  -4543205.54108  18020903.92908  18020904.70308
   -335196.42807   -261192.55806  19703063.95607  19703064.47706
  -8993538.69708  -7007951.40008  17903976.77408  17903976.64108
 93 04 16 05 24 00.0000000  0  8 03 20 16 17 24 23 22 26
 -25369372.08808 -19768330.82808  16258827.49308  16258828.04408
 -18930247.40708 -14750834.19208  16342354.01408  16342354.59008
 -19336669.86608 -15067512.69008  16838071.92708  16838072.18508
 -21712399.78108 -16918744.27408  16188456.16508  16188456.38708
 -16020054.18207 -12483107.38107  19826050.47007  19826050.78407
  -6222469.46508  -4848675.58508  17946305.00908  17946305.63108
   -665198.15307   -518336.67307  19640266.63507  19640267.09707
  -9251087.91508  -7208639.05408  17854966.67208  17854966.62308
 93 04 16 05 26 00.0000000  0  8 03 20 16 17 24 23 22 26
 -25585812.11608 -19936985.37208  16217640.26608  16217640.84908
 -18589619.09508 -14485409.56708  16407173.49008  16407174.04208
 -19016057.27108 -14817684.70908  16899082.55608  16899082.74408
 -21884562.42408 -17052896.93708  16155694.67408  16155694.91108
 -15720106.91607 -12249382.23907  19883128.65807  19883128.97907
  -6610624.85608  -5151134.23808  17872441.36508  17872442.03308
   -989882.25107   -771337.10907  19578480.86107  19578481.40007
  -9504068.01908  -7405766.36908  17806826.18008  17806826.05908
 93 04 16 05 28 00.0000000  0  7 03 20 16 17 23 22 26
 -25800141.89708 -20103995.56008  16176854.64208  16176855.16308
 -18242997.25308 -14215314.66908  16473133.43308  16473134.04408
 -18689691.35008 -14563373.61408  16961187.90208  16961188.25008
 -22052662.11808 -17183883.66608  16123706.37008  16123706.56308
  -6994796.07808  -5450488.35108  17799335.93608  17799336.56308
  -1309138.58207  -1020108.14307  19517728.14607  19517728.87807
  -9752848.32108  -7599621.10008  17759484.83108  17759484.74208
 93 04 16 05 30 00.0000000  0  7 03 20 16 17 23 22 26
 -26012297.60708 -20269311.67408  16136482.76808  16136483.33108
 -17890612.64408 -13940729.30308  16540190.08208  16540190.64108
 -18357487.12108 -14304513.19208  17024404.27308  17024404.57808
 -22216964.08908 -17311911.12908  16092440.65908  16092440.86208
  -7374797.89408  -5746593.59308  17727023.97508  17727024.56508
  -1622857.64407  -1264564.39407  19458029.33607  19458029.81607
  -9997087.71308  -7789937.46208  17713007.61108  17713007.49008
 93 04 16 05 32 00.0000000  0  7 03 20 16 17 23 22 26
 -26222220.84808 -20432888.21408  16096535.66608  16096536.19608
 -17532706.05108 -13661841.09908  16608297.43708  16608298.05308
 -18019725.27008 -14041322.15808  17088678.14408  17088678.46208
 -22377065.83308 -17436665.68708  16061974.32808  16061974.49308
  -7751118.18108  -6039830.10708  17655412.52408  17655413.15208
  -1930943.79507  -1504631.42107  19399402.32107  19399403.17707
 -10236500.61108  -7976492.89708  17667448.75308  17667448.60808
 93 04 16 05 34 00.0000000  0  7 03 20 16 17 23 22 26
 -26429849.09008 -20594676.42908  16057025.31608  16057025.82908
 -17169516.80608 -13378836.55008  16677410.10208  16677410.68608
 -17676735.50108 -13774057.42308  17153947.06408  17153947.26108
 -22533320.09908 -17558422.21008  16032240.10108  16032240.22508
  -8123091.03608  -6329679.02708  17584628.43608  17584629.01308
  -2233302.03407  -1740235.13407  19341865.38507  19341865.97707
 -10470931.88808  -8159166.56108  17622837.90208  17622837.85508
 93 04 16 05 36 00.0000000  0  7 03 20 16 17 23 22 26
 -26635113.11508 -20754622.40608  16017964.86508  16017965.40308
 -16801283.98308 -13091901.94208  16747482.53108  16747483.14708
 -17328690.25708 -13502853.36108  17220177.88608  17220178.14108
 -22685780.73908 -17677222.66808  16003227.75208  16003227.90808
  -8490769.22808  -6616181.45608  17514661.53508  17514662.11208
  -2529832.93708  -1971298.07707  19285437.56108  19285438.00007
 -10699960.97308  -8337630.71308  17579255.08208  17579254.97008
 93 04 16 05 38 00.0000000  0  7 03 20 16 17 23 22 26
 -26837915.44208 -20912650.18108  15979372.84208  15979373.37208
 -16428220.37808 -12801203.08508  16818474.21508  16818474.84908
 -16975570.15908 -13227694.87308  17287374.39908  17287374.73308
 -22834836.41408 -17793369.90208  15974863.36708  15974863.51408
  -8854226.14608  -6899394.57908  17445497.97008  17445498.50908
  -2820414.48208  -2197725.18607  19230141.61008  19230142.02007
 -10924205.82508  -8512366.90408  17536582.57108  17536582.46308
 93 04 16 05 40 00.0000000  0  7 03 20 16 17 23 22 26
 -27038155.27308 -21068681.19808  15941268.46608  15941268.95408
 -16050540.01308 -12506906.75908  16890344.47708  16890345.10508
 -16618115.91308 -12949159.12508  17355395.65108  17355395.93008
 -22979980.66708 -17906469.28008  15947243.34908  15947243.45108
  -9213139.93608  -7179067.60208  17377198.86008  17377199.41508
  -3104926.74008  -2419422.97907  19176000.76908  19176001.09907
 -11142936.04308  -8682805.98208  17494959.61408  17494959.51608
 93 04 16 05 42 00.0000000  0  7 03 20 16 17 23 22 26
 -27235735.97708 -21222640.16808  15903670.10408  15903670.61008
 -15668465.59408 -12209186.48208  16963050.84308  16963051.49808
 -16256274.64808 -12667204.91108  17424251.69508  17424252.11108
 -23121528.89208 -18016766.55808  15920307.58008  15920307.70908
  -9567711.09808  -7455356.76308  17309726.15408  17309726.73408
  -3383258.89608  -2636305.11107  19123035.89308  19123036.19607
 -11356019.44308  -8848844.93708  17454411.14408  17454410.98708
 93 04 16 05 44 00.0000000  0  7 03 20 16 17 23 22 26
 -27430547.39708 -21374441.25908  15866598.70208  15866599.21908
 -15282207.67808 -11908206.34108  17036553.32408  17036553.97908
 -15889729.78208 -12381585.55208  17494002.85008  17494003.30408
 -23259251.37408 -18124082.73908  15894099.81908  15894099.92308
  -9917548.05108  -7727956.92308  17243154.38308  17243154.92008
  -3655291.28908  -2848278.35507  19071269.60708  19071270.15407
 -11563649.77108  -9010634.73508  17414900.34908  17414900.22108
 93 04 16 05 46 00.0000000  0  7 03 20 16 17 23 22 26
 -27622472.40108 -21523993.19908  15830076.56308  15830077.07108
 -14891973.03808 -11604127.45008  17110812.53408  17110813.23908
 -15519116.91908 -12092796.31708  17564528.29508  17564528.61308
 -23393370.70908 -18228591.27508  15868577.72908  15868577.82908
 -10262620.83708  -7996844.75708  17177489.19208  17177489.70208
  -3920901.35608  -3055247.21608  19020725.71808  19020726.16508
 -11765139.34308  -9167639.54908  17376558.17008  17376557.92808
 93 04 16 05 48 00.0000000  0  7 03 20 16 17 23 22 26
 -27811424.26508 -21671228.39808  15794120.20808  15794120.70108
 -14498003.06108 -11297137.91208  17185782.58408  17185783.24208
 -15144773.23508 -11801099.93508  17635763.53708  17635763.83608
 -23523952.56108 -18330343.33408  15843728.79308  15843728.90308
 -10602806.23708  -8261924.23408  17112753.94208  17112754.51108
  -4180005.02608  -3257146.08208  18971419.94608  18971420.46408
 -11960862.40808  -9320150.97008  17339313.23108  17339313.07708
 93 04 16 05 50 00.0000000  0  7 03 20 16 17 23 22 26
 -27997300.04708 -21816066.66308  15758749.20608  15758749.70808
 -14100526.53608 -10987415.98908  17261419.86108  17261420.56608
 -14766584.65608 -11506407.52908  17707730.41408  17707730.75508
 -23651220.62208 -18429513.21408  15819510.45908  15819510.53308
 -10938426.40908  -8523446.39808  17048887.58808  17048888.10208
  -4432505.11208  -3453899.34508  18923370.64908  18923371.10108
 -12150343.14208  -9467798.22408  17303256.16008  17303255.96608
 93 04 16 05 52 00.0000000  0  7 03 20 16 17 23 22 26
 -28179975.09208 -21958410.85108  15723987.30008  15723987.81408
 -13699749.77408 -10675122.47208  17337685.21408  17337685.91708
 -14384505.55908 -11208683.55408  17780437.65408  17780437.99608
 -23775080.89808 -18526027.68408  15795940.67408  15795940.69708
 -11268961.53608  -8781006.19808  16985988.77608  16985989.28008
  -4678288.86208  -3645419.06408  18876599.54208  18876599.92708
 -12333290.39108  -9610354.45608  17268442.43808  17268442.11908
 93 04 16 05 54 00.0000000  0  7 03 20 16 17 23 22 26
 -28359337.68508 -22098173.90708  15689855.73208  15689856.22208
 -13295894.98308 -10360430.48008  17414536.28108  17414536.98508
 -13999067.86808 -10908342.48908  17853784.00408  17853784.31308
 -23895533.16208 -18619886.56108  15773019.30608  15773019.38708
 -11594144.19108  -9034395.23208  16924108.55808  16924109.04508
  -4917260.89408  -3831630.97908  18831124.71008  18831124.96408
 -12510259.02208  -9748252.03508  17234766.40908  17234766.13908
 93 04 16 05 56 00.0000000  0  7 03 20 16 17 23 22 26
 -28535263.97408 -22235259.33308  15656378.08908  15656378.57408
 -12889174.63608 -10043505.57408  17491932.63008  17491933.34308
 -13610745.81408 -10605753.88008  17927679.16808  17927679.50708
 -24012650.51808 -18711146.81408  15750732.58408  15750732.62608
 -11914434.39108  -9283971.96508  16863159.35108  16863159.80608
  -5149321.14208  -4012457.04108  18786965.01108  18786965.33108
 -12680385.21508  -9880817.83808  17202392.41408  17202392.14808
 93 04 16 05 58 00.0000000  0  7 03 20 16 17 23 22 26
 -28707644.69308 -22369581.98208  15623575.13308  15623575.63208
 -12479817.97808  -9724526.39808  17569830.60708  17569831.42308
 -13219336.78508 -10300759.84408  18002161.90308  18002162.27408
 -24126394.27408 -18799778.28708  15729087.86308  15729087.86708
 -12229563.87608  -9529527.35808  16803192.11708  16803192.60808
  -5374386.97008  -4187832.92008  18744136.30908  18744136.59608
 -12843763.92708 -10008125.86908  17171302.50508  17171302.18508
 93 04 16 06 00 00.0000000  0  8 03 20 16 17 21 23 22 26
 -28876352.66008 -22501042.74208  15591471.08208  15591471.56908
 -12068036.44608  -9403657.71408  17648190.05808  17648190.83608
 -12824987.18708  -9993474.46708  18077204.17208  18077204.49708
 -24236857.43408 -18885853.44908  15708067.38908  15708067.51908
        -0.64417        -0.67617  20080628.94717  20080631.01517
 -12539131.20508  -9770748.60908  16744283.41608  16744283.89308
  -5592363.61508  -4357684.77608  18702656.64808  18702656.94108
 -13000472.29408 -10130236.22208  17141481.80308  17141481.48308
 93 04 16 06 02 00.0000000  0  8 03 20 16 17 21 23 22 26
 -29041256.09408 -22629538.93108  15560090.99108  15560091.49108
 -11654039.17108  -9081062.46308  17726971.15408  17726971.86308
 -12427917.73308  -9684069.72308  18152763.94608  18152764.28408
 -24344330.85508 -18969598.95508  15687615.88408  15687615.91308
   -396368.80807   -308858.59907  20005202.33207  20005204.53107
 -12843322.72608 -10007780.91608  16686397.66808  16686398.15008
  -5803160.22608  -4521941.81508  18662543.41108  18662543.56908
 -13150165.89308 -10246880.52708  17112996.01408  17112995.64408
 93 04 16 06 04 00.0000000  0  8 03 20 16 17 21 23 22 26
 -29202188.59708 -22754940.87308  15529466.54508  15529467.05908
 -11238001.32108  -8756877.16708  17806140.53308  17806141.33408
 -12028141.11108  -9372555.50308  18228838.87008  18228839.35608
 -24448338.58508 -19050643.91608  15667823.87708  15667823.96608
   -791386.92107   -616664.48807  19930032.71607  19930034.50107
 -13142068.05408 -10240569.43708  16629548.26608  16629548.73308
  -6006652.63608  -4680507.27408  18623820.01508  18623820.29708
 -13292775.93908 -10358005.18508  17085858.14308  17085857.83208
 93 04 16 06 06 00.0000000  0  8 03 20 16 17 21 23 22 26
 -29359046.50408 -22877167.81908  15499617.51008  15499618.00508
 -10820160.53108  -8431286.98408  17885653.02508  17885653.78608
 -11626257.94408  -9059399.83508  18305314.83108  18305315.18708
 -24549281.19708 -19129300.48208  15648615.09008  15648615.11608
  -1185278.41407   -923592.52807  19855077.19207  19855078.93607
 -13435338.11608 -10469091.51908  16573740.81908  16573741.22708
  -6202788.00908  -4833339.99108  18586496.59708  18586496.85308
 -13428140.90908 -10463484.33208  17060099.00608  17060098.64108
 93 04 16 06 08 00.0000000  0  8 03 20 16 17 21 23 22 26
 -29511702.09808 -22996120.22108  15470568.10308  15470568.59608
 -10400732.22408  -8104459.78008  17965467.65208  17965468.47008
 -11222262.05108  -8744597.86408  18382192.78008  18382193.04508
 -24646764.89808 -19205261.78908  15630064.54708  15630064.62508
  -1577645.70707  -1229332.88207  19780411.96307  19780413.63107
 -13723110.19108 -10693329.44808  16518979.60508  16518980.01208
  -6391492.99708  -4980382.81508  18550587.29808  18550587.47908
 -13556028.39708 -10563136.87108  17035762.82508  17035762.50208
 93 04 16 06 10 00.0000000  0  8 03 20 16 17 21 23 22 26
 -29660037.78808 -23111706.46908  15442340.76308  15442341.24708
  -9979940.17508  -7776569.92708  18045541.76408  18045542.54108
 -10816028.76408  -8428052.46408  18459496.35508  18459496.63008
 -24741549.59708 -19279119.99108  15612027.58308  15612027.69608
  -1968500.97307  -1533895.06007  19706034.22007  19706035.94507
 -14005213.52208 -10913150.17508  16465297.07308  16465297.46908
  -6572711.52008  -5121592.02808  18516102.56208  18516102.76308
 -13676736.28408 -10657194.92108  17012792.78308  17012792.38808
 93 04 16 06 12 00.0000000  0  8 03 20 16 17 21 23 22 26
 -29803933.50708 -23223833.00008  15414958.28808  15414958.80308
  -9558006.41208  -7447790.43208  18125833.12808  18125833.94808
 -10408156.11008  -8110229.64208  18537111.96408  18537112.26708
 -24833383.33508 -19350678.73308  15594552.26508  15594552.23508
  -2357872.25707  -1837300.93607  19631939.19307  19631940.80607
 -14281453.69108 -11128402.20008  16412730.27208  16412730.66008
  -6746389.96408  -5256925.87308  18483052.53308  18483052.85108
 -13789719.68808 -10745233.89708  16991292.79108  16991292.42608
 93 04 16 06 14 00.0000000  0  8 03 20 16 17 21 23 22 26
 -29943261.09108 -23332399.94608  15388445.13208  15388445.64008
  -9135144.87708  -7118288.02008  18206301.03108  18206301.83308
  -9998583.11308  -7791081.86808  18615051.17308  18615051.51808
 -24921906.42008 -19419657.74608  15577706.87908  15577706.84508
  -2745418.79407  -2139284.95207  19558191.37807  19558192.86407
 -14551917.61408 -11339153.25908  16361262.69908  16361263.08408
  -6912470.87408  -5386339.56608  18451448.50708  18451448.73608
 -13895087.94208 -10827338.98908  16971241.82608  16971241.45508
 93 04 16 06 16 00.0000000  0  8 03 20 16 17 21 23 22 26
 -30077878.98108 -23437297.00908  15362828.21908  15362828.69708
  -8711556.62708  -6788219.32608  18286907.22608  18286908.12508
  -9587522.07908  -7470774.56508  18693273.35408  18693273.84008
 -25007548.66008 -19486391.94208  15561409.67308  15561409.69208
  -3131173.71307  -2439872.92207  19484784.34907  19484785.78607
 -14816836.03608 -11545583.14308  16310850.33208  16310850.67108
  -7070888.62808  -5509781.96608  18421302.55408  18421302.77408
 -13992822.75408 -10903495.94908  16952643.53008  16952643.16908
 93 04 16 06 18 00.0000000  0  8 03 17 20 16 21 23 22 26
 -30207648.28408 -23538415.95408  15338133.95308  15338134.43308
 -25090211.00308 -19550804.13808  15545679.51008  15545679.51508
  -8287443.03008  -6457741.27608  18367613.45108  18367614.36408
  -9174970.77008  -7149306.00308  18771779.21708  18771779.71708
  -3515162.44608  -2739084.70607  19411713.67208  19411714.96107
 -15075700.75708 -11747295.86408  16261589.98708  16261590.33508
  -7221588.20408  -5627210.20608  18392625.38308  18392625.54608
 -14082767.37108 -10973582.63508  16935527.60608  16935527.22808
 93 04 16 06 20 00.0000000  0  8 03 17 20 16 21 23 22 26
 -30332438.01208 -23635654.71808  15314387.27408  15314387.75308
 -25169961.94708 -19612947.71008  15530503.47208  15530503.45108
  -7863010.97308  -6127015.05208  18448380.24108  18448381.09008
  -8761358.81008  -6827010.95808  18850487.05408  18850487.49308
  -3897271.45608  -3036831.80407  19339000.55608  19339001.84607
 -15328587.06408 -11944350.08308  16213467.30208  16213467.61708
  -7364525.26808  -5738589.71708  18365425.48208  18365425.58008
 -14164857.99608 -11037549.32208  16919906.25108  16919905.83008
 93 04 16 06 22 00.0000000  0  8 03 20 16 17 21 23 22 26
 -30452134.01608 -23728924.35208  15291609.88108  15291610.39808
  -7438484.84508  -5796215.52308  18529164.85208  18529165.77108
  -8346736.64308  -6503928.70208  18929386.92608  18929387.32308
 -25246978.56708 -19672960.64008  15515847.67308  15515847.66508
  -4277280.77308  -3332942.82008  19266687.03008  19266688.44708
 -15575854.08008 -12137025.63608  16166413.93008  16166414.24008
  -7499677.65608  -5843903.24108  18339706.64908  18339706.87908
 -14238584.87608 -11094998.80608  16905876.49908  16905876.08308
 93 04 16 06 24 00.0000000  0  8 03 17 20 16 21 23 22 26
 -30566585.62508 -23818107.44208  15269830.48708  15269830.99108
 -25321119.91408 -19730733.10208  15501738.95608  15501739.04908
  -7014050.68008  -5465487.67208  18609932.10208  18609932.99008
  -7931395.74308  -6180286.38707  19008423.64308  19008424.13407
  -4655191.74008  -3627418.73708  19194773.00508  19194774.19608
 -15816999.42408 -12324931.05508  16120525.44508  16120525.74908
  -7626992.60808  -5943109.69308  18315479.44008  18315479.59908
 -14304492.09408 -11146355.05108  16893334.74108  16893334.29408
 93 04 16 06 26 00.0000000  0  8 03 17 20 16 21 23 22 26
 -30675657.33409 -23903098.40208  15249074.85009  15249075.32708
 -25392284.95208 -19786186.36508  15488196.72108  15488196.79508
  -6589907.36208  -5134986.45108  18690643.94208  18690645.00708
  -7515201.70208  -5855979.28307  19087622.70508  19087623.07807
  -5030909.44808  -3920185.65608  19123276.12808  19123277.33508
 -16052090.02408 -12508118.49008  16075789.15908  16075789.44008
  -7746437.69708  -6036183.79208  18292749.87808  18292750.02708
 -14362356.55308 -11191444.21308  16882323.50608  16882323.09508
 93 04 16 06 28 00.0000000  0  8 03 17 20 16 21 23 22 26
 -30779193.74809 -23983776.14608  15229372.52609  15229373.03708
 -25460767.95808 -19839549.73008  15475164.88508  15475164.93708
  -6166231.47708  -4804849.47808  18771266.79508  18771267.91808
  -7098257.97207  -5531088.02607  19166964.45507  19166964.86307
  -5404528.74108  -4211317.47908  19052178.69408  19052179.87108
 -16280755.74808 -12686299.53008  16032275.49608  16032275.76108
  -7857964.57608  -6123087.85308  18271526.99708  18271527.17508
 -14411965.83008 -11230100.76408  16872883.10608  16872882.67608
 93 04 16 06 30 00.0000000  0  8 03 17 20 16 21 23 22 26
 -30877070.42109 -24060043.69708  15210747.22409  15210747.72308
 -25526600.70008 -19890847.96208  15462637.27308  15462637.26908
  -5743229.64108  -4475237.78808  18851761.47308  18851762.49208
  -6681060.96607  -5205999.43207  19246354.39507  19246354.80107
  -5775756.22508  -4500585.53008  18981536.35408  18981537.45108
 -16503464.60008 -12859838.85208  15989895.36508  15989895.62808
  -7961560.18108  -6203811.69108  18251813.37308  18251813.56508
 -14453426.26208 -11262407.56708  16864993.45808  16864993.02508
 93 04 16 06 32 00.0000000  0  8 03 17 20 16 21 23 22 26
 -30969152.57409 -24131796.03408  15193224.58409  15193225.08408
 -25589726.59808 -19940036.96908  15450624.82608  15450624.84608
  -5321093.77908  -4146300.93608  18932091.45708  18932092.47808
  -6263471.71007  -4880605.16807  19325818.92907  19325819.29707
  -6144719.64108  -4788089.36608  18911324.88608  18911325.96008
 -16720344.33108 -13028836.00108  15948624.48708  15948624.76308
  -8057205.96208  -6278340.86808  18233612.61008  18233612.76308
 -14486414.42208 -11288112.59808  16858715.94808  16858715.48608
 93 04 16 06 34 00.0000000  0  8 03 17 20 16 21 23 22 26
 -31055307.78709 -24198929.97608  15176829.81409  15176830.30108
 -25649993.95508 -19986998.53608  15439156.26908  15439156.33208
  -4900015.74508  -3818188.33908  19012220.07008  19012220.95608
  -5845530.12107  -4554936.36707  19405350.55907  19405351.06507
  -6511257.83108  -5073703.41308  18841574.85208  18841576.01908
 -16930955.21308 -13192948.33408  15908546.62408  15908546.85908
  -8144892.82408  -6346668.29408  18216926.33408  18216926.53408
 -14510875.84108 -11307173.41108  16854061.10608  16854060.68008
 93 04 16 06 36 00.0000000  0  8 03 20 16 17 21 23 22 26
 -31135401.78109 -24261340.88908  15161588.43709  15161588.96008
  -4480182.31108  -3491045.55708  19092111.80708  19092112.71808
  -5427972.69607  -4229566.93107  19484809.15407  19484809.45907
 -25707155.75708 -20031540.19408  15428278.85108  15428278.79008
  -6875304.08708  -5357375.69708  18772299.05808  18772300.09208
 -17135196.00508 -13352096.96008  15869680.82008  15869681.03008
  -8224609.46508  -6408785.16408  18201756.77708  18201756.95908
 -14527195.33208 -11319889.86908  16850955.63208  16850955.16708
 93 04 16 06 38 00.0000000  0  8 03 17 20 16 21 23 22 26
 -31209288.98909 -24318915.34308  15147528.16609  15147528.68808
 -25762016.90908 -20074289.14108  15417839.01208  15417839.02508
  -4061766.35508  -3165007.32808  19171733.89508  19171735.14008
  -5010371.53807  -3904163.41707  19564276.03307  19564276.34207
  -7236580.30208  -5638889.54308  18703550.46308  18703551.49608
 -17333306.91908 -13506469.05708  15831981.53708  15831981.75308
  -8296341.38408  -6464680.16808  18188106.62008  18188106.83508
 -14534849.18908 -11325853.88408  16849499.11408  16849498.64208
 93 04 16 06 40 00.0000000  0  7 03 17 20 21 23 22 26
 -31276836.30209 -24371549.61308  15134674.33909  15134674.87408
 -25814063.83608 -20114845.18208  15407934.82508  15407934.82008
  -3644947.92208  -2840213.91007  19251051.88508  19251052.99507
  -7595193.44508  -5918328.25508  18635308.58508  18635309.60508
 -17525338.95808 -13656104.36808  15795439.00708  15795439.22808
  -8360088.66808  -6514353.40208  18175975.95508  18175976.14108
 -14533911.24208 -11325122.99208  16849677.61308  16849677.16808
 93 04 16 06 42 00.0000000  0  7 03 17 20 21 23 22 26
 -31337906.94609 -24419137.13308  15123052.98809  15123053.50908
 -25863470.38808 -20153343.78508  15398533.10908  15398533.08908
  -3229899.46908  -2516799.75108  19330033.13908  19330034.36508
  -7951295.41708  -6195810.19408  18567544.47308  18567545.56008
 -17710992.07108 -13800769.09208  15760110.34708  15760110.53208
  -8415851.78708  -6557805.21708  18165364.60108  18165364.83508
 -14524638.23908 -11317897.24608  16851442.14908  16851441.64108
 93 04 16 06 44 00.0000000  0  8 03 17 20 16 21 23 22 26
 -31392374.75209 -24461579.58708  15112688.10209  15112688.64608
 -25910160.91008 -20189726.00008  15389648.16808  15389648.11808
  -2816801.75808  -2194905.59607  19408643.20008  19408644.48807
        -0.13217         0.01617  19802307.74517  19802308.25617
  -8304585.29208  -6471100.92308  18500315.67308  18500316.50908
 -17890353.90608 -13940531.51908  15725978.91308  15725979.10608
  -8463645.13708  -6595046.82208  18156269.81208  18156270.09708
 -14506726.74708 -11303940.21208  16854850.58308  16854850.05908
 93 04 16 06 46 00.0000000  0  8 03 17 20 16 21 23 22 26
 -31440128.07209 -24498789.97308  15103600.97509  15103601.51108
 -25954029.01408 -20223908.92408  15381300.31508  15381300.33108
  -2405843.40007  -1874678.54108  19486846.07407  19486847.51408
    416285.88507    324378.78507  19881524.18207  19881524.56307
  -8655079.95508  -6744213.55808  18433618.63608  18433619.60208
 -18063415.06208 -14075384.32308  15693046.42908  15693046.58708
  -8503501.72208  -6626103.93308  18148685.42308  18148685.64608
 -14480387.42908 -11283416.04608  16859862.76908  16859862.25008
 93 04 16 06 48 00.0000000  0  7 03 17 21 20 23 22 26
 -31481018.64309 -24530652.77008  15095819.74409  15095820.29208
 -25995480.73308 -20256208.95308  15373412.34208  15373412.30508
  -9002469.69908  -7014906.77808  18367512.52308  18367513.45008
  -1997172.98408  -1556234.30907  19564613.64008  19564614.86607
 -18230209.70708 -14205354.13408  15661306.44408  15661306.60108
  -8535420.65208  -6650975.85608  18142611.42208  18142611.71408
 -14445562.00908 -11256279.33208  16866489.82708  16866489.29208
 93 04 16 06 50 00.0000000  0  7 03 17 21 23 20 22 26
 -31514912.49608 -24557063.58008  15089369.98208  15089370.53708
 -26034380.59908 -20286520.53008  15366009.93708  15366009.89808
  -9346827.77308  -7283237.67108  18301983.29508  18301984.20908
 -18390758.20808 -14330456.82108  15630755.07608  15630755.22808
  -1590949.47707  -1239696.83807  19641915.60307  19641917.08307
  -8559418.05708  -6669675.15608  18138044.91308  18138045.19908
 -14401791.71008 -11222172.58408  16874819.00608  16874818.52008
 93 04 16 06 52 00.0000000  0  7 03 17 21 23 20 22 26
 -31541708.95709 -24577943.96408  15084270.79809  15084271.35508
 -26070489.24908 -20314657.13708  15359138.69008  15359138.71108
  -9688274.29908  -7549299.82808  18237008.12308  18237009.07008
 -18545346.39708 -14450915.11108  15601337.86608  15601337.99008
  -1187357.42307   -925209.88707  19718716.84307  19718718.47207
  -8575547.45208  -6682243.53808  18134975.61008  18134975.90808
 -14349445.37908 -11181383.21808  16884780.10008  16884779.60908
 93 04 16 06 54 00.0000000  0  7 03 17 21 23 22 20 26
 -31561301.52708 -24593210.92308  15080542.48408  15080543.04408
 -26103844.62308 -20340648.33308  15352791.40508  15352791.33708
 -10026568.82008  -7812905.87108  18172632.81708  18172633.71508
 -18693537.75808 -14566388.86208  15573137.95308  15573138.07908
  -8583858.41608  -6688719.63008  18133394.13908  18133394.40708
   -786571.73507   -612909.81607  19794984.28907  19794986.06807
 -14288670.19408 -11134025.91508  16896345.29508  16896344.76308
 93 04 16 06 56 00.0000000  0  7 03 17 21 23 22 20 26
 -31573586.25308 -24602783.46208  15078204.80608  15078205.35408
 -26134560.14008 -20364582.49908  15346946.38808  15346946.39308
 -10361862.73808  -8074173.79008  18108828.42808  18108829.26408
 -18835609.60208 -14677094.16108  15546102.56308  15546102.68808
  -8584405.22508  -6689145.72608  18133290.10008  18133290.31608
   -388762.10307   -302928.89307  19870685.40007  19870687.28407
 -14219353.18608 -11080012.65208  16909535.88808  16909535.38708
 93 04 16 06 58 00.0000000  0  7 03 17 21 23 22 20 26
 -31578415.21008 -24606546.31208  15077285.89408  15077286.45408
 -26162655.07708 -20386474.65708  15341600.10508  15341600.06108
 -10693938.20308  -8332933.83708  18045636.51208  18045637.36208
 -18971500.09408 -14782982.82308  15520243.40508  15520243.51608
  -8577200.09808  -6683531.36008  18134661.11808  18134661.40008
      5950.49507      4638.65407  19945797.18107  19945799.10907
 -14141577.46908 -11019408.18708  16924336.04308  16924335.48808
 93 04 16 07 00 00.0000000  0  7 03 17 21 23 22 20 26
 -31575670.14808 -24604407.33008  15077808.27708  15077808.83408
 -26187864.60908 -20406118.44908  15336802.88508  15336802.89608
 -11022943.49508  -8589301.55608  17983028.88408  17983029.73008
 -19100836.04708 -14883764.05308  15495631.59208  15495631.67908
  -8562287.10908  -6671910.88408  18137499.07008  18137499.35008
    397420.03207    309678.78107  20020292.12207  20020294.53707
 -14054971.96608 -10951923.37008  16940816.57308  16940816.02408
 93 04 16 07 02 00.0000000  0  7 03 17 21 23 22 26 20
 -31565232.32908 -24596273.99108  15079794.55508  15079795.13108
 -26210463.82808 -20423728.23408  15332502.39708  15332502.31908
 -11348160.55208  -8842717.38808  17921142.07508  17921142.91608
 -19223904.07008 -14979661.18708  15472212.52808  15472212.61808
  -8539711.28808  -6654319.36508  18141795.15408  18141795.41708
 -13959915.11808 -10877853.09308  16958905.23708  16958904.68108
    785509.18006    612084.20507  20094144.39806  20094147.15807
 93 04 16 07 04 00.0000000  0  6 03 17 21 23 22 26
 -31546989.33508 -24582058.69608  15083266.09608  15083266.68308
 -26230468.88108 -20439316.58908  15328695.55808  15328695.55308
 -11670026.41308  -9093521.90308  17859892.99008  17859893.76808
 -19340922.47708 -15070844.33108  15449944.63208  15449944.71708
  -8509525.21108  -6630797.80208  18147539.40508  18147539.68308
 -13856423.77908 -10797210.47608  16978599.02308  16978598.46908
 93 04 16 07 06 00.0000000  0  6 03 17 21 23 22 26
 -31520851.98408 -24561691.96108  15088239.90808  15088240.49008
 -26247801.49708 -20452822.53108  15325397.27808  15325397.26408
 -11988744.60008  -9341873.68408  17799242.89108  17799243.69908
 -19451817.28608 -15157255.84508  15428842.04608  15428842.15708
  -8471806.24808  -6601406.45908  18154717.16208  18154717.40708
 -13744407.68208 -10709925.19008  16999914.90708  16999914.36108
 93 04 16 07 08 00.0000000  0  6 03 17 21 23 22 26
 -31486748.40908 -24535117.77408  15094729.61408  15094730.21908
 -26262167.67008 -20464016.95308  15322663.49108  15322663.46608
 -12303916.60408  -9587462.20508  17739267.62708  17739268.41408
 -19556709.66608 -15238990.14008  15408881.66708  15408881.73108
  -8426648.55308  -6566218.70608  18163310.35808  18163310.74808
 -13624373.29108 -10616391.88608  17022756.76408  17022756.19108
 93 04 16 07 10 00.0000000  0  6 03 17 21 23 22 26
 -31444592.02708 -24502268.66808  15102751.72508  15102752.31708
 -26273770.84108 -20473058.38408  15320455.51208  15320455.50608
 -12615365.78408  -9830149.82808  17680000.77908  17680001.55208
 -19655348.49408 -15315851.54008  15390111.29408  15390111.35708
  -8374135.45608  -6525299.46908  18173303.31708  18173303.68108
 -13495681.50908 -10516112.56208  17047245.95508  17047245.41308
 93 04 16 07 12 00.0000000  0  6 03 17 21 23 22 26
 -31394271.31608 -24463057.74708  15112327.45408  15112328.04708
 -26282801.00008 -20480094.87308  15318737.13008  15318737.10308
 -12923378.44908 -10070159.65008  17621387.87308  17621388.64608
 -19747802.62408 -15387893.69508  15372517.85908  15372517.89808
  -8314321.72008  -6478691.42708  18184685.57008  18184685.92808
 -13358597.91408 -10409294.16308  17073332.07708  17073331.52708
 93 04 16 07 14 00.0000000  0  7 03 17 28 21 23 22 26
 -31335663.21208 -24417389.11908  15123480.22408  15123480.82208
 -26288874.28608 -20484827.30708  15317581.40608  15317581.42608
        -0.12117        -0.48517  19417305.38617  19417305.15817
 -13227595.12108 -10307211.54808  17563497.36308  17563498.13308
 -19834187.26008 -15455206.37408  15356079.39808  15356079.46108
  -8247251.82408  -6426429.22708  18197448.58808  18197448.93608
 -13213422.63808 -10296170.56408  17100958.10208  17100957.59908
 93 04 16 07 16 00.0000000  0  7 03 17 28 21 23 22 26
 -31268677.01408 -24365192.10008  15136227.29208  15136227.89008
 -26292206.26008 -20487423.64908  15316947.33608  15316947.32308
   -426363.35707   -332231.48907  19336170.81307  19336170.60907
 -13528171.42408 -10541426.79208  17506299.54608  17506300.27708
 -19914660.04908 -15517912.41608  15340765.91708  15340765.95408
  -8173003.00908  -6368573.04608  18211577.69908  18211578.12308
 -13059830.82608 -10176488.62408  17130185.57008  17130185.07008
 93 04 16 07 18 00.0000000  0  7 03 17 28 21 23 22 26
 -31193250.13908 -24306417.93108  15150580.56408  15150581.18108
 -26292705.55708 -20487812.71308  15316852.32008  15316852.31708
   -851827.94808   -663762.21507  19255207.60008  19255207.51507
 -13825190.69208 -10772870.32808  17449778.63008  17449779.34308
 -19988979.71608 -15575823.81908  15326623.33608  15326623.35108
  -8091681.26908  -6305205.51408  18227052.75208  18227053.19108
 -12898207.16808 -10050548.10808  17160941.51708  17160941.00908
 93 04 16 07 20 00.0000000  0  7 03 28 17 21 23 22 26
 -31109339.87208 -24241033.33508  15166548.18908  15166548.79308
  -1276020.49208   -994301.72807  19174486.21408  19174486.04307
 -26290356.55108 -20485982.31908  15317299.30808  15317299.30908
 -14118151.17908 -11001151.17708  17394030.05708  17394030.75908
 -20057370.27008 -15629115.13208  15313609.02308  15313609.02908
  -8003410.87608  -6236423.44008  18243850.12708  18243850.46308
 -12728521.99908  -9918325.89008  17193231.52408  17193230.98808
 93 04 16 07 22 00.0000000  0  7 03 28 17 21 23 22 26
 -31016891.35408 -24168995.56108  15184140.58508  15184141.18808
  -1698898.04708  -1323816.66108  19094015.27208  19094015.27908
 -26284717.11808 -20481587.95808  15318372.49408  15318372.47408
 -14407352.91208 -11226503.12608  17338996.78008  17338997.48708
 -20120112.39808 -15678005.07708  15301669.58408  15301669.57408
  -7908301.43408  -6162312.22908  18261948.89208  18261949.30308
 -12550919.12708  -9779934.04208  17227028.21908  17227027.65508
 93 04 16 07 24 00.0000000  0  7 03 28 17 21 23 22 26
 -30915858.17508 -24090268.44308  15203366.58908  15203367.19308
  -2120559.11708  -1652383.64008  19013775.63908  19013775.47408
 -26276260.06808 -20474998.04908  15319981.80508  15319981.78708
 -14692901.16308 -11449008.20608  17284658.68708  17284659.39608
 -20176735.28708 -15722126.78508  15290894.58308  15290894.58008
  -7806470.98908  -6082963.89708  18281326.62208  18281327.03608
 -12365515.73908  -9635463.87508  17262309.39508  17262308.87608
 93 04 16 07 26 00.0000000  0  7 03 28 17 21 23 22 26
 -30806180.49808 -24004805.35608  15224237.57308  15224238.19708
  -2540744.15208  -1979800.44608  18933817.01108  18933816.80108
 -26265029.64708 -20466247.07608  15322118.89808  15322118.86008
 -14974594.65008 -11668509.57608  17231054.20308  17231054.85908
 -20227589.81609 -15761753.66508  15281217.24709  15281217.23608
  -7698024.95108  -5998460.55208  18301963.21008  18301963.71608
 -12172107.96308  -9484756.52108  17299113.59808  17299113.06608
 93 04 16 07 28 00.0000000  0  7 03 28 17 21 23 22 26
 -30687818.16008 -23912575.00708  15246761.20608  15246761.84308
  -2958799.97408  -2305558.17108  18854263.45608  18854263.46208
 -26250722.26508 -20455098.46408  15324841.45508  15324841.45808
 -15252185.30608 -11884813.93808  17178230.38908  17178231.05408
 -20272977.29809 -15797120.50808  15272580.28509  15272580.26008
  -7583083.42808  -5908895.79708  18323835.96608  18323836.46308
 -11970791.87308  -9327886.84708  17337422.78608  17337422.26108
 93 04 16 07 30 00.0000000  0  7 03 28 17 21 23 22 26
 -30560724.96808 -23813541.38908  15270946.28308  15270946.93708
  -3375039.75508  -2629900.76408  18775055.64108  18775055.65308
 -26233308.64108 -20441529.40608  15328155.18008  15328155.18608
 -15525921.73208 -12098115.00508  17126140.07308  17126140.75008
 -20312396.22009 -15827836.52808  15265079.12109  15265079.08708
  -7461758.37908  -5814356.88708  18346923.32408  18346923.87308
 -11762208.97808  -9165354.72308  17377114.73608  17377114.25308
 93 04 16 07 32 00.0000000  0  7 03 28 17 21 23 22 26
 -30424880.57308 -23707688.65608  15296796.61908  15296797.29208
  -3789296.58508  -2952698.22308  18696225.25208  18696224.90308
 -26212743.15008 -20425504.35508  15332068.65808  15332068.65408
 -15795663.90208 -12308303.66408  17074809.80108  17074810.48608
 -20346240.37809 -15854208.57608  15258638.77009  15258638.72708
  -7334189.10708  -5714952.33108  18371199.02208  18371199.57308
 -11546383.83208  -8997179.29208  17418184.96308  17418184.45708
 93 04 16 07 34 00.0000000  0  7 03 28 17 21 23 22 26
 -30280267.55408 -23595003.22608  15324315.60108  15324316.28008
  -4201090.35708  -3273576.43408  18617863.54608  18617863.31808
 -26189434.71008 -20407341.93108  15336504.11908  15336504.09608
 -16061610.68008 -12515534.87108  17024201.75608  17024202.42608
 -20374746.92709 -15876421.45008  15253214.17109  15253214.12908
  -7200512.44108  -5610788.79208  18396636.92908  18396637.45708
 -11323111.78008  -8823201.07208  17460672.24808  17460671.78508
 93 04 16 07 36 00.0000000  0  7 03 28 17 21 23 22 26
 -30126837.92508 -23475447.70508  15353512.32108  15353513.00408
  -4610718.52408  -3592767.16508  18539913.64208  18539913.49508
 -26162882.76408 -20386652.11208  15341556.81408  15341556.79808
 -16323337.01508 -12719477.42708  16974396.86108  16974397.54708
 -20397559.44309 -15894197.41808  15248873.08709  15248873.02508
  -7060833.67108  -5501948.28508  18423217.00108  18423217.59808
 -11092511.17508  -8643512.29408  17504554.01608  17504553.56308
 93 04 16 07 38 00.0000000  0  7 03 28 17 21 23 22 26
 -29964599.65908 -23349028.30708  15384385.24908  15384385.95508
  -5017839.19708  -3910003.98608  18462441.18308  18462440.99408
 -26133143.65008 -20363478.79008  15347215.96508  15347215.96408
 -16581095.30108 -12920327.99608  16925347.04508  16925347.67208
 -20414762.96109 -15907602.73808  15245599.34209  15245599.28308
  -6915310.24108  -5388553.48008  18450909.30808  18450909.82608
 -10854692.20008  -8458198.80808  17549809.42908  17549808.98308
 93 04 16 07 40 00.0000000  0  7 03 28 17 21 23 22 26
 -29793551.81908 -23215744.30608  15416934.59308  15416935.30008
  -5422038.10608  -4224964.13708  18385524.70708  18385524.32408
 -26100168.25008 -20337783.68808  15353490.97008  15353490.96808
 -16834770.89508 -13117997.25008  16877074.19208  16877074.79708
 -20426572.80509 -15916805.19708  15243351.98609  15243351.90508
  -6764088.60008  -5270718.50008  18479685.85208  18479686.48508
 -10609826.89708  -8267394.68508  17596405.84008  17596405.40208
 93 04 16 07 42 00.0000000  0  7 03 28 17 21 23 22 26
 -29613687.86208 -23075590.60708  15451161.60108  15451162.31208
  -5823293.16708  -4537630.37208  18309168.29208  18309168.00208
 -26063899.83908 -20309522.60208  15360392.64608  15360392.64408
 -17084428.25008 -13312535.40608  16829565.92908  16829566.57108
 -20433421.03209 -15922141.46108  15242048.79809  15242048.73408
  -6607305.84708  -5148550.18508  18509520.60008  18509521.21508
 -10357917.31308  -8071101.50708  17644342.59408  17644342.16708
 93 04 16 07 44 00.0000000  0  7 03 28 17 21 23 22 26
 -29425016.82508 -22928574.24708  15487064.52408  15487065.24108
  -6221357.37308  -4847810.23108  18233419.34908  18233419.02808
 -26024397.12008 -20278741.27608  15367909.78008  15367909.76508
 -17330246.15608 -13504081.78808  16782788.33208  16782788.92408
 -20435245.06709 -15923562.77008  15241701.67809  15241701.60708
  -6445111.98408  -5022165.43208  18540385.18308  18540385.77808
 -10099242.32108  -7869536.58908  17693566.86908  17693566.42008
 93 04 16 07 46 00.0000000  0  8 03 28 01 17 21 23 22 26
 -29227546.69808 -22774701.45708  15524641.87208  15524642.61208
  -6616266.93008  -5155531.92608  18158270.51608  18158270.19708
         0.21717         0.41917  19799756.00917  19799757.87517
 -25981806.89308 -20245554.09708  15376014.44908  15376014.42608
 -17571872.16908 -13692361.75808  16736808.38708  16736808.98508
 -20431907.66709 -15920962.19108  15242336.78509  15242336.68108
  -6277653.38708  -4891678.30008  18572251.49808  18572252.18608
  -9834237.85608  -7663039.62008  17743995.53108  17743995.09208
 93 04 16 07 48 00.0000000  0  8 03 28 01 17 21 23 22 26
 -29021266.80908 -22613963.92108  15563895.67008  15563896.40208
  -7007724.22308  -5460563.52708  18083778.66908  18083778.33308
   -443149.48707   -345311.07907  19715427.50807  19715429.62607
 -25935525.94508 -20209491.03108  15384821.39908  15384821.40408
 -17809352.86608 -13877411.61508  16691617.30408  16691617.87508
 -20423151.90309 -15914139.50908  15244002.92609  15244002.82108
  -6105051.66608  -4757183.54008  18605096.65508  18605097.25308
  -9562616.23208  -7451386.42408  17795683.45108  17795683.01308
 93 04 16 07 50 00.0000000  0  8 03 28 01 17 21 23 22 26
 -28806199.98408 -22446379.42708  15604821.54108  15604822.28608
  -7395234.67708  -5762519.69008  18010037.74508  18010037.44208
   -887228.97907   -691347.17707  19630921.83207  19630924.02107
 -25885839.91508 -20170774.65308  15394276.35408  15394276.33608
 -18042695.53308 -14059237.03008  16647213.62908  16647214.18808
 -20409404.33009 -15903427.10408  15246619.02609  15246618.94308
  -5927459.84008  -4618800.40208  18638891.29808  18638892.06108
  -9284493.16008  -7234667.16508  17848608.52708  17848608.08808
 93 04 16 07 52 00.0000000  0  8 03 28 01 17 21 23 22 26
 -28582398.35708 -22271988.59408  15647409.59908  15647410.37708
  -7778980.69908  -6061542.52008  17937013.27508  17937012.99608
  -1332120.50107  -1038015.67407  19546261.56307  19546263.91807
 -25832737.77308 -20129396.36908  15404381.35908  15404381.36008
 -18271956.54608 -14237881.94008  16603586.69308  16603587.24808
 -20390685.11309 -15888840.69108  15250181.13909  15250181.06008
  -5745056.48908  -4476668.02708  18673601.61308  18673602.30808
  -9000286.10208  -7013207.13708  17902691.29608  17902690.84008
 93 04 16 07 54 00.0000000  0  8 03 28 01 17 21 23 22 26
 -28349924.32308 -22090840.04708  15691648.00208  15691648.74908
  -8158858.08408  -6357550.83708  17864724.90808  17864724.66408
  -1778024.63507  -1385472.88407  19461408.55907  19461410.46907
 -25776072.65108 -20085241.73808  15415164.38108  15415164.37808
 -18497299.09208 -14413473.49808  16560705.41308  16560705.95908
 -20367380.19709 -15870681.00108  15254615.89009  15254615.80508
  -5558026.90508  -4330930.81008  18709192.23108  18709192.94808
  -8710035.73208  -6787038.03608  17957924.17008  17957923.73708
 93 04 16 07 56 00.0000000  0  8 03 28 01 17 21 23 22 26
 -28108846.82708 -21902987.50808  15737523.53808  15737524.32908
  -8534420.53608  -6650196.85308  17793257.76408  17793257.50608
  -2224267.51708  -1733193.92807  19376491.06608  19376492.54407
 -25716217.84408 -20038601.64008  15426554.36908  15426554.39008
 -18718460.70408 -14585807.18708  16518619.73108  16518620.28408
 -20339478.58809 -15848939.47608  15259925.43509  15259925.32708
  -5366557.90208  -4181734.30708  18745627.62008  18745628.40108
  -8413906.54808  -6556288.04208  18014275.68308  18014275.22308
 93 04 16 07 58 00.0000000  0  8 03 28 01 17 21 23 22 26
 -27859207.98308 -21708463.78808  15785028.28108  15785029.09108
  -8905558.82008  -6939395.48008  17722632.59808  17722632.22808
  -2671133.45008  -2081400.42807  19291454.36408  19291456.12207
 -25652692.05708 -19989101.04108  15438642.95008  15438642.95008
 -18935327.14708 -14754793.98708  16477351.42008  16477351.91508
 -20306644.91609 -15823354.78608  15266173.50109  15266173.39108
  -5170804.39408  -4029199.23508  18782878.34808  18782879.21408
  -8111784.22408  -6320868.06508  18071767.67808  18071767.28108
 93 04 16 08 00 00.0000000  0  8 03 28 01 17 21 23 22 26
 -27601073.29808 -21507319.93408  15834149.72408  15834150.53408
  -9272232.40908  -7225115.10408  17652856.68408  17652856.40208
  -3118215.12108  -2429775.11307  19206377.27208  19206378.62807
 -25585498.32008 -19936742.30308  15451429.49708  15451429.50208
 -19148218.86308 -14920683.59808  16436839.44308  16436839.96108
 -20269086.23109 -15794088.26508  15273320.59809  15273320.50908
  -4970942.49508  -3873462.80308  18820910.91408  18820911.79808
  -7804197.60208  -6081190.19208  18130299.41608  18130298.91608
 93 04 16 08 02 00.0000000  0  8 03 28 01 17 21 23 22 26
 -27334503.74108 -21299603.44808  15884876.27808  15884877.07208
  -9634437.43208  -7507352.74008  17583931.38708  17583930.99208
  -3565101.23908  -2777997.49707  19121337.31208  19121338.53207
 -25514872.05308 -19881708.86908  15464869.26808  15464869.28108
 -19357140.50308 -15083479.63508  16397082.94708  16397083.45608
 -20227098.55009 -15761370.57608  15281310.62309  15281310.47808
  -4767139.09108  -3714655.06708  18859693.49608  18859694.36808
  -7490992.21008  -5837134.06708  18189900.47408  18189899.95208
 93 04 16 08 04 00.0000000  0  8 03 28 01 17 21 23 22 26
 -27059557.68408 -21085359.82108  15937196.81508  15937197.63408
  -9991602.14208  -7785662.86808  17515965.15708  17515964.80008
  -4012399.89108  -3126541.44107  19036218.72308  19036219.86007
 -25440630.94708 -19823858.67008  15478996.88508  15478996.87308
 -19561983.48108 -15243097.50408  16358102.58708  16358103.09208
 -20180862.63809 -15725342.58608  15290108.99509  15290108.90808
  -4559553.67108  -3552900.30108  18899195.72708  18899196.60608
  -7172330.44208  -5588826.21208  18250539.76308  18250539.37108
 93 04 16 08 06 00.0000000  0  8 03 28 01 17 21 23 22 26
 -26776334.11008 -20864666.18108  15991092.49608  15991093.35408
 -10343595.54108  -8059943.41508  17448983.12508  17448982.66108
  -4459592.61008  -3475002.88508  18951120.48708  18951121.54608
 -25362736.34508 -19763161.59708  15493819.76808  15493819.80808
 -19762835.74908 -15399605.73008  16319881.64908  16319882.14508
 -20130378.58609 -15686004.35908  15299715.79209  15299715.65508
  -4348379.61608  -3388349.20908  18939380.94608  18939381.88308
  -6848665.73808  -5336619.97208  18312131.13908  18312130.65808
 93 04 16 08 08 00.0000000  0  8 03 28 01 17 21 23 22 26
 -26484896.45908 -20637571.95708  16046551.28108  16046552.11508
 -10690525.28808  -8330278.24708  17382964.47608  17382964.15408
  -4906186.91708  -3822998.12808  18866136.23808  18866137.29108
 -25280801.93008 -19699316.61208  15509411.34808  15509411.38408
 -19959672.04308 -15552984.62008  16282424.91308  16282425.39508
 -20075794.13309 -15643471.00708  15310102.88709  15310102.71908
  -4133773.68608  -3221123.95208  18980219.17008  18980220.19508
  -6520158.43608  -5080640.28108  18374644.09908  18374643.64608
 93 04 16 08 10 00.0000000  0  8 03 28 01 17 21 23 22 26
 -26185334.86008 -20404147.39008  16103555.99608  16103556.87708
 -11031751.90208  -8596169.10008  17318031.25508  17318030.79708
  -5352275.52608  -4170599.32608  18781248.11508  18781249.16008
 -25195198.02908 -19632612.29108  15525701.21408  15525701.25508
 -20152401.33608 -15703163.24908  16245749.71908  16245750.19208
 -20016847.15109 -15597538.29208  15321320.14309  15321320.04208
  -3915913.77808  -3051363.12408  19021676.64308  19021677.66508
  -6186669.50808  -4820778.80108  18438104.91808  18438104.50208
 93 04 16 08 12 00.0000000  0  8 03 28 01 17 21 23 22 26
 -25877751.42908 -20164472.04308  16162087.21708  16162088.09308
 -11367306.08108  -8857639.87308  17254177.39108  17254176.98108
  -5797708.36608  -4517689.52508  18696484.85908  18696485.79208
 -25105963.86908 -19563079.19508  15542681.92608  15542681.94308
 -20340918.22708 -15850059.48108  16209876.14308  16209876.58408
 -19953886.88109 -15548478.33708  15333301.05509  15333300.88808
  -3694985.13908  -2879211.04508  19063718.09708  19063719.09208
  -5848499.10408  -4557269.40908  18502456.62508  18502456.17908
 93 04 16 08 14 00.0000000  0  8 03 28 01 17 21 23 22 26
 -25562232.54008 -19918613.22708  16222128.51308  16222129.39608
 -11696950.75808  -9114505.82808  17191448.09408  17191447.71308
  -6242305.33808  -4864128.44408  18611880.49008  18611881.44508
 -25012880.57008 -19490546.76608  15560395.13208  15560395.14908
 -20525588.26708 -15993958.17508  16174734.57508  16174734.99808
 -19886765.39809 -15496175.87708  15346073.80009  15346073.69708
  -3471151.49608  -2704795.37208  19106312.24108  19106313.33408
  -5505825.07008  -4290250.70208  18567665.31908  18567664.84608
 93 04 16 08 16 00.0000000  0  8 03 28 01 17 21 23 22 26
 -25238895.82608 -19666662.59708  16283657.48908  16283658.41908
 -12020939.40008  -9366964.50908  17129795.05108  17129794.65208
  -6685816.22708  -5209721.11108  18527483.10108  18527483.87208
 -24915944.55608 -19415012.22308  15578841.46708  15578841.50208
 -20706365.23208 -16134823.29508  16140333.82408  16140334.21108
 -19815870.60509 -15440933.17708  15359564.70209  15359564.56608
  -3244604.39208  -2528265.33108  19149422.93408  19149424.16808
  -5158751.51808  -4019803.80208  18633711.35708  18633710.86208
 93 04 16 08 18 00.0000000  0  8 03 28 01 17 21 23 22 26
 -24907819.37208 -19408681.00508  16346659.27408  16346660.20008
 -12338809.05108  -9614655.14008  17069306.50708  17069306.10908
  -7128119.61908  -5554372.91408  18443315.37408  18443316.28808
 -24814622.25908 -19336059.80008  15598122.44408  15598122.51608
 -20883102.65708 -16272540.72608  16106701.77408  16106702.18408
 -19741277.73309 -15382808.85808  15373759.14609  15373759.00408
  -3015490.46508  -2349735.15408  19193021.95408  19193023.10508
  -4807436.44908  -3746051.80308  18700564.32608  18700563.90608
 93 04 16 08 20 00.0000000  0  8 03 28 01 17 21 23 22 26
 -24569147.24608 -19144780.69808  16411106.46708  16411107.41308
 -12650111.94208  -9857228.81908  17010067.50208  17010067.14108
  -7569030.16708  -5897939.43108  18359412.88408  18359413.56308
 -24709540.58708 -19254177.99708  15618118.83608  15618118.89408
 -21055687.90008 -16407022.69008  16073859.84508  16073860.23508
 -19662881.50509 -15321720.88008  15388677.47909  15388677.35508
  -2784018.42508  -2169367.49608  19237069.73708  19237070.97608
  -4452091.03808  -3469159.29408  18768184.30808  18768184.01808
 93 04 16 08 22 00.0000000  0  8 03 28 01 17 21 23 22 26
 -24222990.93308 -18875048.56408  16476977.89708  16476978.83008
 -12954791.94108 -10094641.79508  16952088.87508  16952088.44708
  -8008388.16008  -6240296.19708  18275805.70508  18275806.46708
 -24600587.05208 -19169279.15908  15638852.04008  15638852.08508
 -21224410.43508 -16538494.75408  16041752.97108  16041753.36808
 -19580794.04309 -15257756.62008  15404298.14709  15404298.12108
  -2550360.83608  -1987296.83908  19281533.50908  19281534.77708
  -4092980.73408  -3189333.10008  18836520.72708  18836520.20308
 93 04 16 08 24 00.0000000  0  8 03 28 01 17 21 23 22 26
 -23869470.34308 -18599578.02808  16544250.64208  16544251.61508
 -13252965.16308 -10326984.54008  16895348.34308  16895347.92508
  -8446026.21108  -6581312.75708  18192525.96708  18192526.55908
 -24487330.00108 -19081026.93808  15660404.14908  15660404.20308
 -21389548.47008 -16667173.70308  16010328.24108  16010328.58708
 -19495394.87809 -15191211.81208  15420549.16809  15420549.03808
  -2314691.06608  -1803658.23708  19326380.00808  19326381.42308
  -3730176.08808  -2906628.17408  18905560.18408  18905559.66908
 93 04 16 08 26 00.0000000  0  8 03 28 01 17 21 23 22 26
 -23508707.29508 -18318464.02108  16612901.62608  16612902.58008
 -13544445.49308 -10554112.05108  16839881.34608  16839880.91908
  -8881968.46008  -6921007.94408  18109568.77008  18109569.55208
 -24369837.74708 -18989474.55408  15682762.18108  15682762.26208
 -21550535.83408 -16792618.35808  15979693.30808  15979693.68608
 -19406528.04709 -15121964.92408  15437460.01809  15437459.83108
  -2077182.53308  -1618586.81908  19371576.57908  19371577.94508
  -3363384.34308  -2620816.44108  18975358.31108  18975357.93508
 93 04 16 08 28 00.0000000  0  8 03 28 01 17 21 23 22 26
 -23140839.13608 -18031813.55808  16682904.65308  16682905.62408
 -13828732.81508 -10775634.62708  16785783.44208  16785783.02608
  -9315774.57308  -7259038.63908  18027018.21008  18027018.79808
 -24248360.32108 -18894816.84108  15705878.55908  15705878.62508
 -21707492.35108 -16914922.09708  15949825.49308  15949825.82208
 -19313989.70309 -15049857.11508  15455069.44609  15455069.31108
  -1838018.25808  -1432225.20908  19417088.16008  19417089.46008
  -2993373.49808  -2332496.31008  19045769.06708  19045768.48108
 93 04 16 08 30 00.0000000  0  8 03 28 01 17 21 23 22 26
 -22766011.55608 -17739740.17908  16754232.00208  16754232.98908
 -14105900.38708 -10991609.35008  16733040.22008  16733039.81308
  -9747377.01608  -7595352.15308  17944886.93308  17944887.59308
 -24122970.46308 -18797110.48008  15729739.48208  15729739.56208
 -21860761.45708 -17034352.53508  15920659.32408  15920659.67508
 -19218336.61109 -14975322.23408  15473271.58309  15473271.50208
  -1597387.02708  -1244720.50807  19462878.81108  19462880.25107
  -2620366.00608  -2041841.10208  19116749.93708  19116749.58308
 93 04 16 08 32 00.0000000  0  8 03 28 01 17 21 23 22 26
 -22384365.54608 -17442353.73408  16826856.86908  16826857.87408
 -14375734.94108 -11201870.03808  16681692.43408  16681692.00308
 -10176707.32408  -7929895.18808  17863188.06008  17863188.71408
 -23993209.53208 -18695998.08408  15754432.18508  15754432.26608
 -22010103.28608 -17150722.75308  15892240.49008  15892240.82308
 -19119581.88409 -14898370.49508  15492063.86609  15492063.82008
  -1355465.66608  -1056210.51208  19508915.08008  19508916.58008
  -2243952.66108  -1748531.99208  19188378.87208  19188378.61708
 93 04 16 08 34 00.0000000  0  8 03 28 01 17 21 23 22 26
 -21996042.00608 -17139764.01508  16900752.39508  16900753.46108
 -14638085.22908 -11406298.83008  16631768.72808  16631768.32208
 -10603385.44508  -8262371.57008  17781993.83408  17781994.50708
 -23859153.95608 -18591539.21208  15779942.12608  15779942.23008
 -22155680.63608 -17264159.61608  15864538.01308  15864538.36108
 -19017516.38909 -14818838.93708  15511486.35709  15511486.26408
  -1112428.36608   -866830.93408  19555163.68208  19555165.16108
  -1864665.80808  -1452983.77707  19260554.91508  19260554.52207
 93 04 16 08 36 00.0000000  0  8 03 28 01 17 21 23 22 26
 -21601182.87908 -16832081.64008  16975891.65208  16975892.64108
 -14892753.43208 -11604741.57408  16583306.95008  16583306.52108
 -11027223.62708  -8592635.01908  17701340.05508  17701340.66908
 -23720834.66308 -18483757.96808  15806263.45808  15806263.58208
 -22297310.17908 -17374520.26408  15837586.77708  15837587.08008
 -18912403.56209 -14736932.83508  15531488.65309  15531488.53208
   -868446.84607   -676715.60307  19601591.82307  19601593.37607
  -1482591.26708  -1155263.32507  19333261.35008  19333260.72707
 93 04 16 08 38 00.0000000  0  8 03 28 01 17 21 23 22 26
 -21199942.75308 -16519427.04108  17052245.11708  17052246.17808
 -15139919.58008 -11797338.56008  16536272.75708  16536272.36108
 -11448101.17708  -8920591.50008  17621249.69508  17621250.32408
 -23578209.07508 -18372621.17008  15833404.18108  15833404.31108
 -22435019.12808 -17481825.90408  15811381.62808  15811381.90308
 -18804275.36209 -14652677.09508  15552064.81909  15552064.65008
   -623699.08107   -486003.21607  19648165.92707  19648167.50807
  -1097875.40308   -855484.70607  19406470.41708  19406469.89407
 93 04 16 08 40 00.0000000  0  8 03 28 01 17 21 23 22 26
 -20792492.31408 -16201933.24908  17129780.42708  17129781.47708
 -15378880.94208 -11983542.20608  16490799.92008  16490799.52008
 -11866092.42808  -9246298.91408  17541708.56308  17541709.09108
 -23431119.47008 -18258005.91708  15861394.42408  15861394.55408
 -22569469.13508 -17586592.10908  15785796.62508  15785796.88808
 -18693138.12309 -14566076.64908  15573213.51209  15573213.36708
   -378375.12307   -294841.81507  19694849.66707  19694851.26307
   -710717.43007   -553803.13607  19480143.97707  19480143.39607
 93 04 16 08 42 00.0000000  0  8 03 28 01 17 21 23 22 26
 -20378974.26508 -15879711.44808  17208470.34408  17208471.35908
 -15609612.46008 -12163332.98508  16446893.29908  16446892.85508
 -12281051.85708  -9569643.87008  17462744.44408  17462744.92308
 -23279533.27508 -18139886.83108  15890240.35008  15890240.46208
 -22700021.78808 -17688321.41408  15760953.27208  15760953.54708
 -18579142.09009 -14477248.56808  15594906.23709  15594906.13108
   -132636.24807   -103357.15207  19741612.29007  19741613.96407
   -321224.76207   -250302.30807  19554261.91407  19554261.28107
 93 04 16 08 44 00.0000000  0  8 03 28 01 17 21 23 22 26
 -19959560.21408 -15552895.35108  17288282.22908  17288283.28008
 -15832368.84308 -12336909.38008  16404504.08508  16404503.68308
 -12692427.06108  -9890195.92408  17384462.21408  17384462.75608
 -23123599.14908 -18018379.74808  15919913.65108  15919913.76308
 -22826865.64908 -17787160.75608  15736815.65108  15736815.91008
 -18462419.50609 -14386295.90408  15617117.78209  15617117.65508
    113336.59508     88309.81407  19788419.51808  19788421.25707
     70184.60007     54692.02707  19628744.64007  19628744.17907
 93 04 16 08 46 00.0000000  0  8 03 28 01 17 21 23 22 26
 -19534412.49908 -15221611.46908  17369185.14008  17369186.25808
 -16046703.79208 -12503923.63008  16363717.52308  16363717.09308
 -13099990.63308 -10207777.87908  17306905.43808  17306905.98208
 -22963489.26908 -17893618.83108  15950381.55108  15950381.69308
 -22949943.44508 -17883065.50408  15713394.68308  15713394.96308
 -18343333.62409 -14293501.70808  15639779.08609  15639778.93808
    359371.30608    280025.00207  19835238.50008  19835240.22307
    463759.92707    361374.13607  19703639.55307  19703638.99507
 93 04 16 08 48 00.0000000  0  8 03 28 01 17 21 23 22 26
 -19103706.90208 -14885996.75908  17451145.76808  17451146.80208
 -16252631.86808 -12664387.07008  16324530.64308  16324530.26808
 -13503998.81208 -10522589.40108  17230025.15708  17230025.73208
 -22798650.35608 -17765172.95408  15981749.38908  15981749.53408
 -23069504.14408 -17976229.65608  15690643.05208  15690643.27308
 -18221829.14809 -14198822.89408  15662900.57809  15662900.48008
    605288.30107    471648.42707  19882035.07507  19882036.87507
    859275.79707    669568.38207  19778903.60207  19778902.88107
 93 04 16 08 50 00.0000000  0  7 03 28 01 17 21 23 26
 -18667624.73408 -14546192.51408  17534129.48208  17534130.53708
 -16449898.84508 -12818101.60208  16286992.03108  16286991.62008
 -13904531.56008 -10834692.79408  17153806.31908  17153806.82708
 -22629221.42408 -17633150.44208  16013990.67108  16013990.79908
 -23185712.85508 -18066781.87408  15668529.24608  15668529.48808
 -18097421.82208 -14101882.11308  15686574.48208  15686574.38208
   1256356.78607    978982.19407  19854465.45607  19854464.80707
 93 04 16 08 52 00.0000000  0  8 03 28 01 17 21 23 11 26
 -18226344.47708 -14202337.80308  17618102.28008  17618103.45808
 -16638564.71908 -12965113.97008  16251090.13508  16251089.74208
 -14300821.48008 -11143490.09808  17078394.82908  17078395.36608
 -22455429.96508 -17497728.56008  16047062.08608  16047062.29008
 -23298218.06008 -18154448.23708  15647120.16508  15647120.46008
 -17970570.47508 -14003036.90508  15710713.53308  15710713.39608
        -0.20017        -0.33716  19988545.32817  19988546.49916
   1654911.05207   1289544.05307  19930307.64107  19930307.01607
 93 04 16 08 54 00.0000000  0  8 03 28 01 17 21 23 11 26
 -17780033.78908 -13854563.30008  17703032.51908  17703033.58208
 -16818451.61108 -13105285.57308  16216858.80808  16216858.41708
 -14692741.40608 -11448882.20308  17003814.94708  17003815.48408
 -22277253.59208 -17358889.86208  16080967.94808  16080968.15608
 -23407112.86108 -18239301.30108  15626398.15808  15626398.38908
 -17841253.29508 -13902270.27208  15735321.81508  15735321.68908
   -460020.86807   -358457.94107  19901006.61007  19901007.45307
   2054979.46507   1601285.76107  20006438.27707  20006437.71307
 93 04 16 08 56 00.0000000  0  8 03 28 01 17 21 23 11 26
 -17328863.84708 -13503002.34708  17788887.30208  17788888.41108
 -16989095.35708 -13238254.73408  16184386.34008  16184385.97008
 -15080442.95908 -11750987.27308  16930037.77408  16930038.30008
 -22094227.89408 -17216272.46608  16115796.61908  16115796.81608
 -23512267.20808 -18321239.72908  15606387.94808  15606388.22708
 -17709786.58908 -13799828.67908  15760339.05908  15760339.02308
   -919973.48607   -716862.56506  19813480.31207  19813481.22006
   2456191.44007   1913918.54307  20082786.30507  20082785.90007
 93 04 16 08 58 00.0000000  0  7 03 28 01 17 21 23 26
 -16873020.60008 -13147799.86708  17875631.38508  17875632.45508
 -17150932.02608 -13364361.24208  16153589.77908  16153589.39708
 -15463521.98508 -12049490.36308  16857140.18308  16857140.67508
 -21906582.23508 -17070055.10408  16151504.45308  16151504.63108
 -23614161.78508 -18400638.07508  15586998.02308  15586998.26508
 -17575778.00008 -13695406.40808  15785840.04408  15785839.89808
   2858518.53807   2227420.24606  20159346.55307  20159345.93006
 93 04 16 09 00 00.0000000  0  6 03 28 01 17 21 23
 -16412687.74308 -12789098.99608  17963229.92408  17963231.00408
 -17303466.57108 -13483219.34208  16124563.51208  16124563.13308
 -15841997.00908 -12344405.91808  16785118.71508  16785119.23908
 -21714613.70408 -16920469.27108  16188034.82708  16188035.01008
 -23712743.75308 -18477455.17308  15568238.48508  15568238.69208
 -17439716.65108 -13589384.58008  15811731.62808  15811731.54008
 93 04 16 09 02 00.0000000  0  7 03 28 01 17 21 23 31
 -15948051.96008 -12427045.17708  18051647.15608  18051648.35408
 -17446796.22508 -13594904.79508  16097288.78308  16097288.43908
 -16216004.60808 -12635840.35708  16713947.41408  16713947.89208
 -21517921.21808 -16767202.43108  16225464.22908  16225464.42208
 -23807680.00808 -18551431.45608  15550172.68708  15550172.94008
 -17301613.47408 -13481771.72508  15838011.84708  15838011.80108
        -0.33918         0.47518  18814157.98718  18814157.87218
 93 04 16 09 04 00.0000000  0  8 03 28 01 17 21 23 31 22
 -15479293.30908 -12061778.75108  18140848.96408  18140850.23108
 -17580694.70408 -13699241.28408  16071808.78908  16071808.44508
 -16584827.38008 -12923234.66708  16643762.71408  16643763.18508
 -21316711.43808 -16610415.62408  16263753.21008  16263753.44008
 -23899438.33908 -18622931.43208  15532711.67608  15532711.88808
 -17161191.57808 -13372352.07108  15864733.23408  15864733.09508
   -339589.94308   -264614.76708  18749536.16008  18749536.09008
        -0.09517        -0.43917  20251680.15717  20251682.50517
 93 04 16 09 06 00.0000000  0  7 03 28 01 17 21 23 31
 -15006603.64908 -11693449.18908  18230798.90608  18230800.10408
 -17705412.92808 -13796424.32308  16048075.66908  16048075.30608
 -16948444.52608 -13206572.64608  16574568.65908  16574569.13208
 -21110702.60008 -16449889.29308  16302955.37708  16302955.65808
 -23987905.09408 -18691866.54608  15515877.00308  15515877.20108
 -17018807.00308 -13261403.05308  15891828.14408  15891828.05408
   -673998.60808   -525192.89308  18685900.31308  18685900.07508
 93 04 16 09 08 00.0000000  0  8 03 28 01 17 21 23 31 11
 -14530167.51908 -11322200.30608  18321461.79208  18321462.91708
 -17820835.48208 -13886363.97708  16026111.51808  16026111.19308
 -17306776.30008 -13485792.15608  16506380.29808  16506380.78008
 -20900116.44908 -16285796.23408  16343028.61208  16343028.87008
 -24072829.26808 -18758041.20508  15499716.40808  15499716.65608
 -16874654.16908 -13149076.17008  15919259.47808  15919259.38608
  -1002894.52308   -781475.36708  18623313.46508  18623313.15708
        -0.07117         0.38117  19290477.93517  19290479.17717
 93 04 16 09 10 00.0000000  0  8 03 28 01 17 21 23 31 11
 -14050189.00808 -10948191.13708  18412798.65408  18412799.81208
 -17926697.67708 -13968854.01108  16005966.65108  16005966.29308
 -17659930.65708 -13760977.31708  16439177.27808  16439177.70208
 -20684942.65408 -16118128.37608  16383974.85708  16383975.14608
 -24154536.42908 -18821709.09608  15484168.05008  15484168.21808
 -16728832.06408 -13035448.55808  15947008.53908  15947008.42408
  -1325787.62408  -1033080.30608  18561868.87608  18561868.72008
   -454460.65007   -354124.69907  19203997.04207  19203998.20207
 93 04 16 09 12 00.0000000  0  7 03 28 01 17 21 23 31
 -13566849.40008 -10571562.90108  18504775.18408  18504776.36308
 -18023165.64608 -14044023.86208  15987609.40808  15987609.05408
 -18007652.73308 -14031929.52608  16373007.90408  16373008.34508
 -20465114.62008 -15946833.84008  16425806.81008  16425807.09508
 -24233051.09908 -18882889.32208  15469227.19208  15469227.35708
 -16580737.58408 -12920050.26608  15975189.98508  15975189.86308
  -1642808.73308  -1280109.67808  18501541.64408  18501541.52108
 93 04 16 09 14 00.0000000  0  8 03 28 01 17 21 23 31 11
 -13080354.04408 -10192475.65208  18597352.04708  18597353.37708
 -18109847.21808 -14111567.95208  15971114.48108  15971114.09508
 -18349348.30708 -14298185.75208  16307985.35208  16307985.77608
 -20240624.03808 -15771906.14708  16468525.96708  16468526.24308
 -24308318.95808 -18941539.57708  15454904.13508  15454904.34908
 -16430881.92408 -12803279.62508  16003706.55808  16003706.46508
  -1954264.84708  -1522802.72708  18442273.57508  18442273.36308
        -0.72317        -0.43617  19031948.48917  19031949.50517
 93 04 16 09 16 00.0000000  0  8 03 28 01 17 21 23 31 11
 -12590886.83108  -9811072.66208  18690494.58808  18690495.85608
 -18186755.48108 -14171496.46808  15956479.25508  15956478.89308
 -18685315.60108 -14559978.38308  16244052.83508  16244053.26008
 -20011386.84808 -15593279.79608  16512148.33908  16512148.62808
 -24380179.46008 -18997534.74108  15441229.57108  15441229.72908
 -16279431.99108 -12685266.69408  16032526.48108  16032526.43508
  -2259745.15408  -1760839.31108  18384142.43308  18384142.35908
   -449271.01507   -350081.20107  18946455.11507  18946456.24707
 93 04 16 09 18 00.0000000  0  8 03 28 01 17 21 23 31 11
 -12098662.20208  -9427521.07308  18784162.00808  18784163.11508
 -18254249.40608 -14224089.14108  15943635.58208  15943635.22508
 -19015704.94008 -14817424.57208  16181181.82608  16181182.21208
 -19777573.06808 -15411087.26708  16556641.66508  16556641.93608
 -24448972.94808 -19051140.03608  15428138.57108  15428138.74808
 -16126038.22408 -12565739.08208  16061716.34608  16061716.27808
  -2558893.00408  -1993941.48408  18327216.61708  18327216.42508
   -896433.87808   -698519.78007  18861362.85208  18861363.91607
 93 04 16 09 20 00.0000000  0  8 03 28 01 17 21 23 31 11
 -11603856.20708  -9041957.95307  18878320.34408  18878321.68607
 -18311850.83808 -14268973.38108  15932674.40608  15932674.07008
 -19339953.21408 -15070085.52408  16119479.43508  16119479.79808
 -19539362.22208 -15225468.45608  16601971.68708  16601972.02208
 -24514714.15708 -19102366.92608  15415628.42908  15415628.58408
 -15971192.32208 -12445079.92908  16091182.51808  16091182.43408
  -2851348.04008  -2221828.47808  18271564.08208  18271563.95508
  -1341269.81408  -1045145.09607  18776713.31708  18776714.26207
 93 04 16 09 22 00.0000000  0  8 03 28 01 17 21 23 31 11
 -11106667.77608  -8654538.47208  18972932.27108  18972933.60908
 -18359702.90108 -14306260.71208  15923568.52208  15923568.16908
 -19657918.15008 -15317850.36008  16058972.62708  16058973.01308
 -19296522.10108 -15036242.41908  16648182.60408  16648182.92908
 -24577485.75008 -19151279.82908  15403683.39608  15403683.54208
 -15814792.10308 -12323209.62608  16120944.50708  16120944.48408
  -3137627.12508  -2444903.03708  18217087.14208  18217086.85408
  -1783578.69608  -1389801.30608  18692544.73508  18692545.84808
 93 04 16 09 24 00.0000000  0  8 03 28 01 17 21 23 31 11
 -10607295.03708  -8265416.86307  19067959.78808  19067961.05607
 -18397883.10008 -14336011.52608  15916303.09908  15916302.72308
 -19969511.83608 -15560650.57408  15999678.29608  15999678.66208
 -19048779.30008 -14843196.11508  16695326.56808  16695326.87508
 -24637182.37208 -19197796.64608  15392323.45208  15392323.59608
 -15656767.66808 -12200073.69708  16151015.59108  16151015.52708
  -3417146.90208  -2662710.62008  18163896.17908  18163895.93108
  -2223159.48908  -1732331.77508  18608895.27908  18608896.14708
 93 04 16 09 26 00.0000000  0  8 03 28 01 17 21 23 31 11
 -10105938.93207  -7874749.81507  19163364.56807  19163365.95907
 -18426206.98308 -14358082.07808  15910913.15608  15910912.76408
 -20274738.99808 -15798489.85308  15941595.46108  15941595.77608
 -18796612.68308 -14646702.67008  16743312.27008  16743312.64508
 -24693444.19708 -19241637.00108  15381617.18008  15381617.32508
 -15497506.62708 -12075974.17508  16181321.95408  16181321.84308
  -3689847.99608  -2875204.94508  18112002.86808  18112002.71508
  -2659811.54608  -2072580.09608  18525803.04408  18525804.01808
 93 04 16 09 28 00.0000000  0  8 03 28 01 17 21 23 31 11
  -9602788.08808  -7482684.27708  19259111.19208  19259112.44208
 -18444884.09308 -14372635.66408  15907359.05208  15907358.69008
 -20573725.78508 -16031466.50508  15884700.13708  15884700.42608
 -18540049.72708 -14446783.51308  16792134.60208  16792134.97808
 -24746579.03208 -19283040.73808  15371505.94508  15371506.04708
 -15336732.83608 -11950695.89508  16211916.18408  16211916.08808
  -3955662.11308  -3082332.78308  18061420.02608  18061419.83908
  -3093320.01708  -2410378.82308  18443309.13108  18443310.16908
 93 04 16 09 30 00.0000000  0  8 03 28 01 17 21 23 31 11
  -9098053.35708  -7089384.53008  19355159.03008  19355160.43608
 -18453939.17908 -14379691.57208  15905635.90708  15905635.54508
 -20865881.52708 -16259120.26308  15829104.63508  15829104.89308
 -18278771.35208 -14243189.98808  16841854.24508  16841854.53408
 -24797119.14508 -19322422.61708  15361888.42708  15361888.54008
 -15174270.98108 -11824102.23008  16242831.59708  16242831.51908
  -4214366.78108  -3283920.79408  18012190.20108  18012189.83208
  -3523491.66308  -2745577.48908  18361450.13708  18361451.09708
 93 04 16 09 32 00.0000000  0  8 03 28 01 17 21 23 31 11
  -8591905.66608  -6694983.77107  19451475.80308  19451477.14307
 -18453235.30608 -14379143.09308  15905769.88108  15905769.53408
 -21151441.15208 -16481634.19108  15774764.42708  15774764.70208
 -18013101.21008 -14036174.31208  16892409.56308  16892409.90108
 -24844528.68808 -19359365.08408  15352866.70708  15352866.81308
 -15010673.83008 -11696623.93008  16273963.11708  16273963.04108
  -4466028.77208  -3480020.98508  17964300.38408  17964300.22608
  -3950091.51808  -3077992.92608  18280270.85708  18280271.86508
 93 04 16 09 34 00.0000000  0  8 03 28 01 17 21 23 31 11
  -8084544.82707  -6299637.68207  19548023.23907  19548024.66607
 -18442661.33508 -14370903.62308  15907782.03008  15907781.62908
 -21430141.97508 -16698803.59108  15721729.39408  15721729.60308
 -17742646.37708 -13825430.30208  16943875.41708  16943875.78708
 -24889149.73808 -19394134.70108  15344375.59508  15344375.62108
 -14845670.26108 -11568049.71008  16305362.24408  16305362.17808
  -4710354.42608  -3670404.58608  17917806.76308  17917806.49508
  -4372914.78308  -3407465.52508  18199810.29008  18199811.20208
 93 04 16 09 36 00.0000000  0  8 03 28 01 17 21 23 31 11
  -7576174.27407  -5903504.77607  19644762.75707  19644764.52007
 -18422625.75908 -14355291.47608  15911594.63408  15911594.26408
 -21701927.25208 -16910584.25108  15670010.30508  15670010.49608
 -17467765.01508 -13611237.05108  16996183.61308  16996184.01408
 -24930717.09808 -19426524.81908  15336465.51208  15336465.52708
 -14679323.77808 -11438429.06108  16337016.96708  16337016.90008
  -4947269.37708  -3855013.58908  17872723.33508  17872723.08408
  -4791758.05808  -3733836.86908  18120106.94308  18120107.87808
 93 04 16 09 38 00.0000000  0  8 28 03 01 17 21 23 31 11
 -18393154.87208 -14332327.13908  15917202.75208  15917202.35908
  -7066972.95407  -5506724.62007  19741660.95707  19741662.08107
 -21966840.90708 -17117010.40608  15619598.87108  15619599.06108
 -17188568.43508 -13393681.29508  17049313.04508  17049313.35108
 -24969373.65708 -19456646.78108  15329109.41008  15329109.42708
 -14511542.53808 -11307690.42508  16368944.58008  16368944.51308
  -5176744.09808  -4033825.03208  17829055.64008  17829055.38708
  -5206393.99008  -4056929.75208  18041204.35508  18041205.29508
 93 04 16 09 40 00.0000000  0  8 28 03 01 17 21 23 31 11
 -18353759.22208 -14301629.22208  15924699.47308  15924699.11308
  -6557127.12507  -5109442.23707  19838681.62007  19838682.77907
 -22224564.66008 -17317834.04308  15570555.59308  15570555.74808
 -16904886.40408 -13172630.37008  17103295.90108  17103296.20608
 -25005254.75208 -19484606.04408  15322281.42408  15322281.47808
 -14342539.68408 -11175999.87908  16401104.72108  16401104.66708
  -5398437.94708  -4206573.45808  17786868.74808  17786868.53608
  -5616602.65708  -4376572.80608  17963144.17308  17963145.07108
 93 04 16 09 42 00.0000000  0  8 28 01 03 17 21 23 31 11
 -18304629.09508 -14263345.99008  15934048.56908  15934048.19008
 -22475044.33408 -17513012.94708  15522890.88608  15522891.03308
  -6046842.20006  -4711817.58506  19935785.51506  19935786.82706
 -16616840.56608 -12948179.07208  17158109.21408  17158109.51908
 -25038221.36108 -19510294.27408  15316008.05308  15316008.11808
 -14172426.45808 -11043444.10308  16433476.23608  16433476.10708
  -5612354.44608  -4373261.62608  17746161.85208  17746161.50808
  -6022184.45808  -4692610.50608  17885964.44108  17885965.38708
 93 04 16 09 44 00.0000000  0  7 28 01 17 21 23 31 11
 -18246640.55308 -14218160.10308  15945083.45308  15945083.06308
 -22718390.95408 -17702633.62408  15476583.50908  15476583.66808
 -16324582.11608 -12720445.21508  17213724.19008  17213724.51308
 -25068016.72608 -19533511.41108  15310338.19308  15310338.18608
 -14000959.05908 -10909833.12408  16466105.36008  16466105.26708
  -5818627.45208  -4533993.79908  17706909.35208  17706908.99108
  -6422919.18308  -5004871.27008  17809707.16408  17809708.00808
 93 04 16 09 46 00.0000000  0  8 12 28 01 17 21 23 31 11
        -0.99218        -0.34118  18666136.68318  18666137.94618
 -18179148.80608 -14165569.11808  15957926.76008  15957926.33608
 -22954462.55808 -17886585.45708  15431660.53108  15431660.69308
 -16028049.90108 -12489381.15408  17270152.36408  17270152.70708
 -25095221.78708 -19554710.13308  15305161.16908  15305161.22608
 -13828305.57108 -10775297.92808  16498960.24308  16498960.15208
  -6016733.90808  -4688362.42308  17669210.92408  17669210.62808
  -6818593.59708  -5313188.97308  17734412.81808  17734413.68708
 93 04 16 09 48 00.0000000  0  8 12 28 01 17 21 23 31 11
   -188704.96108   -147042.29208  18630227.41108  18630228.58308
 -18102273.02108 -14105665.89708  15972555.79508  15972555.39208
 -23182965.65808 -18064639.75308  15388177.77808  15388177.92708
 -15727027.32308 -12254818.10508  17327435.04508  17327435.36108
 -25119754.56508 -19573826.55308  15300492.77608  15300492.82608
 -13654586.18108 -10639932.16308  16532017.97208  16532017.85208
  -6206961.75208  -4836591.87708  17633011.71908  17633011.38408
  -7209001.95908  -5617403.23508  17660120.50808  17660121.38108
 93 04 16 09 50 00.0000000  0  8 12 28 01 17 21 23 31 11
   -369822.20808   -288172.52708  18595761.86008  18595763.17308
 -18016137.26108 -14038547.10508  15988946.75508  15988946.34908
 -23404029.11508 -18236896.92708  15346110.74208  15346110.87708
 -15422076.69008 -12017194.22808  17385465.24508  17385465.54008
 -25141297.10608 -19590612.92108  15296393.30708  15296393.29508
 -13479459.64308 -10503469.91608  16565343.40708  16565343.27408
  -6389264.39008  -4978645.84008  17598320.68208  17598320.30108
  -7593930.36208  -5917347.38708  17586871.02108  17586871.94508
 93 04 16 09 52 00.0000000  0  8 12 28 01 17 21 23 31 11
   -543171.59908   -423249.90508  18562774.56008  18562775.69408
 -17920781.60208 -13964243.97908  16007092.34708  16007091.96208
 -23617755.17708 -18403436.65308  15305439.98208  15305440.08008
 -15112657.49808 -11776088.37008  17444345.74508  17444346.07408
 -25160058.23708 -19605231.95808  15292823.18208  15292823.15208
 -13303216.28008 -10366137.40708  16598881.49308  16598881.30108
  -6563345.38808  -5114293.34208  17565194.16108  17565193.81008
  -7973161.16308  -6212851.87308  17514705.76708  17514706.65008
 93 04 16 09 54 00.0000000  0  8 12 28 01 17 21 23 31 11
   -708575.79308   -552136.21508  18531299.10908  18531300.34908
 -17816537.07508 -13883014.46208  16026929.34308  16026928.92008
 -23823586.10508 -18563824.33208  15266271.65408  15266271.73408
 -14799052.04908 -11531720.47908  17504022.86508  17504023.23708
 -25175988.65808 -19617645.23608  15289791.72808  15289791.72408
 -13126034.82908 -10228073.91908  16632597.89808  16632597.76408
  -6728997.36308  -5243372.80108  17533671.58208  17533671.19008
  -8346475.22808  -6503745.89808  17443666.46708  17443667.26608
 93 04 16 09 56 00.0000000  0  8 12 28 01 17 21 23 31 11
   -865864.01208   -674698.38208  18501368.09508  18501369.31608
 -17703352.10108 -13794818.37008  16048467.68908  16048467.28808
 -24022067.51008 -18718485.10908  15228501.81208  15228501.92708
 -14481630.92608 -11284379.33408  17564426.15908  17564426.44008
 -25189324.45708 -19628036.74508  15287253.96308  15287253.98608
 -12947830.02408 -10089213.01808  16666509.10408  16666509.01108
  -6886669.63308  -5366234.29708  17503667.54008  17503667.19208
  -8713656.05308  -6789860.77908  17373794.20908  17373795.03608
 93 04 16 09 58 00.0000000  0  8 12 28 01 17 21 23 31 11
  -1014886.25608   -790819.53008  18473010.07408  18473011.28408
 -17581367.99008 -13699765.80808  16071680.61908  16071680.24008
 -24213063.88108 -18867313.39308  15192156.37808  15192156.43308
 -14160317.24408 -11034005.02508  17625570.08808  17625570.33208
 -25199679.99208 -19636105.96708  15285283.35608  15285283.30108
 -12768279.69908  -9949303.66008  16700676.39508  16700676.28308
  -7035840.92008  -5482471.64208  17475281.10908  17475280.72708
  -9074503.60208  -7071040.64408  17305127.19908  17305128.02308
 93 04 16 10 00 00.0000000  0  8 12 28 01 17 21 23 31 11
  -1155489.44108   -900380.40408  18446254.14608  18446255.35808
 -17450660.43208 -13597915.75708  16096553.40908  16096553.00408
 -24396193.38408 -19010011.65308  15157307.99708  15157308.07908
 -13835046.05908 -10780546.95508  17687467.06808  17687467.38608
 -25207159.58508 -19641934.19308  15283860.01508  15283860.05108
 -12587819.97608  -9808685.67908  16735016.74508  16735016.59008
  -7176382.91408  -5591984.86208  17448536.83008  17448536.51808
  -9428809.64908  -7347123.25608  17237704.96308  17237705.77708
 93 04 16 10 02 00.0000000  0  8 12 28 01 17 21 23 31 11
  -1287516.24808  -1003258.38908  18421130.26408  18421131.31608
 -17311276.43308 -13489304.84308  16123077.32708  16123076.92308
 -24571663.14308 -19146741.28308  15123917.13908  15123917.16908
 -13505810.08408 -10523999.43608  17750118.65408  17750118.96108
 -25212112.17808 -19645793.32808  15282917.50508  15282917.46508
 -12406175.92008  -9667144.84708  16769582.43008  16769582.29008
  -7308535.47408  -5694960.87608  17423389.05608  17423388.72908
  -9776357.73008  -7617939.90108  17171568.76508  17171569.55908
 93 04 16 10 04 00.0000000  0  8 12 28 01 17 21 23 31 11
  -1410830.50508  -1099347.37308  18397664.19808  18397665.42708
 -17163463.14308 -13374125.64208  16151205.24208  16151204.82008
 -24739432.36808 -19277470.49908  15091991.65808  15091991.69408
 -13172580.48308 -10264340.00208  17813530.18308  17813530.38208
 -25214273.11508 -19647477.15308  15282506.32008  15282506.30808
 -12223146.03108  -9524524.14608  16804411.90108  16804411.74508
  -7432372.13708  -5791456.96108  17399823.72508  17399823.33508
 -10116948.59208  -7883335.34008  17106756.47308  17106757.22508
 93 04 16 10 06 00.0000000  0  8 12 28 01 17 21 23 31 11
  -1525292.85808  -1188538.77508  18375882.81108  18375883.93608
 -17007279.14808 -13252423.81808  16180925.96608  16180925.57608
 -24899023.36708 -19401827.07208  15061622.45808  15061622.48908
 -12835446.32608 -10001638.05908  17877684.60708  17877684.90508
 -25213856.03208 -19647152.13308  15282585.66508  15282585.62108
 -12039291.87108  -9381261.15508  16839398.11708  16839397.99308
  -7547267.14408  -5880985.53308  17377959.94208  17377959.56808
 -10450374.51008  -8143147.70308  17043307.56008  17043308.30808
 93 04 16 10 08 00.0000000  0  8 12 28 01 17 21 23 31 11
  -1630770.98708  -1270729.46908  18355810.93808  18355812.05208
 -16842861.79208 -13124306.39608  16212213.71308  16212213.30708
 -25050919.92808 -19520187.97908  15032717.49908  15032717.50808
 -12494715.06208  -9736133.16108  17942523.63708  17942523.89908
 -25210522.95508 -19644554.91308  15283219.90208  15283219.86608
 -11854649.61908  -9237384.06208  16874534.37308  16874534.23608
  -7653655.19608  -5963885.29408  17357714.92208  17357714.56608
 -10776431.46108  -8397218.02008  16981260.93808  16981261.72608
 93 04 16 10 10 00.0000000  0  8 12 28 01 17 21 23 31 11
  -1727136.59308  -1345819.50108  18337473.06008  18337474.22608
 -16670598.93908 -12990075.59608  16244994.10408  16244993.72308
 -25195208.63808 -19632620.69408  15005260.22808  15005260.21108
 -12150467.65808  -9467888.41808  18008031.73808  18008031.99908
 -25204372.40108 -19639762.25008  15284390.22208  15284390.18008
 -11668839.38108  -9092596.85508  16909892.87608  16909892.69908
  -7751534.12608  -6040154.56908  17339089.26708  17339088.82508
 -11094914.57708  -8645386.67308  16920655.63908  16920656.38508
 93 04 16 10 12 00.0000000  0  8 21 12 28 17 23 31 01 11
 -25195580.51808 -19632911.41008  15286063.33308  15286063.31408
  -1814294.44408  -1413734.66708  18320887.50608  18320888.56708
 -16490419.91008 -12849676.34708  16279281.05108  16279280.68408
 -11802526.92708  -9196765.75408  18074242.63208  18074242.85008
 -11481884.94608  -8946918.06408  16945469.12308  16945468.95708
  -7840699.01108  -6109633.68908  17322121.66108  17322121.26608
 -25331702.45008 -19738979.46208  14979286.26008  14979286.23808
 -11405649.06708  -8887517.43008  16861524.84408  16861525.54608
 93 04 16 10 14 00.0000000  0  8 21 12 28 17 23 01 31 11
 -25184098.88008 -19623964.65808  15288248.15908  15288248.13108
  -1892128.85008  -1474384.79808  18306076.00108  18306077.09508
 -16302404.02208 -12703170.45408  16315059.25508  16315058.88608
 -11451296.42908  -8923079.66508  18141079.54308  18141079.82308
 -11293546.69708  -8800160.97308  16981308.70608  16981308.53708
 -25460015.88808 -19838963.91909  14954869.00708  14954868.99609
  -7921278.78808  -6172423.11708  17306787.77308  17306787.39608
 -11708434.66508  -9123454.23608  16803906.59708  16803907.31608
 93 04 16 10 16 00.0000000  0  8 21 12 28 17 23 01 31 11
 -25169871.57808 -19612878.43308  15290955.49408  15290955.45308
  -1960533.90108  -1527687.37908  18293058.94108  18293060.03408
 -16106776.07408 -12550733.08608  16352286.04608  16352285.68708
 -11096655.81708  -8646736.33508  18208565.42308  18208565.74208
 -11104467.15608  -8652826.25508  17017289.34408  17017289.17408
 -25580752.56008 -19933044.40309  14931893.55808  14931893.53409
  -7993249.52408  -6228504.20508  17293092.28108  17293091.85008
 -12003077.36708  -9353045.92808  16747837.94108  16747838.65808
 93 04 16 10 18 00.0000000  0  8 21 12 28 17 23 01 31 11
 -25152909.64808 -19599661.33508  15294183.30708  15294183.24708
  -2019434.43708  -1573583.84408  18281850.47208  18281851.61708
 -15903719.67708 -12392507.31808  16390926.38108  16390926.00208
 -10738581.27208  -8367717.19808  18276704.74808  18276704.98108
 -10914260.81708  -8504613.53408  17053484.36908  17053484.23608
 -25693666.43208 -20021029.20009  14910406.70808  14910406.68009
  -8056397.30608  -6277710.26008  17281075.58908  17281075.14708
 -12289410.64808  -9576162.75308  16693350.52208  16693351.26408
 93 04 16 10 20 00.0000000  0  8 21 12 28 17 23 01 31 11
 -25133158.39108 -19584270.73508  15297941.84208  15297941.79108
  -2068726.01308  -1611992.82008  18272470.57808  18272471.65608
 -15693308.06208 -12228550.21108  16430966.33908  16430965.91708
 -10377079.74008  -8086027.70508  18345496.21708  18345496.49108
 -10722868.78908  -8355476.88508  17089905.08108  17089904.91308
 -25798792.88308 -20102945.87809  14890401.79708  14890401.71609
  -8110862.99908  -6320151.06308  17270711.15108  17270710.65608
 -12567234.96208  -9792649.21108  16640482.30608  16640483.02708
 93 04 16 10 22 00.0000000  0  8 21 12 28 17 23 01 31 11
 -25110526.38908 -19566635.39508  15302248.51608  15302248.44008
  -2108325.25408  -1642849.32808  18264935.02208  18264936.20008
 -15475927.29908 -12059162.59608  16472332.50308  16472332.11808
 -10012294.84608  -7801779.72608  18414912.46908  18414912.74708
 -10530458.90108  -8205547.10208  17126519.46208  17126519.27508
 -25896171.92508 -20178825.61209  14871871.18508  14871871.09309
  -8156659.60008  -6355836.72508  17261996.31808  17261995.90308
 -12836368.73508 -10002363.82508  16589267.83208  16589268.56908
 93 04 16 10 24 00.0000000  0  8 21 12 28 17 01 23 31 11
 -25085186.89808 -19546890.32608  15307070.41808  15307070.37808
  -2138165.47208  -1666101.42008  18259256.66508  18259257.72008
 -15251919.27208 -11884610.88608  16514959.83108  16514959.43508
  -9644529.95708  -7515209.66908  18484895.82508  18484896.09508
 -25985711.80608 -20248596.90609  14854832.30008  14854832.19409
 -10336804.13408  -8054647.27708  17163370.76708  17163370.60308
  -8193836.40508  -6384805.67108  17254921.79308  17254921.33408
 -13096643.13608 -10205175.02808  16539739.23008  16539739.93708
 93 04 16 10 26 00.0000000  0  8 21 12 28 17 01 23 31 11
 -25057284.26408 -19525148.00208  15312380.16508  15312380.08408
  -2158195.97608  -1681709.58108  18255444.88808  18255446.12808
 -15020851.86908 -11704558.36108  16558930.47208  16558930.05608
  -9273951.26708  -7226447.09208  18555414.62408  18555414.92808
 -26067558.10808 -20312373.20709  14839257.39308  14839257.31209
 -10142220.30008  -7903023.50808  17200398.78908  17200398.65608
  -8222315.94208  -6406997.52308  17249502.31308  17249501.90308
 -13347904.14508 -10400962.82008  16491925.84708  16491926.58808
 93 04 16 10 28 00.0000000  0  8 21 12 28 17 01 23 31 11
 -25026526.10608 -19501180.59408  15318233.24108  15318233.13908
  -2168367.40708  -1689635.33908  18253509.37208  18253510.45808
 -14783175.69508 -11519356.14608  16604158.52708  16604158.11808
  -8900159.87008  -6935181.05008  18626544.73908  18626545.05308
 -26141782.12908 -20370210.06909  14825133.06308  14825132.96209
  -9946520.93908  -7750530.50308  17237639.15808  17237639.07208
  -8242392.14408  -6422641.31708  17245681.96708  17245681.47008
 -13589993.93108 -10589604.19608  16445857.69908  16445858.37408
 93 04 16 10 30 00.0000000  0  8 21 12 28 17 01 23 31 11
 -24992702.07508 -19474824.19208  15324669.68608  15324669.57108
  -2168611.75408  -1689825.71408  18253462.78508  18253463.88608
 -14539254.54408 -11329287.71708  16650575.19108  16650574.74108
  -8523656.77508  -6641802.02208  18698190.89808  18698191.18908
 -26208152.24509 -20421927.01209  14812503.17809  14812503.06309
  -9749619.12108  -7597100.51908  17275108.30808  17275108.17608
  -8253944.47908  -6431643.14508  17243483.61908  17243483.18608
 -13822734.68608 -10770960.61108  16401568.58008  16401569.28808
 93 04 16 10 32 00.0000000  0  8 21 12 28 17 01 23 31 11
 -24956284.82808 -19446447.10608  15331599.69508  15331599.59908
  -2158894.74908  -1682253.98708  18255311.87508  18255312.98408
 -14289213.75108 -11134450.74008  16698156.63308  16698156.21208
  -8144183.46308  -6346108.52308  18770402.25808  18770402.47008
 -26266841.54008 -20467658.89909  14801334.98008  14801334.84509
  -9551354.42608  -7442608.55108  17312836.87008  17312836.68508
  -8256940.84808  -6433977.99008  17242913.45608  17242913.00108
 -14045980.33608 -10944918.24508  16359086.33008  16359087.04308
 93 04 16 10 34 00.0000000  0  8 21 12 28 17 23 01 31 11
 -24916983.80008 -19415822.92208  15339078.42008  15339078.36008
  -2139196.30108  -1666904.51908  18259060.34408  18259061.50108
 -14033088.07408 -10934872.28908  16746895.73108  16746895.29608
  -7762205.30308  -6048463.19708  18843090.32308  18843090.56808
  -9351801.21708  -7287112.55208  17350810.56408  17350810.41708
 -26317933.94309 -20507471.13009  14791612.36009  14791612.21409
  -8251706.91308  -6429899.59908  17243909.50008  17243909.00908
 -14259596.36808 -11111372.29408  16318436.56408  16318437.24708
 93 04 16 10 36 00.0000000  0  8 21 12 28 17 01 23 31 11
 -24874742.45908 -19382907.58308  15347116.64808  15347116.58308
  -2109497.25508  -1643762.37608  18264711.88108  18264712.98808
 -13770995.83108 -10730644.56708  16796770.23208  16796769.82008
  -7377649.48608  -5748809.33108  18916268.75408  18916268.97608
 -26361722.93909 -20541592.40109  14783279.60809  14783279.44609
  -9151468.97108  -7131009.51208  17388932.53208  17388932.42108
  -8237766.13008  -6419036.65308  17246562.27508  17246561.83708
 -14463447.23508 -11270217.11108  16279645.02008  16279645.68108
 93 04 16 10 38 00.0000000  0  8 21 12 28 17 23 01 31 11
 -24829655.03508 -19347774.50908  15355696.50208  15355696.41408
  -2069779.98108  -1612813.82408  18272269.78708  18272270.92608
 -13503614.60408 -10522295.55508  16847651.17508  16847650.71608
  -6990857.91708  -5447413.27808  18989872.81908  18989873.14308
  -8949928.94508  -6973965.34608  17427284.31208  17427284.20208
 -26397770.72709 -20569681.55909  14776419.93109  14776419.76509
  -8215511.84108  -6401695.64408  17250797.06208  17250796.66008
 -14657397.21408 -11421346.96208  16242737.54608  16242738.24108
 93 04 16 10 40 00.0000000  0  8 21 12 28 17 01 23 31 11
 -24781598.67908 -19310327.98708  15364841.32108  15364841.21408
  -2020036.40708  -1574052.58008  18281735.63408  18281736.74208
 -13231012.11708 -10309878.04208  16899525.73108  16899525.32308
  -6601670.67208  -5144150.51908  19063932.71108  19063932.99708
 -26426362.01409 -20591960.45509  14770979.13909  14770978.96809
  -8746882.10608  -6815747.04108  17465922.83808  17465922.69908
  -8185116.74608  -6378011.15108  17256581.11808  17256580.65908
 -14841319.39108 -11564662.94108  16207738.35708  16207739.02708
 93 04 16 10 42 00.0000000  0  8 21 12 28 17 01 23 31 11
 -24730720.42608 -19270682.58608  15374523.11208  15374523.02008
  -1960266.85408  -1527478.88508  18293109.47308  18293110.52908
 -12952814.80308 -10093100.91908  16952464.84108  16952464.41608
  -6209921.43108  -4838891.38908  19138480.14008  19138480.40008
 -26447739.13009 -20608617.92709  14766911.19409  14766911.02609
  -8542711.60708  -6656653.14708  17504775.16808  17504775.06708
  -8146442.33708  -6347875.25808  17263940.58308  17263940.18408
 -15015093.05908 -11700071.00408  16174670.33608  16174671.00108
 93 04 16 10 44 00.0000000  0  8 21 12 28 17 01 23 31 11
 -24676998.11708 -19228821.03508  15384746.09108  15384746.02708
  -1890497.78608  -1473113.35708  18306385.98208  18306387.14608
 -12669747.57008  -9872529.05408  17006330.77208  17006330.33308
  -5816011.49308  -4531948.59608  19213438.63208  19213438.89808
 -26462027.40309 -20619751.62209  14764192.23609  14764192.03109
  -8337448.97308  -6496708.24508  17543835.38708  17543835.27808
  -8099342.17608  -6311173.82408  17272903.48308  17272902.99208
 -15178623.62708 -11827497.42408  16143551.47808  16143552.18208
 93 04 16 10 46 00.0000000  0  8 21 12 28 17 01 23 31 11
 -24620084.82208 -19184473.00908  15395576.35808  15395576.26608
  -1810721.01408  -1410949.62708  18321566.95708  18321568.15608
 -12381998.84708  -9648309.28208  17061087.68808  17061087.23608
  -5419866.67408  -4223264.28608  19288822.50808  19288822.70508
 -26469071.06309 -20625240.16209  14762851.86709  14762851.64909
  -8131012.07108  -6335848.33908  17583119.02508  17583118.92608
  -8044404.33208  -6268365.12508  17283357.76808  17283357.36408
 -15331780.72608 -11946840.61608  16114406.65008  16114407.35208
 93 04 16 10 48 00.0000000  0  8 21 11 12 28 01 17 23 31
 -24560406.85808 -19137970.69408  15406932.70108  15406932.59608
 -15474493.55708 -12058045.42508  16087249.30608  16087249.97408
  -1720988.21608  -1341027.96608  18338642.59508  18338643.74308
 -12089642.02308  -9420498.78208  17116721.24108  17116720.85408
 -26468792.25609 -20625022.88709  14762904.90209  14762904.66509
  -5021996.00108  -3913235.15808  19364534.78908  19364535.02108
  -7923099.79108  -6173838.78908  17622683.42508  17622683.35808
  -7981681.48608  -6219490.19708  17295293.58008  17295293.13408
 93 04 16 10 50 00.0000000  0  8 21 11 12 28 01 17 23 31
 -24497884.06008 -19089251.62808  15418830.39808  15418830.30408
 -15606651.06208 -12161025.29708  16062100.56408  16062101.26208
  -1621310.92108  -1263357.34008  18357610.52408  18357611.67108
 -11793022.86408  -9189366.99308  17173166.04508  17173165.54408
 -26461229.00809 -20619129.42109  14764344.12109  14764343.89009
  -4622151.30908  -3601667.86908  19440622.64108  19440623.00808
  -7713622.73308  -6010609.93008  17662545.63808  17662545.51208
  -7911064.82008  -6164464.22308  17308731.45108  17308730.97908
 93 04 16 10 52 00.0000000  0  8 21 11 12 28 01 17 23 31
 -24432438.78408 -19038255.31008  15431284.23708  15431284.11708
 -15728189.34108 -12255730.46108  16038972.61208  16038973.28108
  -1511747.16408  -1177982.97908  18378459.87108  18378460.96108
 -11492114.81908  -8954893.20208  17230426.98408  17230426.44208
 -26446838.17609 -20607915.76809  14767082.59909  14767082.34809
  -4220622.70007  -3288788.40408  19517030.96807  19517031.25608
  -7503074.49608  -5846546.39208  17702611.55608  17702611.43308
  -7832717.36508  -6103414.27608  17323640.52608  17323640.01008
 93 04 16 10 54 00.0000000  0  8 21 11 12 28 01 17 23 31
 -24363738.24208 -18984722.41708  15444357.51408  15444357.41108
 -15839039.27008 -12342107.02908  16017878.57208  16017879.24408
  -1392350.07508  -1084946.26708  18401180.31708  18401181.45508
 -11187276.06908  -8717356.52708  17288435.83708  17288435.41408
 -26425582.28509 -20591352.72109  14771127.41709  14771127.16909
  -3817272.52607  -2974489.54108  19593785.92007  19593786.25608
  -7290980.59108  -5681278.42508  17742971.72008  17742971.68808
  -7746823.96808  -6036484.36908  17339985.46908  17339985.02708
 93 04 16 10 56 00.0000000  0  8 21 11 12 28 01 17 23 31
 -24291876.72008 -18928726.42208  15458032.25808  15458032.18908
 -15939136.65808 -12420105.00508  15998830.67008  15998831.39608
  -1263176.33008   -984291.38708  18425761.26908  18425762.38508
 -10878574.75608  -8476810.06108  17347179.66108  17347179.22408
 -26397370.82209 -20569369.74509  14776495.86409  14776495.61409
  -3412318.75208  -2658941.16508  19670846.14708  19670846.34308
  -7077625.73808  -5515027.91308  17783571.86208  17783571.76508
  -7653331.31908  -5963632.97708  17357776.50808  17357776.07908
 93 04 16 10 58 00.0000000  0  8 21 11 12 28 01 17 23 31
 -24216763.15908 -18870196.37908  15472325.88808  15472325.83708
 -16028413.38208 -12489671.30008  15981841.85808  15981842.63408
  -1124278.47608   -876059.27908  18452192.64608  18452193.77608
 -10566387.01208  -8233546.90208  17406587.06308  17406586.64308
 -26362478.67409 -20542181.04509  14783135.62709  14783135.37309
  -3005903.90407  -2342254.18107  19748184.16107  19748184.29307
  -6862903.35008  -5347711.78108  17824432.23708  17824432.08308
  -7552310.10708  -5884915.16008  17377000.26408  17376999.79108
 93 04 16 11 00 00.0000000  0  8 21 11 12 28 01 17 23 31
 -24138748.59908 -18809405.81608  15487171.58708  15487171.51908
 -16106840.74708 -12550783.54008  15966917.64108  15966918.35208
   -975746.46308   -760320.04108  18480457.32708  18480458.45108
 -10251021.79408  -7987807.78108  17466598.97708  17466598.52908
 -26320903.94009 -20509785.13509  14791047.02009  14791046.78109
  -2598052.63407  -2024447.97508  19825795.80207  19825796.17508
  -6646668.81408  -5179217.35708  17865580.23408  17865580.23708
  -7443963.73508  -5800489.42608  17397617.80808  17397617.47008
 93 04 16 11 02 00.0000000  0  7 21 11 12 28 01 23 31
 -24057649.50108 -18746211.71308  15502604.18208  15502604.11108
 -16174371.95708 -12603405.27608  15954066.86708  15954067.64108
   -817651.37608   -637129.05708  18510541.80308  18510542.88508
  -9932505.85608  -7739613.56608  17527210.61508  17527210.19808
 -26272891.11409 -20472372.52609  14800183.53909  14800183.29209
  -6429062.49008  -5009654.01308  17906989.39408  17906989.32708
  -7328659.37108  -5710641.89008  17419559.57708  17419559.17508
 93 04 16 11 04 00.0000000  0  8 21 11 12 28 01 25 23 31
 -23973270.33008 -18680461.71308  15518661.05808  15518660.98208
 -16230977.92308 -12647513.83308  15943295.13108  15943295.82708
   -650079.53708   -506553.60208  18542429.65708  18542430.78908
  -9611030.33008  -7489113.17108  17588385.36208  17588384.93308
 -26218562.71209 -20430038.69509  14810521.88509  14810521.65909
         0.11818        -0.40518  17307366.70318  17307365.97318
  -6209988.34208  -4838946.90808  17948677.75408  17948677.72208
  -7206133.19308  -5615166.96408  17442875.55808  17442875.16808
 93 04 16 11 06 00.0000000  0  8 21 12 28 25 01 23 31 11
 -23885911.94608 -18612390.24908  15535284.78508  15535284.70408
   -473118.25908   -368661.70608  18576104.29708  18576105.39108
  -9286989.73108  -7236614.02408  17650048.36108  17650048.00408
   -405584.68108   -316040.49208  17230186.47508  17230185.82108
 -26157961.29309 -20382816.79509  14822053.97509  14822053.71709
  -5989437.70508  -4667089.28608  17990647.22908  17990647.19208
  -7076781.92008  -5514373.78408  17467490.27608  17467489.82608
 -16276631.80908 -12683088.30808  15934607.49708  15934608.24908
 93 04 16 11 08 00.0000000  0  8 21 12 28 25 01 23 31 11
 -23795190.53608 -18541698.24908  15552548.52708  15552548.44708
   -286874.90708   -223537.02808  18611545.26308  18611546.34608
  -8960362.92708  -6982099.64808  17712203.42208  17712202.99008
   -808705.63308   -630160.69908  17153475.11808  17153474.41108
 -26090915.04709 -20330572.95709  14834812.40709  14834812.12509
  -5767245.00308  -4493952.12108  18032929.14108  18032929.09008
  -6940976.55308  -5408551.42308  17493333.23008  17493332.78408
 -16311329.14908 -12710125.21108  15928004.83208  15928005.55108
 93 04 16 11 10 00.0000000  0  8 21 12 28 25 01 23 31 11
 -23700973.41108 -18468282.31408  15570477.39808  15570477.30708
    -91443.82708    -71253.08108  18648734.56908  18648735.68108
  -8631360.57508  -6725734.19208  17774810.37908  17774810.08508
  -1208982.04408   -942064.39408  17077305.00308  17077304.32208
 -26017767.67509 -20273574.99509  14848731.89409  14848731.63209
  -5543689.55108  -4319753.08508  18075470.24008  18075470.21808
  -6797868.58908  -5297038.75608  17520565.79808  17520565.31208
 -16335055.67308 -12728613.42708  15923489.83308  15923490.57708
 93 04 16 11 12 00.0000000  0  8 12 28 25 21 01 23 31 11
    113052.13408     88094.40108  18687648.81908  18687649.95508
  -8300349.79008  -6467803.72308  17837799.75308  17837799.37108
  -1606571.91708  -1251874.66908  17001646.18808  17001645.47108
 -23603738.80608 -18392515.09208  15588980.56008  15588980.48208
 -25938573.63709 -20211865.34309  14863802.02109  14863801.76909
  -5318320.82708  -4144141.11308  18118356.49708  18118356.46108
  -6648643.21908  -5180759.26208  17548962.43008  17548961.98908
 -16347827.11908 -12738565.21708  15921059.50908  15921060.24808
 93 04 16 11 14 00.0000000  0  8 12 28 25 21 01 23 31 11
    326494.99708    254413.50708  18728265.69008  18728266.79108
  -7967555.57208  -6208483.59108  17901128.43508  17901128.18708
  -2001088.99108  -1559290.55708  16926571.97608  16926571.39408
 -23503239.59008 -18314204.02008  15608104.94408  15608104.85708
 -25853231.78709 -20145365.18708  14880042.00209  14880041.74508
  -5091214.80508  -3967175.40708  18161573.33508  18161573.36808
  -6493507.12808  -5059874.02008  17578483.86208  17578483.50008
 -16349657.62208 -12739991.59408  15920711.17708  15920711.90108
 93 04 16 11 16 00.0000000  0  8 12 28 25 21 01 23 31 11
    548765.32408    427611.14708  18770562.36708  18770563.45308
  -7633085.12208  -5947857.28208  17964775.87708  17964775.59808
  -2392435.85208  -1864236.14408  16852101.20508  16852100.54308
 -23399191.76908 -18233127.80008  15627904.58808  15627904.53608
 -25762472.92309 -20074643.98708  14897312.86509  14897312.59508
  -4862796.03508  -3789186.77708  18205040.04108  18205039.97908
  -6331852.95708  -4933909.75608  17609245.62408  17609245.33408
 -16340566.74708 -12732907.81208  15922441.10708  15922441.86708
 93 04 16 11 18 00.0000000  0  8 12 28 25 21 01 23 31 11
    779719.17208    607575.19708  18814511.39808  18814512.48608
  -7297221.02208  -5686145.02408  18028688.69208  18028688.39908
  -2780161.51008  -2166360.01008  16778319.44508  16778318.75908
 -23291592.29008 -18149284.05708  15648380.07308  15648379.99708
 -25665819.59409 -19999329.69808  14915705.36009  14915705.11608
  -4632588.17908  -3609804.04008  18248847.19408  18248847.05608
  -6164084.76108  -4803181.31008  17641170.84408  17641170.52508
 -16320600.32808 -12717349.58408  15926240.63408  15926241.37308
 93 04 16 11 20 00.0000000  0  8 12 28 25 21 01 23 31 11
   1019223.98208    794202.31608  18860087.67808  18860088.69408
  -6960032.45308  -5423400.70108  18092853.69208  18092853.27108
  -3164371.85608  -2465744.67908  16705206.63508  16705205.97308
 -23180576.12408 -18062777.96008  15669505.77408  15669505.73208
 -25563632.14109 -19919703.10208  14935150.96109  14935150.72108
  -4400683.41008  -3429099.03508  18292977.21408  18292977.03308
  -5990583.69308  -4667985.70708  17674186.97008  17674186.68908
 -16289797.10508 -12693347.09108  15932102.28508  15932103.02608
 93 04 16 11 22 00.0000000  0  8 12 28 25 21 01 23 31 11
   1267138.18008    987382.20407  18907264.15608  18907265.15207
  -6621952.25008  -5159961.58508  18157188.15008  18157187.89108
  -3544827.47608  -2762203.57608  16632808.31908  16632807.58008
 -23066397.74708 -17973807.80508  15691233.19608  15691233.10808
 -25456060.67209 -19835881.16908  14955621.16109  14955620.90608
  -4167280.97308  -3247227.00108  18337392.16608  18337392.14508
  -5811506.65108  -4528445.17008  17708264.31408  17708264.05308
 -16248208.25308 -12660940.21408  15940016.38108  15940017.13908
 93 04 16 11 24 00.0000000  0  8 25 12 28 21 01 23 31 11
  -3921246.34808  -3055516.96308  16561178.17108  16561177.44608
   1523315.96808   1187001.24708  18956013.26208  18956014.28108
  -6283232.75008  -4896024.32108  18221644.31908  18221643.95508
 -22948597.81108 -17882015.65408  15713649.75808  15713649.70208
 -25343170.99409 -19747915.18108  14977103.32409  14977103.05808
  -3932098.12208  -3063967.65408  18382146.04508  18382145.93508
  -5626771.53508  -4384495.74408  17743418.19308  17743417.93208
 -16195892.93608 -12620175.05908  15949971.68608  15949972.46208
 93 04 16 11 26 00.0000000  0  8 01 12 28 25 21 23 31 11
 -25225083.48309 -19655898.93308  14999574.62009  14999574.38708
   1787615.46308   1392948.88507  19006307.70308  19006308.75107
  -5943710.52908  -4631461.58008  18286253.20708  18286252.88208
  -4293217.17308  -3345364.34008  16490394.45408  16490393.76708
 -22827360.34508 -17787544.90808  15736720.49808  15736720.42508
  -3695261.14908  -2879419.39408  18427214.55508  18427214.56908
  -5436443.77008  -4236188.43208  17779636.35708  17779636.15108
 -16132909.94808 -12571097.42908  15961956.96308  15961957.75508
 93 04 16 11 28 00.0000000  0  8 01 12 28 25 21 23 31 11
 -25101775.16109 -19559814.51908  15023039.45909  15023039.17408
   2059888.00508   1605109.30507  19058119.44708  19058120.56507
  -5603586.87308  -4366430.15608  18350976.61808  18350976.31808
  -4660775.59208  -3631773.48908  16420450.42708  16420449.69308
 -22702617.85708 -17690342.97708  15760458.21208  15760458.15808
  -3456501.28608  -2693372.79608  18472649.01408  18472649.14608
  -5241040.21008  -4083925.93508  17816820.42508  17816820.28108
 -16059329.33608 -12513761.90708  15975958.91108  15975959.71508
 93 04 16 11 30 00.0000000  0  8 01 12 28 25 21 23 31 11
 -24973449.61909 -19459820.59008  15047458.94609  15047458.73708
   2339966.39007   1823352.20107  19111416.60707  19111417.64807
  -5263289.94308  -4101263.74108  18415733.06108  18415732.77808
  -5024136.03808  -3914911.47808  16351305.20208  16351304.51408
 -22573989.94708 -17590113.44708  15784935.27708  15784935.26408
  -3216041.46408  -2506001.57708  18518407.08008  18518407.08908
  -5041072.68808  -3928107.12008  17854873.00808  17854872.77908
 -15975243.70608 -12448240.65408  15991959.87608  15991960.69308
 93 04 16 11 32 00.0000000  0  8 01 12 28 25 21 23 31 11
 -24840222.01509 -19356006.86608  15072811.33509  15072811.06808
   2627671.32107   2047537.83307  19166165.11807  19166166.18307
  -4923039.96308  -3836133.89808  18480480.39608  18480480.16908
  -5382800.31008  -4194390.11108  16283053.66108  16283052.96608
 -22441780.84308 -17487093.37808  15810093.83308  15810093.79908
  -2973886.76008  -2317309.65608  18564487.74008  18564487.74008
  -4836146.83208  -3768424.64708  17893869.16108  17893868.92908
 -15880761.85008 -12374618.45208  16009939.18908  16009939.99608
 93 04 16 11 34 00.0000000  0  8 01 25 12 28 21 23 31 11
 -24702265.11509 -19248507.97708  15099063.66909  15099063.43108
  -5736355.33808  -4469887.52008  16215774.33708  16215773.63608
   2922839.38007   2277538.88307  19222333.77307  19222334.66307
  -4582855.91608  -3571055.45308  18545215.49508  18545215.17708
 -22306047.40508 -17381327.07108  15835923.06808  15835923.03808
  -2729606.36108  -2126961.35208  18610972.77408  18610972.79508
  -4626518.96508  -3605078.28708  17933759.98208  17933759.79908
 -15775981.42308 -12292971.38608  16029878.24008  16029879.06808
 93 04 16 11 36 00.0000000  0  8 01 12 28 25 21 23 31 11
 -24559689.62709 -19137410.18808  15126194.84509  15126194.53908
   3225309.73207   2513230.04807  19279891.90207  19279893.00207
  -4243362.18408  -3306514.89608  18609818.86508  18609818.59808
  -6085101.47008  -4741637.73508  16149410.17708  16149409.49108
 -22166605.82108 -17272671.30008  15862457.94108  15862457.88708
  -2483514.87808  -1935201.81408  18657802.41708  18657802.49708
  -4412550.01508  -3438349.27708  17974476.97708  17974476.68208
 -15661000.93508 -12203376.22408  16051758.30208  16051759.13508
 93 04 16 11 38 00.0000000  0  8 01 25 12 28 21 23 31 11
 -24412680.85409 -19022857.88808  15154169.66909  15154169.41208
  -6428387.01708  -5009132.94908  16084085.10308  16084084.34708
   3534891.72307   2754462.77207  19338803.49307  19338804.47807
  -3904106.92208  -3042160.16208  18674377.12708  18674376.79008
 -22023740.64008 -17161347.78608  15889644.26108  15889644.22308
  -2235794.71908  -1742173.15208  18704942.08108  18704942.11908
  -4194003.03008  -3268052.95308  18016065.01808  18016064.85608
 -15535953.85808 -12105936.96508  16075553.99308  16075554.87608
 93 04 16 11 40 00.0000000  0  8 01 25 12 28 21 23 31 11
 -24261275.27809 -18904879.51408  15182981.17809  15182980.95608
  -6766414.33808  -5272530.83908  16019760.64708  16019759.93908
   3851395.35907   3001088.97007  19399032.13707  19399033.04107
  -3565656.26108  -2778432.40408  18738782.16808  18738781.85908
 -21877030.89408 -17047028.51108  15917562.21908  15917562.18408
  -1986182.39808  -1547670.10508  18752441.68708  18752441.85708
  -3971565.12708  -3094724.74608  18058393.62008  18058393.29208
 -15400977.55208 -12000760.64408  16101239.14708  16101240.00008
 93 04 16 11 42 00.0000000  0  8 01 25 12 28 21 23 31 11
 -24105748.16708 -18783689.55608  15212577.02408  15212576.76308
  -7098768.11208  -5531507.79508  15956515.80108  15956515.08508
   4174650.93207   3252976.44707  19460545.58307  19460546.65007
  -3227964.67108  -2515296.12708  18803042.56408  18803042.37808
 -21726302.41608 -16929577.75408  15946244.89908  15946244.86108
  -1734806.83408  -1351793.13308  18800277.00308  18800277.10408
  -3745144.00708  -2918292.73908  18101480.12208  18101479.92508
 -15256192.89008 -11887941.45208  16128790.76008  16128791.61308
 93 04 16 11 44 00.0000000  0  8 01 25 12 28 21 23 31 11
 -23946232.20808 -18659391.40308  15242931.87808  15242931.60108
  -7425364.00508  -5785998.08308  15894366.61108  15894365.90508
   4504461.89007   3509971.98606  19523306.52707  19523307.67006
  -2891570.92308  -2253171.15207  18867056.46508  18867055.98207
 -21571948.97008 -16809302.35408  15975617.37208  15975617.35208
  -1481451.56908  -1154373.60508  18848489.08508  18848489.12608
  -3515047.30408  -2738996.64108  18145266.08508  18145265.89408
 -15101752.96808 -11767598.67808  16158179.70608  16158180.57408
 93 04 16 11 46 00.0000000  0  8 01 25 12 28 21 23 31 11
 -23782312.50608 -18531661.76008  15274124.78908  15274124.51008
  -7746209.21908  -6036007.32208  15833311.81008  15833311.07708
   4840655.69806   3771941.17706  19587281.97506  19587282.94906
  -2556492.05907  -1992070.76307  18930819.94907  18930819.62507
 -21413781.28808 -16686054.81708  16005715.74208  16005715.68708
  -1226075.73808   -955379.51608  18897085.47608  18897085.61708
  -3281487.32108  -2557001.90408  18189711.13008  18189710.96208
 -14937791.08208 -11639836.18808  16189380.61708  16189381.53108
 93 04 16 11 48 00.0000000  0  7 01 25 28 21 23 31 11
 -23614441.85408 -18400853.45408  15306069.49708  15306069.19608
  -8060931.89108  -6281245.74908  15773421.98108  15773421.24408
  -2222884.87507  -1732117.16407  18994303.15407  18994303.03407
 -21251693.82708 -16559752.91308  16036559.90008  16036559.88208
   -969048.25008   -755098.42608  18945996.15008  18945996.38908
  -3044489.52508  -2372328.34507  18234810.39708  18234810.12807
 -14764474.66608 -11504784.45808  16222361.67408  16222362.58108
 93 04 16 11 50 00.0000000  0  7 28 01 25 21 23 31 11
  -1891010.55707  -1473513.84407  19057456.63607  19057456.39007
 -23443025.47008 -18267282.23908  15338688.97508  15338688.64408
  -8369275.90908  -6521513.79308  15714746.14808  15714745.39508
 -21085743.94108 -16430441.32008  16068139.15608  16068139.12508
   -710027.29208   -553263.99908  18995286.41408  18995286.59108
  -2804241.56308  -2185122.18707  18280528.11108  18280527.94107
 -14581947.36208 -11362555.41208  16257095.48108  16257096.36508
 93 04 16 11 52 00.0000000  0  8 15 28 01 25 21 23 31 11
        -0.17418         0.02318  16374418.26018  16374418.13718
  -1561093.67007  -1216435.73107  19120237.85407  19120237.45707
 -23267800.91408 -18130743.61908  15372033.10108  15372032.76008
  -8671299.00908  -6756856.44808  15657273.00408  15657272.29308
 -20916097.66408 -16298249.42508  16100421.75408  16100421.73308
   -448926.32908   -349808.77708  19044972.29408  19044972.34508
  -2560958.53708  -1995551.03507  18326823.30108  18326823.10907
 -14390382.06108 -11213283.77108  16293549.16008  16293550.05008
 93 04 16 11 54 00.0000000  0  8 15 28 01 25 21 23 31 11
   -331236.74608   -258106.39808  16311386.04408  16311385.92608
  -1232720.49607   -960560.59107  19182725.08907  19182724.81507
 -23089029.59508 -17991441.28308  15406052.09608  15406051.77608
  -8966816.99608  -6987130.18308  15601037.79208  15601037.06208
 -20742394.26508 -16162896.14208  16133476.40708  16133476.41908
   -185872.73108   -144832.03308  19095029.80108  19095029.99808
  -2315226.72608  -1804071.76607  18373584.57108  18373584.30607
 -14189958.58808 -11057109.66208  16331688.50508  16331689.43508
 93 04 16 11 56 00.0000000  0  8 15 28 01 25 21 23 31 11
   -656090.57908   -511239.24208  16249568.39708  16249568.26808
   -906762.30007   -706567.25007  19244752.84807  19244752.79807
 -22906757.18708 -17849410.82608  15440737.39108  15440737.10908
  -9255426.94608  -7212021.03308  15546117.15108  15546116.40808
 -20564935.61108 -16024616.68208  16167245.68008  16167245.65208
     79114.59808     61651.50808  19145455.21408  19145455.50908
  -2066908.45808  -1610577.06707  18420838.02408  18420837.85707
 -13980857.17508 -10894173.52408  16371479.18808  16371480.12508
 93 04 16 11 58 00.0000000  0  8 15 28 01 25 21 23 31 11
   -974387.18108   -759262.55908  16188998.57008  16188998.44108
   -583237.94007   -454470.39207  19306317.58307  19306317.44907
 -22721147.56008 -17704779.93608  15476057.76408  15476057.49208
  -9537746.32108  -7432010.13508  15492393.53808  15492392.78008
 -20383317.43408 -15883096.03808  16201806.50708  16201806.50108
    346227.78408    269791.53608  19196285.25508  19196285.62108
  -1816065.52908  -1415115.08607  18468571.82608  18468571.66607
 -13763262.69808 -10724619.41208  16412886.04108  16412887.00308
 93 04 16 12 00 00.0000000  0  8 15 28 01 25 21 23 31 11
  -1285947.87308  -1002037.11208  16129710.54008  16129710.37308
   -261860.18908   -204046.26607  19367473.88508  19367473.56007
 -22532544.32408 -17557816.37008  15511947.70308  15511947.43408
  -9813091.37108  -7646564.69708  15439997.11808  15439996.35508
 -20197749.08208 -15738497.33808  16237119.00808  16237119.02708
    615234.47308    479407.01308  19247475.63008  19247475.90108
  -1563003.13108  -1217923.64707  18516728.06308  18516727.95107
 -13537360.46708 -10548591.72408  16455873.80908  16455874.80608
 93 04 16 12 02 00.0000000  0  8 15 28 01 25 21 23 31 11
  -1590611.62008  -1239437.43208  16071734.93608  16071734.79208
     56776.05707     44241.74108  19428108.33207  19428108.18808
 -22340957.13208 -17408527.64108  15548405.52308  15548405.26308
 -10080697.07608  -7855088.59708  15389073.39808  15389072.65908
 -20007919.50008 -15590578.20608  16273242.34608  16273242.38208
    886063.29408    690442.33508  19299012.81208  19299013.14908
  -1307867.58208  -1019116.76107  18565278.77608  18565278.67007
 -13303354.97808 -10366249.81108  16500403.60408  16500404.60208
 93 04 16 12 04 00.0000000  0  8 15 28 01 25 21 23 31 11
  -1888212.25508  -1471334.02108  16015103.42308  16015103.29708
    372444.68707    290217.32607  19488178.19907  19488177.98407
 -22146135.86008 -17256718.85308  15585478.77008  15585478.57208
 -10341519.36908  -8058326.71908  15339440.55708  15339439.80208
 -19814132.14008 -15439575.09108  16310118.88408  16310118.93508
   1158865.12108    903015.03907  19350925.29708  19350925.70007
  -1051038.81208   -818990.53008  18614151.62008  18614151.54708
 -13061448.81808 -10177751.52708  16546436.82508  16546437.81308
 93 04 16 12 06 00.0000000  0  8 15 01 28 25 21 23 31 11
  -2178575.38408  -1697590.99408  15959849.15208  15959848.99708
 -21948365.12308 -17102611.78508  15623113.34608  15623113.07708
    685249.17808    533960.99907  19547702.77308  19547702.54207
 -10594788.50008  -8255679.26208  15291245.03608  15291244.25908
 -19616578.24508 -15285637.01608  16347712.14208  16347712.17408
   1433756.09407   1117215.61807  19403235.42407  19403235.76107
   -792485.77808   -617520.69308  18663352.70108  18663352.61508
 -12811838.12408  -9983249.70908  16593936.18508  16593937.18808
 93 04 16 12 08 00.0000000  0  7 15 28 01 25 21 31 11
  -2461546.23008  -1918087.75208  15906001.57208  15906001.46208
    994724.44708    775110.48407  19606594.11708  19606593.82307
 -21748045.54608 -16946518.60808  15661232.79808  15661232.58508
 -10840393.81608  -8447060.00008  15244507.85208  15244507.10208
 -19414895.98008 -15128482.04308  16386091.03908  16386091.03008
   -532398.03708   -414854.95508  18712845.79808  18712845.69008
 -12554741.12708  -9782914.40708  16642860.10808  16642861.10708
 93 04 16 12 10 00.0000000  0  8 15 01 28 25 21 14 31 11
  -2736970.07908  -2132703.73608  15853590.16008  15853590.02908
 -21545062.07408 -16788349.66908  15699859.30308  15699859.10608
   1301017.33807   1013780.25507  19664879.58207  19664879.44307
 -11078440.04808  -8632550.54108  15199209.18208  15199208.39908
 -19209406.16408 -14968360.13508  16425194.47708  16425194.52208
         0.29218         0.35518  19223745.14618  19223745.58318
   -271378.16208   -211462.88008  18762516.24008  18762516.21408
 -12290377.90208  -9576917.11208  16693166.77308  16693167.79908
 93 04 16 12 12 00.0000000  0  8 15 01 28 25 21 14 31 11
  -3004685.53508  -2341313.18508  15802645.59308  15802645.45808
 -21339348.79108 -16628053.60508  15739005.25808  15739005.02108
   1603755.02107   1249679.68607  19722488.81907  19722488.60807
 -11308812.29708  -8812061.35408  15155370.74808  15155369.98408
 -18999713.05308 -14804962.94208  16465097.79808  16465097.78208
   -355740.85008   -277200.44708  19156049.92008  19156050.18008
     -9292.98508     -7240.70808  18812389.48008  18812389.31608
 -12018960.29808  -9365422.90008  16744815.82708  16744816.87208
 93 04 16 12 14 00.0000000  0  8 15 01 25 28 21 14 31 11
  -3264533.87608  -2543792.41308  15753198.11808  15753197.95108
 -21131078.26608 -16465764.88408  15778637.74608  15778637.54008
 -11531486.50308  -8985573.68608  15112997.23008  15112996.45708
   1903017.47407   1482871.10807  19779436.70107  19779436.64607
 -18785688.84508 -14638190.87408  16505825.28508  16505825.33508
   -712727.49108   -555371.75908  19088117.53208  19088117.94508
    253984.64308    197910.68308  18862489.47508  18862489.51908
 -11740704.75608  -9148600.42408  16797766.13108  16797767.15308
 93 04 16 12 16 00.0000000  0  8 15 01 25 28 21 14 31 11
  -3516384.53008  -2740039.67208  15705272.53808  15705272.36808
 -20920794.95108 -16301907.75008  15818653.37408  15818653.11708
 -11746180.20808  -9152867.44708  15072142.37008  15072141.58708
   2198707.46607   1713278.79707  19835704.53307  19835704.57407
 -18567646.53008 -14468287.82108  16547317.37408  16547317.43408
  -1070704.08308   -834314.50608  19019996.82108  19019997.11008
    517868.32708    403534.30807  18912704.98108  18912704.72707
 -11455854.94308  -8926639.55908  16851971.23208  16851972.25808
 93 04 16 12 18 00.0000000  0  8 15 01 25 28 21 14 31 11
  -3760077.88108  -2929930.59308  15658899.24208  15658899.06408
 -20708161.84908 -16136219.62808  15859116.10808  15859115.90908
 -11952657.53108  -9313758.82908  15032851.02208  15032850.22308
   2490486.19307   1940638.75906  19891228.41707  19891228.19806
 -18345310.92008 -14295039.34608  16589626.45208  16589626.54108
  -1429913.23908  -1114217.70308  18951641.49708  18951641.83808
    781997.95607    609349.59608  18962967.06107  18962967.13408
 -11164625.89508  -8699707.85408  16907390.31108  16907391.34608
 93 04 16 12 20 00.0000000  0  7 15 01 21 14 31 25 11
  -3995472.13708  -3113354.69008  15614105.19408  15614105.02908
 -20493381.24008 -15968858.11908  15899987.50808  15899987.29308
 -18119298.05208 -14118925.48408  16632635.31908  16632635.43108
  -1790310.19808  -1395046.43908  18883060.18808  18883060.56008
   1046807.47107    815694.64408  19013358.77707  19013358.70908
 -12151125.86308  -9468409.43908  14995083.69708  14995082.89808
 -10867247.67208  -8467984.59408  16963979.52808  16963980.58008
 93 04 16 12 22 00.0000000  0  8 15 01 21 20 14 25 31 11
  -4222429.61008  -3290204.66608  15570916.62408  15570916.47808
 -20276386.42708 -15799771.26608  15941280.27908  15941280.02808
 -17889245.09208 -13939663.48908  16676412.98308  16676413.09008
        -0.34817        -0.81917  19184227.25117  19184227.86517
  -2151357.64808  -1676382.05708  18814355.16008  18814355.48608
 -12341264.04808  -9616569.02508  14958901.58508  14958900.75608
   1311598.57407   1022025.37007  19063746.87107  19063746.76507
 -10563952.86308  -8231651.00808  17021694.65308  17021695.69308
 93 04 16 12 24 00.0000000  0  8 15 01 21 20 14 25 31 11
  -4440819.11008  -3460378.30508  15529358.47508  15529358.30608
 -20057439.28308 -15629163.11108  15982944.53808  15982944.30508
 -17654547.04208 -13756781.95008  16721074.57708  16721074.69508
   -129557.60507   -100954.59807  19159573.39807  19159574.10607
  -2513727.17708  -1958747.85808  18745398.46908  18745398.81908
 -12522839.61908  -9758056.44208  14924348.86208  14924348.04408
   1576326.47807   1228306.83008  19114122.80307  19114122.87808
 -10254979.28708  -7990892.40808  17080490.39508  17080491.44208
 93 04 16 12 26 00.0000000  0  8 15 01 20 21 25 14 31 11
  -4650521.13708  -3623782.48408  15489453.49608  15489453.37508
 -19836561.87808 -15457050.87008  16024976.14208  16024975.89608
   -252571.66407   -196809.80907  19136164.61507  19136165.22507
 -17416058.00908 -13570946.40408  16766457.62808  16766457.78008
 -12695976.64908  -9892968.37508  14891401.96308  14891401.11408
  -2877005.52708  -2241821.85108  18676268.91208  18676269.09108
   1841044.96307   1434580.95708  19164497.13907  19164497.09008
  -9940574.48208  -7745901.68408  17140319.67108  17140320.72708
 93 04 16 12 28 00.0000000  0  8 15 20 01 21 25 14 31 11
  -4851415.58908  -3780323.61908  15451224.55708  15451224.40808
   -368917.07807   -287468.70407  19114024.91907  19114025.62507
 -19614023.15008 -15283644.08708  16067323.86108  16067323.60608
 -17173616.70108 -13382031.16608  16812592.72808  16812592.85808
 -12860628.31108 -10021268.33408  14860069.76608  14860068.89808
  -3241368.23508  -2525740.78808  18606932.84608  18606933.07508
   2105337.95307   1640523.53408  19214790.40507  19214790.53208
  -9620978.89508  -7496866.19008  17201136.68808  17201137.77408
 93 04 16 12 30 00.0000000  0  8 15 01 20 21 25 14 31 11
  -5043383.73808  -3929909.19208  15414694.24508  15414694.07808
 -19389787.54508 -15108915.06608  16109994.48208  16109994.25808
   -478472.01207   -372836.25707  19093177.27907  19093178.09307
 -16926779.22008 -13189690.34408  16859564.35908  16859564.53408
 -13016840.05708 -10142991.73608  14830343.67608  14830342.77008
  -3606302.99108  -2810105.46308  18537488.17808  18537488.32108
   2368862.79007   1845867.52208  19264937.69807  19264937.53708
  -9296434.42408  -7243974.42208  17262895.46308  17262896.55608
 93 04 16 12 32 00.0000000  0  8 15 01 20 21 25 14 31 11
  -5226309.68808  -4072448.89708  15379884.57508  15379884.46908
 -19163903.74208 -14932901.74208  16152978.76708  16152978.54008
   -581116.60007   -452819.18907  19073644.81907  19073645.55107
 -16675960.41408 -12994247.20508  16907293.62408  16907293.79908
 -13164415.70709 -10257985.71308  14802260.93909  14802260.05108
  -3971987.39408  -3095054.26608  18467900.55908  18467900.75008
   2631544.23007   2050554.37707  19314924.08307  19314924.14107
  -8967179.62408  -6987412.26308  17325550.58408  17325551.69008
 93 04 16 12 34 00.0000000  0  8 15 01 20 21 25 14 31 11
  -5400096.98008  -4207867.56808  15346813.97508  15346813.82408
 -18936633.83008 -14755808.33508  16196226.82608  16196226.60608
   -676750.27707   -527339.06907  19055446.41807  19055447.20907
 -16421214.00208 -12795743.59608  16955770.36408  16955770.53408
 -13303167.42109 -10366103.90208  14775857.30709  14775856.40408
  -4338706.68708  -3380809.50608  18398116.19208  18398116.36708
   2893418.50607   2254612.21507  19364757.24507  19364757.20107
  -8633470.34708  -6727379.10808  17389053.36708  17389054.49908
 93 04 16 12 36 00.0000000  0  8 15 01 20 21 25 14 31 11
  -5564640.26608  -4336083.12308  15315502.41608  15315502.27108
 -18707802.68908 -14577498.39308  16239771.96608  16239771.70708
   -765260.85207   -596308.47207  19038603.46307  19038604.35307
 -16162110.22408 -12593844.65408  17005076.23508  17005076.44608
 -13433248.22709 -10467465.54208  14751103.69809  14751102.81508
  -4705907.75108  -3666940.15808  18328240.20908  18328240.31308
   3154324.78107   2457915.79907  19414406.06507  19414406.05607
  -8295546.68608  -6464062.00508  17453358.19008  17453359.23408
 93 04 16 12 38 00.0000000  0  8 15 01 20 21 25 14 31 11
  -5719841.55208  -4457019.19608  15285968.61008  15285968.46308
 -18477588.51308 -14398110.76708  16283580.27308  16283580.04508
   -846545.04207   -659646.88307  19023135.77407  19023136.50507
 -15899086.73608 -12388891.40008  17055128.06208  17055128.28908
 -13554803.62909 -10562184.01708  14727972.49509  14727971.59508
  -5073773.68408  -3953588.87008  18258237.65108  18258237.61508
   3413728.13507   2660048.24407  19463768.89207  19463768.94307
  -7953652.34908  -6197650.86308  17518418.44008  17518419.63808
 93 04 16 12 40 00.0000000  0  8 15 01 20 21 25 14 31 11
  -5865624.97308  -4570616.67908  15258226.94908  15258226.81908
 -18246231.36608 -14217832.52208  16327606.13908  16327605.92008
   -920518.15907   -717288.32507  19009059.08007  19009060.07107
 -15632108.44408 -12180856.48708  17105932.37008  17105932.63008
 -13667216.16909 -10649778.18908  14706581.07409  14706580.19408
  -5442400.03308  -4240830.13908  18188090.20608  18188090.34808
   3671821.85407   2861160.20107  19512882.48307  19512882.54207
  -7608045.57008  -5928346.90108  17584185.24208  17584186.44408
 93 04 16 12 42 00.0000000  0  8 15 01 20 25 21 14 31 11
  -6001899.94008  -4676804.97308  15232294.69008  15232294.56808
 -18013546.19608 -14036519.46208  16371884.69408  16371884.50308
   -987080.83307   -769155.42507  18996392.89007  18996393.60807
 -13770819.70709 -10730508.20808  14686865.99609  14686865.08008
 -15361171.10908 -11969736.62408  17157490.16008  17157490.46008
  -5811594.02108  -4528513.70808  18117834.84608  18117834.93008
   3928373.16207   3061070.22807  19561702.77607  19561702.76707
  -7258965.84308  -5656336.77208  17650612.99308  17650614.12008
 93 04 16 12 44 00.0000000  0  8 15 01 20 25 21 14 31 11
  -6128584.99808  -4775520.61408  15208187.34708  15208187.22008
 -17779548.10308 -13854183.35408  16416413.09508  16416412.88608
  -1046142.32107   -815177.52507  18985153.92507  18985154.78107
 -13865437.71509 -10804236.52408  14668860.79009  14668859.89108
 -15086081.97208 -11755381.60308  17209838.01708  17209838.37608
  -6181160.45508  -4816487.49308  18047508.62008  18047508.84808
   4183047.07907   3259517.38307  19610165.54307  19610165.70107
  -6906655.14208  -5381808.99208  17717655.52108  17717656.63608
 93 04 16 12 46 00.0000000  0  8 15 01 20 25 21 14 31 11
  -6245619.87608  -4866716.63008  15185916.34408  15185916.22908
 -17544652.02508 -13671147.52608  16461112.39308  16461112.24708
  -1097630.50807   -855298.35107  18975356.17407  18975357.10907
 -13951173.39809 -10871043.55108  14652545.82509  14652544.92908
 -14807154.66808 -11538035.82708  17262916.21508  17262916.71308
  -6551189.75908  -5104821.97808  17977094.46608  17977094.45708
   4435737.16807   3456418.70507  19658250.89607  19658250.81007
  -6551369.67808  -5104963.20808  17785264.14608  17785265.31508
 93 04 16 12 48 00.0000000  0  8 15 01 20 25 21 14 31 11
  -6352936.93708  -4950340.33108  15165494.61608  15165494.50008
 -17308808.69608 -13487373.59508  16505991.94108  16505991.81708
  -1141464.48807   -889454.89207  18967014.91107  18967015.96907
 -14028135.38209 -10931013.93208  14637900.44109  14637899.56008
 -14523981.46508 -11317381.56508  17316802.47708  17316802.89108
  -6921433.04508  -5393323.19208  17906639.53308  17906639.57208
   4686346.55407   3651698.67307  19705940.25507  19705940.39807
  -6193350.63408  -4825987.38108  17853392.86608  17853394.15808
 93 04 16 12 50 00.0000000  0  8 15 01 20 25 21 14 31 11
  -6450476.27908  -5026345.02808  15146933.48508  15146933.39608
 -17071892.21508 -13302763.44908  16551075.73308  16551075.63008
  -1177574.09207   -917592.41707  18960143.71807  18960144.65607
 -14096018.45909 -10983909.84708  14624982.70309  14624981.80408
 -14237127.37708 -11093859.08608  17371389.03108  17371389.53808
  -7292165.35308  -5682205.48208  17836091.47308  17836091.54908
   4934675.13107   3845201.40307  19753195.85407  19753195.77007
  -5832841.24208  -4545070.99908  17921995.59308  17921996.86508
 93 04 16 12 52 00.0000000  0  8 15 01 20 25 21 14 31 11
  -6538191.50108  -5094694.57008  15130241.84508  15130241.75508
 -16834185.20508 -13117537.31908  16596309.97008  16596309.85508
  -1205895.95507   -939661.52607  18954754.26307  18954755.30707
 -14154877.06109 -11029773.71408  14613782.33709  14613781.44108
 -13946269.32708 -10867216.64908  17426737.67608  17426738.23308
  -7662932.20708  -5971114.69808  17765536.82908  17765536.90608
   5180702.66407   4036911.06807  19800013.29307  19800013.48107
  -5470089.65508  -4262407.46508  17991024.97008  17991026.15008
 93 04 16 12 54 00.0000000  0  7 15 01 20 25 21 14 11
  -6616040.44308  -5155356.10608  15115427.72608  15115427.61808
 -16595837.67808 -12931812.09108  16641666.06208  16641666.03308
  -1226372.19207   -955617.22307  18950857.92707  18950859.02607
 -14204942.84109 -11068786.03408  14604255.17609  14604254.27108
 -13651538.87908 -10637556.78908  17482823.05708  17482823.78208
  -8033613.39908  -6259957.15908  17694998.52908  17694998.66408
  -5105339.87308  -3978186.88308  18060434.60108  18060435.79308
 93 04 16 12 56 00.0000000  0  8 15 01 20 25 21 14 29 11
  -6683984.52108  -5208299.56608  15102498.39608  15102498.31708
 -16356581.03508 -12745378.46608  16687195.22408  16687195.18008
  -1238945.98307   -965415.16407  18948465.35707  18948466.45307
 -14245890.22409 -11100693.11608  14596463.13409  14596462.25408
 -13353030.62408 -10404953.18108  17539627.55608  17539628.23608
  -8404451.93308  -6548922.23008  17624430.28108  17624430.51108
        -0.95418        -0.87718  18049128.18418  18049127.74118
  -4738832.09208  -3692596.45608  18130178.68708  18130179.92908
 93 04 16 12 58 00.0000000  0  8 15 01 20 25 21 14 29 11
  -6742007.60908  -5253512.39408  15091456.98408  15091456.90908
 -16116524.52108 -12558321.56908  16732876.49808  16732876.50908
  -1243583.18207   -969028.77407  18947583.03107  18947584.29907
 -14277850.05809 -11125596.91908  14590381.45409  14590380.57508
 -13050880.16708 -10169511.50508  17597125.07408  17597125.80708
  -8775318.84008  -6837909.43508  17553856.70608  17553856.77508
   -281419.44108   -219287.93908  17995575.96208  17995575.48208
  -4370821.23108  -3405834.79208  18200208.95108  18200210.12308
 93 04 16 13 00 00.0000000  0  8 15 20 01 25 21 14 29 11
  -6790074.35108  -5290967.03208  15082310.22408  15082310.15208
  -1240228.40707   -966414.87307  18948221.65207  18948222.88507
 -15876020.49708 -12370915.97208  16778642.99808  16778643.01908
 -14301057.49309 -11143680.68108  14585965.24309  14585964.36508
 -12744970.99208  -9931140.96908  17655337.89408  17655338.62208
  -9146104.38508  -7126833.22808  17483298.57308  17483298.58108
   -560312.90908   -436607.47308  17942504.30708  17942503.77808
  -4001534.31708  -3118078.80808  18270481.95908  18270483.12308
 93 04 16 13 02 00.0000000  0  8 15 20 01 25 21 14 29 11
  -6828177.07808  -5320657.50408  15075059.55008  15075059.48508
  -1228851.67807   -957550.08407  18950386.68407  18950387.88807
 -15634918.47608 -12183044.40908  16824523.30708  16824523.37108
 -14315403.06209 -11154859.09808  14583235.38309  14583234.54008
 -12434975.15108  -9689586.04608  17714328.31708  17714329.16808
  -9516596.87708  -7415528.68708  17412796.24408  17412796.24608
   -837245.47408   -652399.03008  17889805.75808  17889805.23208
  -3631215.89408  -2829519.03608  18340951.22908  18340952.51908
 93 04 16 13 04 00.0000000  0  8 15 20 01 25 21 14 29 11
  -6856297.46208  -5342569.53508  15069708.44608  15069708.39608
  -1209411.21707   -942401.82307  18954086.16907  18954087.59007
 -15393465.97508 -11994899.75508  16870470.31808  16870470.43308
 -14321019.52409 -11159235.61408  14582166.66909  14582165.82708
 -12121416.42208  -9445254.84608  17773996.72308  17773997.67508
  -9886851.56308  -7704038.83408  17342339.18508  17342339.11308
  -1111954.94408   -866458.32208  17837530.28008  17837529.69608
  -3260092.13108  -2540331.74007  18411573.80808  18411574.99407
 93 04 16 13 06 00.0000000  0  8 15 20 01 25 21 14 29 11
  -6874453.30308  -5356716.99308  15066253.54908  15066253.50908
  -1181899.76007   -920964.44507  18959321.41107  18959322.82107
 -15151207.31308 -11806126.93108  16916570.71208  16916570.87208
 -14317677.71309 -11156631.66008  14582802.63309  14582801.80708
 -11804195.64908  -9198070.13508  17834362.06208  17834363.04008
 -10256687.00708  -7992222.31508  17271961.57108  17271961.69908
  -1384252.94408  -1078638.55308  17785713.65608  17785713.14208
  -2888415.42508  -2250713.54107  18482301.46208  18482302.71707
 93 04 16 13 08 00.0000000  0  8 15 20 01 25 21 14 29 11
  -6882661.43808  -5363112.99508  15064691.63008  15064691.61508
  -1146309.64807   -893231.99307  18966094.18307  18966095.54107
 -14908289.54408 -11616840.52108  16962796.56808  16962796.80508
 -14305475.47809 -11147123.48308  14585124.69909  14585123.89108
 -11483398.51408  -8948098.66208  17895408.03408  17895409.07508
 -10625798.00708  -8279841.29708  17201722.16408  17201722.31308
  -1654753.42908  -1289418.13308  17734239.10308  17734238.59508
  -2516429.85207  -1960854.74607  18553087.97107  18553089.30407
 93 04 16 13 10 00.0000000  0  8 15 20 01 25 21 14 29 11
  -6880932.84708  -5361766.09408  15065020.61008  15065020.59108
  -1102621.52807   -859189.46007  18974407.88107  18974409.23807
 -14665129.49708 -11427365.32308  17009068.52108  17009068.73908
 -14284571.05209 -11130834.38308  14589102.71309  14589101.91608
 -11159182.60608  -8695463.19808  17957104.52108  17957105.52908
 -10994365.20908  -8567036.54008  17131586.21008  17131586.43508
  -1923125.30508  -1498539.06508  17683169.64008  17683169.03308
  -2144361.70907  -1670931.58207  18623890.16807  18623891.58907
 93 04 16 13 12 00.0000000  0  8 15 20 01 25 21 14 29 11
  -6869274.03708  -5352681.36408  15067239.24108  15067239.25608
  -1050815.48707   -818821.29907  18984266.36507  18984267.91007
 -14421928.10608 -11237857.90308  17055348.31808  17055348.59808
 -14255009.12309 -11107799.17708  14594728.20609  14594727.44108
 -10831523.84908  -8440145.01908  18019456.12608  18019457.31508
 -11362086.34808  -8853572.53508  17061611.26808  17061611.45708
  -2189455.68908  -1706069.23608  17632488.61508  17632488.11708
  -1772425.00307  -1381110.82607  18694667.45607  18694668.81507
 93 04 16 13 14 00.0000000  0  8 15 20 01 25 21 14 29 11
  -6847730.89308  -5335894.55808  15071338.81508  15071338.86208
   -990908.84107   -772141.02507  18995666.37807  18995668.05107
 -14178269.52408 -11047994.24408  17101715.06608  17101715.44708
 -14216816.87009 -11078039.05108  14601996.01409  14601995.26408
 -10500210.44508  -8181979.09208  18082503.19608  18082504.47408
 -11729242.75708  -9139668.49208  16991743.81308  16991743.93008
  -2453655.18108  -1911938.97008  17582213.13308  17582212.63708
  -1400863.25007  -1091582.26207  18765373.43607  18765374.76607
 93 04 16 13 16 00.0000000  0  8 15 20 01 25 21 14 29 11
  -6816349.92008  -5311441.92208  15077310.47108  15077310.52208
   -922913.51807   -719157.88007  19008605.63007  19008607.21407
 -13934112.54508 -10857742.23508  17148176.78408  17148177.21808
 -14170220.59409 -11041730.34008  14610863.00909  14610862.29708
 -10165695.82408  -7921318.71508  18146159.62108  18146160.85808
 -12095351.80508  -9424948.31208  16922075.62608  16922075.64408
  -2715629.29608  -2116074.66208  17532361.15308  17532360.63508
  -1029910.91707   -802528.58207  18835963.48307  18835964.69207
 93 04 16 13 18 00.0000000  0  8 15 20 01 25 21 14 29 11
  -6775160.81508  -5279346.58408  15085148.55108  15085148.60308
   -846826.42007   -659869.46307  19023084.69007  19023086.43307
 -13689873.50808 -10667426.28608  17194654.05908  17194654.50008
 -14115001.59809 -10998702.62908  14621370.89309  14621370.21708
  -9827904.97208  -7658105.44208  18210439.31608  18210440.74408
 -12460651.40808  -9709597.39108  16852561.47708  16852561.48408
  -2975819.10108  -2318819.99708  17482848.66908  17482848.17508
   -659775.12307   -514111.12807  18906397.94207  18906399.27807
 93 04 16 13 20 00.0000000  0  8 15 20 01 25 21 14 29 11
  -6724213.24108  -5239647.24208  15094843.60908  15094843.69408
   -762662.92407   -594287.72807  19039100.59407  19039102.36107
 -13445368.28908 -10476902.92908  17241182.03808  17241182.50708
 -14051379.81909 -10949127.29308  14633477.79809  14633477.11908
  -9486567.45408  -7392128.55008  18275393.97608  18275395.46708
 -12824726.07408  -9993291.98208  16783280.30908  16783280.42508
  -3233958.42208  -2519967.56908  17433726.42108  17433725.91008
   -290673.82007   -226499.75507  18976635.61207  18976637.08107
 93 04 16 13 22 00.0000000  0  8 15 20 01 25 21 14 29 11
  -6663582.72508  -5192402.75308  15106381.25008  15106381.35908
   -670463.31907   -522444.09507  19056645.87707  19056647.66907
 -13200750.51908 -10286291.87508  17287731.33408  17287731.88008
 -13979456.40509 -10893083.14208  14647164.40909  14647163.73008
  -9142114.84208  -7123724.33108  18340941.42708  18340943.03208
 -13187544.82108 -10276007.94008  16714238.17508  16714238.38908
  -3489857.83708  -2719369.74008  17385030.43108  17385029.92008
     77157.54507     60122.02207  19046631.57507  19046633.02807
 93 04 16 13 24 00.0000000  0  8 15 20 01 25 21 14 29 11
  -6593313.30208  -5137647.43908  15119753.14108  15119753.26108
   -570234.87907   -444344.23307  19075718.91207  19075720.60207
 -12955820.10008 -10095437.20608  17334340.16108  17334340.75508
 -13899444.60409 -10830736.35508  14662390.22309  14662389.56208
  -8794548.72108  -6852893.96007  18407081.43908  18407083.07907
 -13548914.78808 -10557594.97708  16645471.90608  16645472.16908
  -3744135.05208  -2917507.86708  17336643.16308  17336642.60608
    443526.96107    345604.64107  19116349.42707  19116350.76607
 93 04 16 13 26 00.0000000  0  8 15 20 01 25 21 14 29 11
  -6513476.21108  -5075436.80208  15134945.71208  15134945.83108
   -462009.55807   -360013.00607  19096313.54707  19096315.40907
 -12710861.94808  -9904560.93208  17380954.34208  17380954.99508
 -13811008.98809 -10761825.56508  14679218.99709  14679218.37808
  -8443954.96907  -6579704.46907  18473797.44307  18473799.30707
 -13909039.61808 -10838211.78108  16576942.44708  16576942.61708
  -3996445.74208  -3114113.64008  17288630.01308  17288629.53108
    808225.14107    629784.91907  19185749.20707  19185750.60407
 93 04 16 13 28 00.0000000  0  8 15 14 20 01 25 21 29 11
  -6424159.40108  -5005839.37208  15151942.19808  15151942.33708
 -14267404.24808 -11117457.00808  16508747.95708  16508748.10808
   -345838.37107   -269490.18207  19118420.39907  19118422.35207
 -12465853.99108  -9713645.86408  17427578.01208  17427578.67308
 -13714378.37209 -10686529.05708  14697607.27109  14697606.65608
  -8090316.16707  -6304142.24507  18541093.14907  18541094.84207
  -4246701.26808  -3309117.99808  17241008.01108  17241007.57208
   1171033.28607    912492.47907  19254789.56807  19254790.90507
 93 04 16 13 30 00.0000000  0  8 15 14 01 20 25 21 29 11
  -6325471.69508  -4928939.94908  15170721.90608  15170722.10508
 -14623929.68708 -11395269.09008  16440903.48608  16440903.71708
 -12220644.61208  -9522573.85008  17474239.99508  17474240.63608
   -221785.61007   -172825.87407  19142026.86407  19142028.88907
 -13609996.71509 -10605192.77408  14717470.40509  14717469.80808
  -7733584.28307  -6026169.77907  18608976.92607  18608979.26507
  -4495112.27408  -3502685.07208  17193737.03108  17193736.53408
   1531725.15707   1193551.06107  19323426.80707  19323428.23207
 93 04 16 13 32 00.0000000  0  6 15 14 20 01 25 29
  -6217495.21808  -4844802.52008  15191269.21008  15191269.38608
 -14978642.23008 -11671668.54708  16373403.93108  16373404.18108
    -89893.20207    -70052.74507  19167125.38607  19167127.26707
 -11975513.86608  -9331563.11308  17520886.94808  17520887.74808
 -13497898.03709 -10517843.23008  14738802.20509  14738801.60608
  -4741546.52108  -3694711.82008  17146842.18408  17146841.74508
 93 04 16 13 34 00.0000000  0  7 15 14 20 01 22 29 25
  -6100324.32608  -4753500.62308  15213566.17508  15213566.38608
 -15331326.48508 -11946487.48708  16306290.47808  16306290.77108
     49787.98707     38789.53707  19193706.06207  19193707.94707
 -11730282.34008  -9140473.83908  17567553.12908  17567553.93508
        -0.75418        -0.66718  17662546.63318  17662547.38318
  -4986401.92608  -3885508.29908  17100247.75808  17100247.30108
 -13378217.16809 -10424585.49608  14761576.77109  14761576.21108
 93 04 16 13 36 00.0000000  0  7 15 14 20 01 22 25 29
  -5974079.38408  -4655128.04008  15237589.85108  15237590.08708
 -15682040.59308 -12219771.27208  16239551.82308  16239551.94508
    197178.87107    153639.34207  19221753.67407  19221755.74907
 -11484974.05208  -8949324.76508  17614233.91708  17614234.80408
   -372120.15108   -289963.90408  17591734.65808  17591735.62208
 -13250641.15009 -10325175.70108  14785853.74509  14785853.23108
  -5229310.87808  -4074788.04908  17054023.78608  17054023.33708
 93 04 16 13 38 00.0000000  0  8 15 14 20 01 22 25 29 21
  -5838875.07208  -4549774.13408  15263318.45108  15263318.72008
 -16030705.40808 -12491458.20008  16173203.11308  16173203.46908
    352212.23806    274444.32806  19251255.74106  19251257.92606
 -11239401.38708  -8757969.67808  17660965.01708  17660965.94808
   -742707.75008   -578733.51808  17521214.30608  17521215.08108
 -13115317.16009 -10219728.52708  14811605.14709  14811604.64608
  -5470360.52808  -4262618.98608  17008153.54108  17008153.17708
        -0.78317        -0.15316  18885754.40717  18885756.78416
 93 04 16 13 40 00.0000000  0  7 15 01 22 20 14 29 25
  -5694804.47808  -4437511.44108  15290734.27408  15290734.54608
 -10993927.37408  -8566691.45208  17707677.35408  17707678.33508
  -1111535.85008   -866132.08408  17451028.61608  17451029.45908
    514839.39507    401166.50906  19282202.96207  19282205.05006
 -16376900.29308 -12761220.49908  16107324.50708  16107324.81008
  -5709732.47508  -4449142.62708  16962602.62208  16962602.29008
 -12972810.50609 -10108684.46908  14838723.31909  14838722.82008
 93 04 16 13 42 00.0000000  0  6 15 01 22 14 29 25
  -5541984.69408  -4318431.19908  15319814.98508  15319815.30308
 -10748631.79308  -8375552.28308  17754355.73808  17754356.83808
  -1478392.11808  -1151994.18608  17381218.23408  17381219.20408
 -16720264.63708 -13028777.19308  16041984.44808  16041984.75708
  -5947448.54408  -4634375.97408  16917366.80608  16917366.49008
 -12823053.64709  -9991990.89508  14867221.13309  14867220.69008
 93 04 16 13 44 00.0000000  0  6 15 01 22 14 29 25
  -5380556.10608  -4192642.80208  15350533.90908  15350534.26108
 -10503168.55408  -8184282.48308  17801066.06608  17801067.16608
  -1843082.99308  -1436168.95408  17311819.88308  17311820.76908
 -17061121.59408 -13294380.07808  15977121.53408  15977121.92008
  -6183411.66408  -4818243.37908  16872464.55408  16872464.19908
 -12666257.46609  -9869812.13208  14897058.53909  14897058.08108
 93 04 16 13 46 00.0000000  0  6 15 01 22 14 29 25
  -5210655.10008  -4060252.52808  15382865.08808  15382865.46608
 -10257783.23508  -7993073.41408  17847761.54408  17847762.70008
  -2205403.79908  -1718496.90108  17242872.63708  17242873.46608
 -17399271.58008 -13557873.61108  15912773.78208  15912774.13508
  -6417641.60408  -5000760.26908  16827892.13208  16827891.74308
 -12502359.89809  -9742099.83508  14928247.21209  14928246.82208
 93 04 16 13 48 00.0000000  0  6 15 01 22 14 29 25
  -5032419.77208  -3921367.97908  15416782.21708  15416782.65908
 -10012367.37808  -7801840.54708  17894462.74908  17894463.97908
  -2565144.61308  -1998814.43608  17174416.17608  17174417.21808
 -17734353.86808 -13818976.74108  15849009.80108  15849010.16208
  -6650082.27408  -5181882.92408  16783660.22508  16783659.87508
 -12331379.81609  -9608868.70508  14960783.61409  14960783.19008
 93 04 16 13 50 00.0000000  0  6 15 01 25 22 14 29
  -4846003.95808  -3776109.03108  15452256.07108  15452256.52608
  -9767015.09008  -7610657.24008  17941152.00708  17941153.34108
 -12153564.01809  -9470311.04408  14994621.07509  14994620.73408
  -2922109.06008  -2276968.56608  17106488.20008  17106489.12208
 -18066627.20608 -14077891.07808  15785780.33908  15785780.71608
  -6880851.23908  -5361702.93308  16739746.27908  16739746.03108
 93 04 16 13 52 00.0000000  0  6 15 01 25 22 14 29
  -4651547.65208  -3624584.76808  15489259.97508  15489260.46208
  -9521773.61308  -7419560.28308  17987820.10608  17987821.50008
 -11968922.29309  -9326434.48108  15029757.33609  15029756.97208
  -3276079.11908  -2552789.39608  17039129.91708  17039130.78308
 -18395303.06808 -14334002.19508  15723235.41908  15723235.81808
  -7110000.76808  -5540261.05008  16696140.64708  16696140.33708
 93 04 16 13 54 00.0000000  0  6 15 01 25 22 14 29
  -4449193.73008  -3466906.52008  15527766.75108  15527767.26408
  -9276586.25008  -7228505.49308  18034477.91208  18034479.33808
 -11778083.67708  -9177729.17108  15066072.79608  15066072.47008
  -3626835.34608  -2826105.94108  16972383.15908  16972384.08608
 -18720411.96408 -14587333.86008  15661369.31808  15661369.71008
  -7337655.87908  -5717654.68508  16652819.31308  16652819.05808
 93 04 16 13 56 00.0000000  0  6 15 01 25 22 14 29
  -4239088.58808  -3303188.35808  15567748.52108  15567749.09808
  -9031219.77308  -7037311.12008  18081169.87408  18081171.35808
 -11580744.28308  -9023958.31108  15103625.28708  15103624.99308
  -3974160.11708  -3096748.62208  16906289.48608  16906290.50208
 -19042253.77008 -14838119.72608  15600124.90108  15600125.28108
  -7563572.03308  -5893693.29808  16609828.93008  16609828.73008
 93 04 16 13 58 00.0000000  0  6 15 01 25 22 14 29
  -4021374.22808  -3133540.94108  15609178.27008  15609178.88908
  -8785610.69508  -6845927.71608  18127907.94408  18127909.49608
 -11376956.21908  -8865162.51708  15142404.99608  15142404.69308
  -4317823.31508  -3364538.12108  16840892.56308  16840893.40508
 -19360753.41808 -15086301.32408  15539516.47508  15539516.89508
  -7787852.86108  -6068457.62808  16567149.84708  16567149.55508
 93 04 16 14 00 00.0000000  0  6 15 01 25 22 14 29
  -3796199.29908  -2958080.09008  15652027.74408  15652028.37908
  -8540081.03908  -6654606.19808  18174630.97508  18174632.62208
 -11167142.81108  -8701671.65108  15182331.18808  15182330.96808
  -4657599.94308  -3629299.09408  16776235.25008  16776236.16608
 -19674976.93408 -15331150.86808  15479721.76508  15479722.20508
  -8010605.86608  -6242031.45008  16524761.32308  16524761.09208
 93 04 16 14 02 00.0000000  0  6 15 01 25 22 14 29
  -3563732.48208  -2776937.25408  15696264.82108  15696265.48708
  -8294628.92408  -6463345.10808  18221339.05508  18221340.85408
 -10951244.27508  -8533439.14108  15223415.37608  15223415.17008
  -4993281.48108  -3890869.09408  16712357.08008  16712358.08008
 -19985038.83508 -15572757.58208  15420718.98108  15420719.44708
  -8231591.24008  -6414227.88508  16482709.26708  16482709.05708
 93 04 16 14 04 00.0000000  0  6 15 01 25 22 14 29
  -3324142.57908  -2590243.95808  15741857.36708  15741858.03508
  -8048960.01708  -6271915.09008  18268088.55108  18268090.37408
 -10729436.01408  -8360601.65308  15265624.17708  15265624.01908
  -5324656.35108  -4149083.27308  16649298.59008  16649299.45308
 -20290984.24608 -15811156.64108  15362499.56908  15362500.03008
  -8450909.09708  -6585124.94908  16440974.51808  16440974.27808
 93 04 16 14 06 00.0000000  0  6 15 01 25 22 14 29
  -3077626.34708  -2398153.52908  15788767.93708  15788768.67908
  -7803109.20108  -6080343.36808  18314872.68308  18314874.57608
 -10502071.01208  -8183434.23108  15308890.38808  15308890.26108
  -5651538.93108  -4403796.97408  16587094.88008  16587095.85308
 -20592545.24808 -16046139.29308  15305114.38008  15305114.86708
  -8668584.78008  -6754742.40608  16399552.20308  16399552.00808
 93 04 16 14 08 00.0000000  0  6 15 01 25 22 14 29
  -2824366.40808  -2200808.26708  15836961.82408  15836962.61308
  -7557191.10608  -5888719.20008  18361669.52608  18361671.58708
 -10268796.12108  -8001661.69908  15353281.17608  15353281.13808
  -5973728.14908  -4654853.52708  16525784.33708  16525785.26908
 -20889528.55308 -16277554.90808  15248600.41508  15248600.90708
  -8884893.64008  -6923294.81108  16358390.05908  16358389.84608
 93 04 16 14 10 00.0000000  0  7 15 18 01 25 22 14 29
  -2564565.15708  -1998365.88908  15886400.47108  15886401.25608
         0.32717         0.44117  19225667.94917  19225669.08217
  -7311294.24708  -5697111.61308  18408462.46208  18408464.49008
 -10030084.40808  -7815652.69708  15398706.67308  15398706.59608
  -6291039.25608  -4902108.93708  16465402.02408  16465402.99408
 -21181963.05208 -16505425.99008  15192951.99908  15192952.53808
  -9099649.69708  -7090637.23108  16317523.33108  16317523.19408
 93 04 16 14 12 00.0000000  0  7 15 18 01 25 22 14 29
  -2298373.09308  -1790943.64808  15937055.23608  15937056.07208
   -327692.74607   -255344.98107  19163310.04307  19163311.36707
  -7065513.74908  -5505594.72008  18455233.20508  18455235.35508
  -9786406.42108  -7625773.87008  15445077.11208  15445077.03208
  -6603235.05608  -5145378.36808  16405993.12008  16405994.08508
 -21469774.30408 -16729694.52308  15138183.34008  15138183.88608
  -9312660.34608  -7256619.59508  16276988.82608  16276988.63108
 93 04 16 14 14 00.0000000  0  7 15 18 01 25 22 14 29
  -2025999.85008  -1578704.92308  15988886.27908  15988887.16008
   -654879.74907   -510296.03507  19101048.59407  19101049.80707
  -6819373.83008  -5313797.74908  18502072.31208  18502074.61808
  -9537309.94708  -7431672.85808  15492478.67508  15492478.63208
  -6910136.39108  -5384522.21908  16347591.69808  16347592.68908
 -21752561.01208 -16950047.82308  15084370.87608  15084371.37508
  -9524141.72708  -7421410.34208  16236745.28408  16236745.15008
 93 04 16 14 16 00.0000000  0  7 15 25 18 01 22 14 29
  -1747671.24708  -1361825.64308  16041850.54608  16041851.48408
  -9283287.01308  -7233733.03408  15540817.73508  15540817.71908
   -981531.48807   -764830.05007  19038888.93507  19038890.22807
  -6572939.09308  -5121771.06108  18548967.68408  18548970.00408
  -7211580.70308  -5619413.84308  16290228.73008  16290229.66108
 -22029802.77708 -17166080.38508  15031613.52008  15031614.02508
  -9734333.06008  -7585195.83008  16196747.21308  16196747.08708
 93 04 16 14 18 00.0000000  0  7 15 25 18 01 22 29 14
  -1463624.00208  -1140490.28208  16095903.05808  16095904.02808
  -9024527.23608  -7032102.17408  15590058.20408  15590058.21908
  -1307695.07308  -1018983.64207  18976822.25208  18976823.53207
  -6326413.60208  -4929673.64407  18595880.15708  18595882.50107
  -7507413.96008  -5849933.24508  16233933.53008  16233934.48208
  -9943155.39808  -7747914.58208  16157009.71408  16157009.56608
 -22302000.24508 -17378182.34008  14979816.09408  14979816.61108
 93 04 16 14 20 00.0000000  0  7 15 25 18 01 22 29 14
  -1174063.25108   -914858.69108  16151004.78508  16151005.77508
  -8761065.48708  -6826807.44408  15640193.35708  15640193.40208
  -1633930.23708  -1273193.00607  18914741.83308  18914743.15707
  -6079965.88408  -4737636.86107  18642777.92008  18642780.45907
  -7797452.77508  -6075937.52608  16178740.98608  16178741.91108
 -10150329.04408  -7909348.60908  16117585.88108  16117585.71908
 -22569112.03109 -17586321.42908  14928986.42609  14928986.97708
 93 04 16 14 22 00.0000000  0  7 15 25 22 18 01 29 14
   -879198.40908   -685094.04708  16207115.82108  16207116.87708
  -8493243.69808  -6618115.28608  15691158.31208  15691158.39908
  -8081517.36408  -6297286.57608  16124685.31608  16124686.20308
  -1959660.60708  -1527008.97607  18852757.40608  18852758.90707
  -5833646.76608  -4545700.26907  18689651.15608  18689653.75007
 -10356076.83808  -8069671.59808  16078433.44108  16078433.28108
 -22830735.62409 -17790184.00108  14879201.15509  14879201.71908
 93 04 16 14 24 00.0000000  0  7 15 25 22 18 01 29 14
   -579237.90708   -451358.76108  16264196.53708  16264197.62908
  -8221153.64208  -6406097.21708  15742935.46008  15742935.61508
  -8359429.93208  -6513841.84008  16071800.31808  16071801.24408
  -2284827.52008  -1780385.86807  18790880.35708  18790881.72507
  -5587099.05508  -4353585.58707  18736567.98708  18736570.64907
 -10560405.35308  -8228888.65308  16039551.02208  16039550.94908
 -23086479.93809 -17989465.30508  14830534.65809  14830535.19408
 93 04 16 14 26 00.0000000  0  7 15 25 18 01 22 29 14
   -274398.61708   -213821.82908  16322205.67108  16322206.76408
  -7944667.62708  -6190653.71808  15795549.11608  15795549.27008
  -2610157.54008  -2033889.87807  18728972.16808  18728973.68007
  -5340308.97708  -4161282.05807  18783530.85408  18783533.75407
  -8631020.55908  -6725470.90308  16020118.34808  16020119.26908
 -10763378.07308  -8387049.23908  16000926.64108  16000926.47108
 -23336493.86009 -18184281.36208  14782958.58709  14782959.12808
 93 04 16 14 28 00.0000000  0  7 15 25 18 01 22 29 14
     35107.85408     27351.86608  16381102.91108  16381104.06008
  -7663935.12708  -5971901.27108  15848970.90208  15848971.06708
  -2935450.27208  -2287364.79808  18667071.12308  18667072.51508
  -5093356.70608  -3968852.16407  18830524.71008  18830527.56507
  -8896117.35008  -6932039.80308  15969672.08708  15969673.04908
 -10965018.31608  -8544171.53308  15962555.75308  15962555.67508
 -23580427.22109 -18374359.32708  14736539.61509  14736540.18208
 93 04 16 14 30 00.0000000  0  7 15 18 01 25 22 14 29
    349081.05308    272006.11508  16440850.17308  16440851.39008
  -3260251.95408  -2540457.10008  18605263.45808  18605264.83008
  -4846258.91007  -3776308.87507  18877546.08707  18877549.21507
  -7379474.69408  -5750243.93608  15903101.86708  15903102.10908
  -9154537.28508  -7133405.91708  15920496.36408  15920497.26208
 -23818450.33709 -18559831.92008  14691245.34509  14691245.92608
 -11165302.29608  -8700236.99308  15924443.06108  15924442.86208
 93 04 16 14 32 00.0000000  0  7 15 18 01 25 22 14 29
    667298.98408    519967.94608  16501405.19008  16501406.47608
  -3584819.58508  -2793366.96508  18543500.27808  18543501.67708
  -4599139.56807  -3583748.79907  18924571.78407  18924574.87507
  -7091465.03508  -5525820.97408  15957908.47908  15957908.68908
  -9406122.12708  -7329445.95508  15872621.29608  15872622.17508
 -24050759.01409 -18740851.69608  14647038.49709  14647039.08808
 -11364438.85208  -8855408.36008  15886548.52608  15886548.57008
 93 04 16 14 34 00.0000000  0  7 15 18 01 25 22 14 29
    989559.40408    771079.77008  16562729.44808  16562730.77708
  -3909177.93308  -3046113.78108  18481776.93508  18481778.36908
  -4351716.45507  -3390952.04907  18971655.16407  18971658.42107
  -6799974.88908  -5298685.94908  16013377.36708  16013377.66208
  -9650698.49608  -7520024.85008  15826079.87008  15826080.73108
 -24276152.12809 -18916482.71808  14604147.64209  14604148.21008
 -11561803.64508  -9009199.14308  15848991.38508  15848991.26608
 93 04 16 14 36 00.0000000  0  7 15 18 01 25 22 14 29
   1315659.70308   1025183.68608  16624784.41908  16624785.82908
  -4233061.63108  -3298490.73208  18420143.93208  18420145.53008
  -4104211.35607  -3198091.41007  19018754.10507  19018757.59907
  -6504951.30008  -5068797.59908  16069518.61808  16069518.94808
  -9888097.11408  -7705010.72808  15780904.38208  15780905.24608
 -24494645.97409 -19086737.69108  14562569.66909  14562570.25408
 -11757664.25808  -9161817.83208  15811720.36808  15811720.26208
 93 04 16 14 38 00.0000000  0  7 15 18 01 25 22 14 29
   1645361.63708   1282094.07008  16687524.82208  16687526.17108
  -4556705.75408  -3550681.00408  18358556.61708  18358558.15908
  -3856502.46007  -3005071.94907  19065891.88707  19065895.51407
  -6206873.56808  -4836529.41808  16126241.11308  16126241.48208
 -10118186.02308  -7884300.76008  15737119.90208  15737120.75708
 -24706654.54609 -19251939.21708  14522225.82809  14522226.40108
 -11952540.66508  -9313669.62308  15774636.69008  15774636.65908
 93 04 16 14 40 00.0000000  0  7 15 18 01 25 22 14 29
   1978446.09808   1541640.18308  16750908.83008  16750910.29208
  -4880452.36708  -3802951.12808  18296949.64508  18296951.22308
  -3608778.32907  -2812040.53507  19113032.63207  19113036.13207
  -5905517.77508  -4601706.90708  16183587.29308  16183587.67808
 -10340818.88908  -8057780.91308  15694754.26508  15694755.13008
 -24911970.32409 -19411925.57408  14483155.54609  14483156.15608
 -12146054.80208  -9464459.88608  15737812.21108  15737812.08208
 93 04 16 14 42 00.0000000  0  7 15 18 01 25 22 14 29
   2314708.20708   1803662.37408  16814897.56908  16814899.05408
  -5204102.04008  -4055145.74108  18235361.31008  18235362.73908
  -3360410.82707  -2618507.76707  19160295.56607  19160299.33807
  -5600964.22808  -4364392.64908  16241541.98208  16241542.54908
 -10555840.25808  -8225330.02808  15653837.07208  15653837.91508
 -25110369.08109 -19566522.03408  14445401.59309  14445402.19908
 -12338049.82808  -9614066.41808  15701276.76308  15701276.68008
 93 04 16 14 44 00.0000000  0  7 15 18 01 25 22 14 29
   2653941.66408   2067999.89408  16879451.73408  16879453.31808
  -5527547.10908  -4307180.88208  18173811.69308  18173813.31908
  -3111981.40307  -2424926.78907  19207570.46407  19207574.20807
  -5293893.63308  -4125117.05708  16299975.78308  16299976.30608
 -10763097.91908  -8386829.49408  15614397.25008  15614398.07908
 -25301954.37009 -19715809.29708  14408944.09309  14408944.70408
 -12528941.56708  -9762813.24608  15664951.25608  15664951.18108
 93 04 16 14 46 00.0000000  0  7 15 18 01 25 22 14 29
   2995927.00808   2334481.72408  16944529.58508  16944531.19208
  -5850817.95408  -4559080.28508  18112295.42508  18112296.87208
  -2863570.97707  -2231360.57207  19254841.60307  19254845.58607
  -4984243.38808  -3883831.34908  16358900.40408  16358900.98108
 -10962461.54508  -8542177.75408  15576459.58408  15576460.41408
 -25486095.27309 -19859295.74608  14373903.27809  14373903.88708
 -12718232.75708  -9910312.89808  15628930.37708  15628930.26308
 93 04 16 14 48 00.0000000  0  7 15 18 25 01 22 14 29
   3340450.04208   2602940.97808  17010090.32308  17010092.01008
  -6173715.84008  -4810689.07708  18050849.97208  18050851.50308
  -4671858.13308  -3640414.45908  16418345.50008  16418346.13008
  -2614529.71507  -2037302.88407  19302232.87907  19302236.94407
 -11153799.04408  -8691271.88308  15540049.26108  15540050.12508
 -25662672.96309 -19996888.78208  14340301.69709  14340302.31308
 -12905879.41408 -10056531.10708  15593222.45408  15593222.42108
 93 04 16 14 50 00.0000000  0  7 15 18 01 25 22 14 29
   3687294.25908   2873208.92508  17076092.78008  17076094.58908
  -6496395.28308  -5062127.63008  17989446.06308  17989447.67608
  -2365115.77107  -1842954.75407  19349695.11607  19349699.10207
  -4357076.70208  -3395130.44008  16478246.52408  16478247.28908
 -11336987.40108  -8834016.02608  15505189.64108  15505190.49008
 -25832012.33009 -20128841.55908  14308077.49809  14308078.14808
 -13092080.81608 -10201623.13908  15557789.53008  15557789.50808
 93 04 16 14 52 00.0000000  0  7 15 18 25 22 14 29 19
   4036239.41208   3145113.96408  17142495.05208  17142496.87308
  -6819131.78908  -5313610.61708  17928031.45708  17928032.97408
  -4040242.50308  -3148246.87608  16538538.32508  16538538.97708
 -11511911.96108  -8970320.84708  15471902.59608  15471903.43708
 -25994178.63709 -20255204.94708  14277218.29009  14277218.95908
 -13277183.91808 -10345859.34708  15522565.63508  15522565.62708
         0.35518         0.15617  19154276.12818  19154279.35817
 93 04 16 14 54 00.0000000  0  7 15 18 25 22 29 14 19
   4387069.26808   3418487.60708  17209255.94608  17209257.80708
  -7141511.55408  -5564815.62608  17866684.56208  17866686.30008
  -3721129.49608  -2899587.60108  16599263.55808  16599264.49408
 -11678460.15508  -9100098.64108  15440209.52208  15440210.34708
 -13460998.37108 -10489091.42408  15487586.97908  15487586.90108
 -26148433.20609 -20375403.34708  14247864.69009  14247865.33308
   -413742.97508   -322397.16307  19075543.34508  19075546.55007
 93 04 16 14 56 00.0000000  0  7 15 18 25 22 14 29 19
   4739585.40508   3693175.23908  17276337.77508  17276339.72508
  -7463789.26508  -5815941.07808  17805356.97408  17805358.58908
  -3400091.12308  -2649428.03808  16660355.42308  16660356.26408
 -11836510.34408  -9223254.60408  15410133.54908  15410134.37308
 -26294821.85609 -20489472.47108  14220007.82309  14220008.51708
 -13643131.64108 -10631013.48008  15452928.14308  15452928.09808
   -825243.03808   -643046.56207  18997237.45708  18997240.71807
 93 04 16 14 58 00.0000000  0  7 22 15 18 25 29 14 19
 -11985969.86408  -9339716.54008  15381692.33008  15381693.14908
   5093565.69208   3969003.77108  17343698.17708  17343700.17908
  -7785814.02408  -6066869.45108  17744077.94808  17744079.45108
  -3077125.09808  -2397766.41508  16721813.90108  16721814.83008
 -13823932.42408 -10771897.23908  15418522.90108  15418522.92808
 -26433397.01309 -20597453.16208  14193637.93909  14193638.62608
  -1234644.37108   -962060.65407  18919331.01808  18919334.28807
 93 04 16 15 00 00.0000000  0  7 22 15 18 25 29 14 19
 -12126762.85608  -9449425.35108  15354900.30408  15354901.13108
   5448779.63608   4245793.58908  17411293.30908  17411295.35508
  -8107852.16808  -6317808.25708  17682796.11608  17682797.65408
  -2752438.81308  -2144764.35708  16783599.91808  16783600.83808
 -14003274.29408 -10911644.19508  15384395.26608  15384395.28508
 -26564014.45809 -20699233.04708  14168782.28209  14168782.97508
  -1641639.59508  -1279199.69807  18841882.35308  18841885.46307
 93 04 16 15 02 00.0000000  0  7 22 15 18 25 29 14 19
 -12258784.45908  -9552299.33708  15329777.45708  15329778.27608
   5805031.69108   4523392.31808  17479086.05208  17479088.22008
  -8429747.79008  -6568635.96708  17621541.47708  17621542.99108
  -2426218.10008  -1890566.66008  16845677.76508  16845678.74408
 -14180935.16208 -11050081.25908  15350587.56808  15350587.51608
 -26686586.25309 -20794743.58408  14145457.71409  14145458.41108
  -2046506.83508  -1594680.45207  18764838.40608  18764841.60607
 93 04 16 15 04 00.0000000  0  7 22 29 15 18 25 14 19
 -12381939.77208  -9648264.53308  15306341.78908  15306342.60708
 -14357199.12208 -11187429.82008  15317045.68608  15317045.67608
   6162123.26208   4801645.19108  17547038.52708  17547040.85108
  -8751429.67908  -6819297.14408  17560327.38508  17560328.82608
  -2098859.18108  -1635482.05608  16907972.36908  16907973.41208
 -26800710.74309 -20883671.79508  14123740.53509  14123741.25408
  -2449546.74908  -1908737.31407  18688142.31208  18688145.47907
 93 04 16 15 06 00.0000000  0  7 22 29 15 18 25 14 19
 -12496160.28508  -9737267.55108  15284606.35408  15284607.19308
 -14531774.86808 -11323462.89408  15283825.01508  15283825.07508
   6519837.79408   5080383.46208  17615109.64408  17615111.91108
  -9072714.32108  -7069648.76508  17499188.75308  17499190.34908
  -1769966.91708  -1379202.64208  16970558.68908  16970559.85808
 -26906625.93809 -20966203.16908  14103585.61009  14103586.34608
  -2850268.45308  -2220987.82007  18611887.36908  18611890.63807
 93 04 16 15 08 00.0000000  0  7 22 29 15 18 25 14 19
 -12601373.77108  -9819252.11008  15264584.90708  15264585.71608
 -14704988.82508 -11458434.84308  15250863.51808  15250863.49408
   6877973.14608   5359449.60408  17683260.71008  17683263.18608
  -9393976.71208  -7319983.04308  17438054.54308  17438056.13908
  -1439878.36608  -1121991.09008  17033372.61408  17033373.80708
 -27004188.74909 -21042226.18808  14085020.02309  14085020.79308
  -3248447.81708  -2531257.32907  18536116.39708  18536119.46107
 93 04 16 15 10 00.0000000  0  7 22 29 15 18 25 14 19
 -12697511.21408  -9894164.41708  15246290.58008  15246291.40008
 -14876445.72708 -11592037.65608  15218236.38708  15218236.40908
   7236328.30308   5638687.02308  17751453.67008  17751456.25708
  -9715227.58008  -7570308.34508  17376922.54108  17376923.97508
  -1108842.44308   -864041.34308  17096367.00008  17096368.31508
 -27093404.22309 -21111744.80008  14068042.98109  14068043.74908
  -3644334.22108  -2839740.14107  18460781.51908  18460784.70607
 93 04 16 15 12 00.0000000  0  7 22 29 15 18 25 14 19
 -12784533.15808  -9961973.73208  15229730.85408  15229731.65508
 -15046593.71008 -11724620.54008  15185858.37408  15185858.41208
   7594684.02508   5917924.84808  17819646.84508  17819649.53708
 -10036228.80408  -7820439.14008  17315838.03808  17315839.40108
   -776669.98908   -605205.98808  17159577.51408  17159578.88608
 -27174006.96809 -21174552.18808  14052704.77109  14052705.54408
  -4037489.72208  -3146095.00207  18385966.60008  18385969.53507
 93 04 16 15 14 00.0000000  0  7 22 29 15 18 25 14 19
 -12862398.76808 -10022648.23608  15214913.53408  15214914.35608
 -15215208.35708 -11856008.61208  15153772.06908  15153772.09408
   7952827.60108   6196997.38408  17887799.53808  17887802.22808
 -10356966.38908  -8070364.46308  17254803.56608  17254805.11508
   -443951.32908   -345945.03108  17222892.00008  17222893.46408
 -27246340.69809 -21230916.20308  14038940.18509  14038941.00508
  -4428118.20308  -3450480.79407  18311632.34108  18311635.49607
 93 04 16 15 16 00.0000000  0  7 22 29 15 18 25 14 19
 -12931079.05308 -10076165.36108  15201844.13208  15201844.93308
 -15381823.98608 -11985839.01108  15122066.19908  15122066.23908
   8310546.74408   6475739.17108  17955871.54408  17955874.34908
 -10677453.38808  -8320094.53608  17193816.92108  17193818.40608
   -110594.91908    -86187.14808  17286327.88808  17286329.38508
 -27309699.81609 -21280286.99908  14026883.37509  14026884.18708
  -4816175.35208  -3752862.94207  18237787.51108  18237790.46607
 93 04 16 15 18 00.0000000  0  7 22 29 15 18 25 14 19
 -12990535.95008 -10122495.44308  15190529.87608  15190530.69108
 -15546746.25508 -12114349.90208  15090682.54008  15090682.63508
   8667645.77008   6753997.78208  18023825.56408  18023828.45708
 -10997890.84808  -8569786.01208  17132839.69408  17132841.15308
    223470.41308    174123.13508  17349898.69808  17349900.27708
 -27364079.28309 -21322660.67108  14016535.33109  14016536.17908
  -5201748.49208  -4053309.45808  18164415.38908  18164418.24808
 93 04 16 15 20 00.0000000  0  7 22 29 15 18 25 14 19
 -13040752.88408 -10161625.58208  15180973.96108  15180974.78008
 -15709983.20308 -12241547.54708  15059619.61608  15059619.65508
   9023915.67008   7031610.23708  18091621.75508  18091624.84508
 -11317858.31408  -8819111.26808  17071951.81208  17071953.33208
    557783.28308    434626.29508  17413516.67408  17413518.30908
 -27410303.38709 -21358679.53008  14007739.25709  14007740.13608
  -5585037.60408  -4351976.19708  18091477.79408  18091480.70508
 93 04 16 15 22 00.0000000  0  7 22 29 15 18 25 14 19
 -13081717.27308 -10193545.95208  15173178.76008  15173179.61208
 -15871902.24208 -12367718.25908  15028807.47108  15028807.54008
   9379152.22008   7308417.51608  18159221.37608  18159224.52008
 -11637688.06708  -9068329.21608  17011090.28308  17011091.68908
    892627.41508    695543.42308  17477235.61008  17477237.41508
 -27447748.01809 -21387857.24308  14000613.84109  14000614.72108
  -5965160.21208  -4648175.48008  18019142.70608  18019145.64208
 93 04 16 15 24 00.0000000  0  7 22 15 18 25 14 29 19
 -13113423.92708 -10218252.48008  15167145.21008  15167146.06208
   9733153.78108   7584262.44608  18226586.14908  18226589.24908
 -11957431.88708  -9317480.19908  16950244.97108  16950246.49108
   1227768.00608    956691.55308  17541010.99508  17541012.88408
 -27476257.50209 -21410072.49608  13995188.71909  13995189.62808
 -16031746.60208 -12492272.34608  14998390.14008  14998390.19708
  -6342358.32108  -4942095.94208  17947364.15008  17947367.12108
 93 04 16 15 26 00.0000000  0  7 22 18 15 25 14 19 29
 -13135874.60208 -10235746.53208  15162872.99408  15162873.85508
 -12277074.44608  -9566552.25908  16889418.98308  16889420.40708
  10085721.97708   7858990.45607  18293677.88808  18293681.15207
   1562731.17308   1217701.41208  17604752.65808  17604754.60908
 -27495752.02609 -21425263.10308  13991479.10009  13991480.01408
  -6717444.16908  -5234370.48008  17875987.63508  17875990.51108
 -16189794.66208 -12615426.69908  14968314.58408  14968314.69008
 93 04 16 15 28 00.0000000  0  7 22 18 15 25 14 19 29
 -13149087.24208 -10246042.11108  15160358.75108  15160359.60008
 -12596565.43708  -9815506.21408  16828621.76908  16828623.21608
  10436652.46207   8132442.29407  18360458.02407  18360461.41507
   1897714.19208   1478726.73208  17668498.15808  17668500.22108
 -27506596.14609 -21433713.14008  13989415.56009  13989416.49808
  -7089317.89908  -5524142.09108  17805222.35808  17805225.07608
 -16346069.51008 -12737199.35408  14938576.53108  14938576.63908
 93 04 16 15 30 00.0000000  0  7 22 18 15 25 19 14 29
 -13153080.16708 -10249153.52308  15159598.93408  15159599.80608
 -12915368.90408 -10063924.44508  16767955.53008  16767956.83708
  10785744.93407   8404461.86707  18426888.64707  18426892.00207
   2232247.37708   1739401.52408  17732158.05608  17732160.19908
  -7458412.44808  -5811748.11108  17734985.82508  17734988.62008
 -27508845.27209 -21435465.77608  13988987.61009  13988988.57708
 -16500326.02108 -12857399.26108  14909222.47808  14909222.57608
 93 04 16 15 32 00.0000000  0  7 22 18 15 25 19 14 29
 -13147888.12308 -10245107.83508  15160587.01008  15160587.90708
 -13234001.57308 -10312209.59308  16707321.72408  16707323.09108
  11132795.03107   8674890.00107  18492930.29607  18492934.11207
   2566491.67108   1999851.20108  17795762.94408  17795765.19608
  -7824743.36108  -6097200.62308  17665275.27708  17665278.03108
 -27501867.73709 -21430028.80808  13990315.45009  13990316.42208
 -16652930.78308 -12976312.09008  14880182.81808  14880182.91308
 93 04 16 15 34 00.0000000  0  7 22 18 15 25 19 14 29
 -13133531.73008 -10233921.10908  15163318.98808  15163319.89808
 -13552642.25508 -10560500.99108  16646686.36708  16646687.64608
  11477622.58507   8943586.22307  18558549.37107  18558553.15407
   2900498.86308   2260116.09708  17859322.72108  17859325.06108
  -8188112.43708  -6380345.17308  17596128.35208  17596131.03808
 -27486068.75209 -21417717.98808  13993321.91709  13993322.91908
 -16803648.99408 -13093754.87308  14851502.10308  14851502.25308
 93 04 16 15 36 00.0000000  0  7 22 18 15 25 19 14 29
 -13110072.30308 -10215641.10708  15167783.24408  15167784.16708
 -13870803.72508 -10808418.97208  16586142.18808  16586143.57208
  11820014.28907   9210384.33207  18623704.71607  18623708.87807
   3234047.89608   2520023.95608  17922795.33708  17922797.83208
  -8548666.97108  -6661296.62408  17527516.97608  17527519.62308
 -27461509.16009 -21398580.72208  13997995.55809  13997996.58008
 -16952449.37808 -13209703.24408  14823186.36208  14823186.45608
 93 04 16 15 38 00.0000000  0  7 22 18 15 25 19 14 29
 -13077563.47708 -10190309.61408  15173969.50408  15173970.42108
 -14188626.86008 -11056073.31208  16525662.43908  16525663.86908
  12159777.05507   9475133.98107  18688359.87207  18688364.09707
   3567104.86308   2779548.36008  17986174.37908  17986176.97908
  -8906418.66408  -6940064.04508  17459439.02808  17459441.60708
 -27427948.82209 -21372429.89108  14004381.92909  14004382.96708
 -17099134.99508 -13324003.75408  14795273.05008  14795273.15508
 93 04 16 15 40 00.0000000  0  7 22 18 19 15 25 14 29
 -13036057.65708 -10157967.47808  15181867.84808  15181868.77808
 -14506409.71208 -11303696.27408  16465190.35208  16465191.68708
  -9260954.18508  -7216325.36908  17391973.07008  17391975.57808
  12496725.04607   9737690.20407  18752479.36307  18752483.71807
   3899499.19808   3038556.41807  18049427.26308  18049429.94707
 -27385757.75309 -21339553.82808  14012410.67209  14012411.72708
 -17243835.84208 -13436757.69408  14767737.42808  14767737.54908
 93 04 16 15 42 00.0000000  0  7 22 18 19 15 25 14 29
 -12985635.34308 -10118677.40108  15191462.90608  15191463.91008
 -14823480.98408 -11550764.72908  16404853.60108  16404854.94408
  -9612903.02108  -7490571.11608  17324999.36208  17325001.93008
  12830655.20607   9997894.86907  18816024.70807  18816029.14807
   4230906.41508   3296795.29707  18112492.35908  18112495.24507
 -27334812.23109 -21299856.11508  14022105.37009  14022106.46108
 -17386669.88508 -13548056.96408  14740557.01408  14740557.14408
 93 04 16 15 44 00.0000000  0  7 22 18 19 25 15 14 29
 -12926367.47608 -10072494.69508  15202741.23308  15202742.21308
 -15140366.30108 -11797688.28808  16344552.36508  16344553.64508
  -9961916.98708  -7762529.95708  17258584.12308  17258586.65208
   4561270.91008   3554221.66907  18175358.97308  18175361.87407
  13161380.76807  10255602.42607  18878960.34207  18878964.85407
 -27275239.21809 -21253435.68308  14033441.78809  14033442.91608
 -17527383.32008 -13657703.82908  14713780.14608  14713780.31008
 93 04 16 15 46 00.0000000  0  7 22 18 19 25 15 14 29
 -12858330.49008 -10019478.92108  15215688.26808  15215689.28408
 -15456951.19208 -12044377.75808  16284308.28308  16284309.52808
 -10307884.95908  -8032115.26008  17192748.49408  17192751.02808
   4890536.55008   3810791.80207  18238016.60408  18238019.73007
  13488723.40907  10510673.92107  18941252.01307  18941256.77807
 -27207222.42809 -21200435.67908  14046385.05209  14046386.19608
 -17665897.36008 -13765636.87808  14687421.83008  14687421.99208
 93 04 16 15 48 00.0000000  0  6 22 18 19 25 14 29
 -12781597.94008  -9959687.40308  15230290.07108  15230291.11108
 -15773278.15908 -12290866.27408  16224113.11308  16224114.51108
 -10651091.29408  -8299548.64208  17127438.39308  17127440.92208
   5218788.76307   4066572.26907  18300481.32307  18300484.44207
 -27130593.25009 -21140724.72308  14060967.15109  14060968.32508
 -17802145.27608 -13871804.10708  14661494.73408  14661494.90608
 93 04 16 15 50 00.0000000  0  7 22 18 19 25 15 14 29
 -12696266.59208  -9893195.54608  15246528.14608  15246529.21408
 -16089015.40608 -12536895.25808  16164030.34508  16164031.61508
 -10991174.68208  -8564548.53908  17062722.60308  17062725.02108
   5545907.43007   4321469.45807  18362730.13007  18362733.57407
         0.10917        -0.40317  19063771.75617  19063777.00817
 -27045032.59408 -21074054.16608  14077248.86308  14077250.05508
 -17936205.39908 -13976266.55708  14635983.94808  14635984.12508
 93 04 16 15 52 00.0000000  0  7 22 18 19 25 15 14 29
 -12602439.21708  -9820083.40808  15264382.97408  15264384.06508
 -16404049.74408 -12782376.50608  16104081.35508  16104082.52708
 -11328411.69808  -8827330.49108  16998548.47108  16998550.87508
   5871379.66807   4575083.68007  18424665.89607  18424669.31607
    316135.11507    246337.69307  19123931.05607  19123936.37907
 -26950976.33508 -21000763.65108  14095147.22608  14095148.40708
 -18068066.33408 -14079015.35108  14610891.67008  14610891.84908
 93 04 16 15 54 00.0000000  0  7 22 18 19 25 15 14 29
 -12500233.08108  -9740442.33508  15283832.21508  15283833.31408
 -16718967.06408 -13027766.58608  16044154.49508  16044155.71108
 -11662932.98508  -9087996.29808  16934891.02308  16934893.43408
   6195820.46707   4827894.13307  18486405.40007  18486408.89307
    628167.82206    489479.39106  19183309.22406  19183315.08106
 -26848801.28708 -20921146.81208  14114590.57808  14114591.81008
 -18197786.72408 -14180096.20008  14586206.72708  14586206.89908
 93 04 16 15 56 00.0000000  0  7 18 22 19 25 15 14 29
 -17033297.71208 -13272699.50908  15984339.20808  15984340.56608
 -12389746.15608  -9654348.68108  15304857.22308  15304858.36008
 -11994089.80608  -9346040.46208  16871873.95908  16871876.29108
   6518628.86307   5079432.52707  18547834.32607  18547838.04007
    935938.68807    729300.18106  19241876.53807  19241882.14506
 -26738195.17808 -20834960.32508  14135638.25008  14135639.49708
 -18325282.59908 -14279443.65608  14561945.04908  14561945.25908
 93 04 16 15 58 00.0000000  0  7 18 22 19 15 25 14 29
 -17347128.35608 -13517242.82308  15924619.13108  15924620.54408
 -12271080.74108  -9561882.17008  15327438.55408  15327439.68808
 -12322730.76108  -9602124.24708  16809335.62608  16809337.90008
   1239294.90307    965681.10607  19299603.89107  19299609.76707
   6839645.11507   5329574.45907  18608921.98307  18608926.00807
 -26619287.54508 -20742305.11208  14158265.66708  14158266.94208
 -18450094.34308 -14376699.58108  14538194.19408  14538194.39908
 93 04 16 16 00 00.0000000  0  6 18 22 19 25 14 29
 -17660205.92408 -13761199.29908  15865042.46208  15865043.80708
 -12144358.49908  -9463137.63008  15351553.03708  15351554.17508
 -12648684.53408  -9856114.12408  16747308.59908  16747310.91708
   7159043.65207   5578455.88707  18669701.99507  18669706.01307
 -26492145.07008 -20643233.14208  14182460.14008  14182461.45208
 -18572342.65208 -14471958.02308  14514931.13308  14514931.33908
 93 04 16 16 02 00.0000000  0  6 18 22 19 25 14 29
 -17972505.85608 -14004549.82108  15805613.74308  15805615.02008
 -12009715.52008  -9358221.09508  15377174.81208  15377175.99408
 -12971551.09908 -10107698.38808  16685869.06008  16685871.33108
   7476743.71707   5826013.88807  18730158.58907  18730162.85607
 -26357052.19508 -20537966.05908  14208167.49208  14208168.82808
 -18692236.84908 -14565382.09008  14492116.04908  14492116.24908
 93 04 16 16 04 00.0000000  0  7 18 22 19 28 25 14 29
 -18284462.39808 -14247632.79308  15746250.37108  15746251.52908
 -11867300.45708  -9247248.39308  15404275.56908  15404276.73508
 -13291246.29908 -10356811.44608  16625033.04408  16625035.28208
        -0.43417        -0.47717  18974846.35817  18974851.09917
   7792744.70607   6072247.90407  18790292.02107  18790296.33407
 -26213856.16808 -20426384.84108  14235416.92008  14235418.27808
 -18809772.22108 -14656968.10308  14469749.80808  14469750.01408
 93 04 16 16 06 00.0000000  0  7 18 22 19 28 25 14 29
 -18595586.20708 -14490066.90208  15687045.35908  15687046.61408
 -11717283.30008  -9130351.99508  15432822.91308  15432824.17308
 -13608510.02108 -10604029.83708  16564659.72808  16564661.91708
   -315170.06808   -245587.02907  18914871.57108  18914876.17307
   8106625.49607   6316829.87707  18850021.89107  18850026.28707
 -26062930.95408 -20308780.88408  14264137.10908  14264138.49708
 -18924660.79308 -14746491.69508  14447887.26208  14447887.48208
 93 04 16 16 08 00.0000000  0  6 18 22 19 28 14 29
 -18906019.24508 -14731962.73008  15627971.95708  15627973.26808
 -11559742.57308  -9007593.09608  15462802.01508  15462803.28108
 -13922865.53308 -10848982.08708  16504839.73908  16504841.86408
   -631207.26907   -491849.51107  18854731.34607  18854736.02307
 -25904336.22708 -20185200.68108  14294316.75408  14294318.15108
 -19036793.70108 -14833868.02108  14426549.09508  14426549.33508
 93 04 16 16 10 00.0000000  0  6 18 22 19 28 14 29
 -19215368.47708 -14973014.02608  15569104.77808  15569105.98908
 -11394829.25708  -8879089.33608  15494184.07408  15494185.36508
 -14234102.61008 -11091504.37708  16445613.24008  16445615.41108
   -948012.63007   -738710.49507  18794445.19007  18794449.71307
 -25737919.58408 -20055525.48008  14325984.85908  14325986.27308
 -19146577.59108 -14919413.94508  14405657.92908  14405658.18508
 93 04 16 16 12 00.0000000  0  6 18 22 19 28 14 29
 -19524028.41208 -15213528.21808  15510368.71708  15510369.92208
 -11222700.21208  -8744962.93408  15526939.24508  15526940.60508
 -14542715.52708 -11331981.88608  16386886.08508  16386888.20008
  -1265660.28708   -986227.94207  18733998.75308  18734003.19307
 -25564125.55708 -19920101.67508  14359056.90008  14359058.34008
 -19253243.43808 -15002530.21108  14385360.13608  14385360.38208
 93 04 16 16 14 00.0000000  0  6 18 22 19 28 14 29
 -19832692.37108 -15454045.53308  15451631.84208  15451633.04008
 -11044071.35708  -8605771.71608  15560931.23408  15560932.61708
 -14849102.14108 -11570724.61708  16328582.62808  16328584.69508
  -1584399.59608  -1234595.86208  18673344.24708  18673348.63408
 -25383500.97308 -19779355.35608  14393428.67408  14393430.13108
 -19357593.68908 -15083842.09308  14365502.94808  14365503.17008
 93 04 16 16 16 00.0000000  0  6 18 22 19 28 14 29
 -20142404.34608 -15695379.47108  15392695.55708  15392696.69708
 -10860926.43808  -8463061.45408  15595782.62608  15595783.96608
 -15154954.70808 -11809051.18908  16270380.73208  16270382.77108
  -1905926.68908  -1485136.11608  18612159.50508  18612163.83808
 -25197963.50008 -19634780.80108  14428735.39008  14428736.86608
 -19462016.01208 -15165210.13508  14345632.03408  14345632.26108
 93 04 16 16 18 00.0000000  0  6 18 22 19 28 14 29
 -20450625.61208 -15935551.81008  15334042.93108  15334044.05108
 -10670697.52108  -8314831.18208  15631982.04508  15631983.38908
 -15458068.15808 -12045243.35308  16212700.04808  16212702.03208
  -2227724.24908  -1735887.14708  18550923.09508  18550927.34408
 -25005108.22508 -19484504.04308  14465434.52908  14465436.03508
 -19562913.35908 -15243831.43208  14326431.90208  14326432.13708
 93 04 16 16 20 00.0000000  0  6 18 22 19 28 14 29
 -20753600.77008 -16171636.28308  15276388.62408  15276389.74408
 -10469427.53808  -8157997.50908  15670282.51008  15670283.85108
 -15753975.71808 -12275820.52008  16156390.62008  16156392.61908
  -2545112.45308  -1983202.32608  18490525.97608  18490530.18608
 -24800919.94708 -19325396.38408  14504290.37908  14504291.86108
 -19656340.98408 -15316632.17108  14308653.20608  14308653.47308
 93 04 16 16 22 00.0000000  0  6 18 22 19 28 14 29
 -21046717.99508 -16400039.26308  15220610.18608  15220611.33208
 -10253056.07108  -7989396.47408  15711456.71408  15711458.05308
 -16038487.74108 -12497518.06708  16102249.61108  16102251.55108
  -2853568.27208  -2223557.17508  18431828.38508  18431832.54708
 -24581008.62208 -19154037.01008  14546138.14308  14546139.68808
 -19737975.79208 -15380243.70708  14293118.60408  14293118.87708
 93 04 16 16 24 00.0000000  0  6 18 22 19 28 14 29
 -21330926.24508 -16621500.18508  15166527.14308  15166528.25908
 -10022785.10208  -7809964.67708  15755275.89008  15755277.27108
 -16312486.90308 -12711023.79708  16050109.24208  16050111.13508
  -3154308.77608  -2457900.08608  18374599.21308  18374603.24808
 -24346736.61208 -18971487.50008  14590718.66108  14590720.22308
 -19808695.42008 -15435349.92208  14279661.05008  14279661.32508
 93 04 16 16 26 00.0000000  0  6 18 22 19 28 14 29
 -21605546.20308 -16835489.71308  15114268.60608  15114269.73108
  -9778376.26508  -7619516.37208  15801785.41608  15801786.86908
 -16576004.28408 -12916361.91108  15999963.45108  15999965.34008
  -3446633.73308  -2685685.47008  18318971.18208  18318975.20108
 -24097802.77508 -18777513.19908  14638089.29308  14638090.87808
 -19868515.06308 -15481962.64608  14268277.78608  14268278.05608
 93 04 16 16 28 00.0000000  0  6 28 18 22 19 14 29
  -3731879.58008  -2907954.69708  18264690.57208  18264694.40108
 -21872131.72908 -17043218.63008  15063539.06008  15063540.11108
  -9521655.36508  -7419474.24708  15850637.88408  15850639.35308
 -16830447.59208 -13114629.33408  15951544.41608  15951546.30508
 -23836343.37008 -18573778.71808  14687843.42108  14687845.08008
 -19918709.85508 -15521075.49008  14258726.02408  14258726.29708
 93 04 16 16 30 00.0000000  0  6 18 22 19 28 14 29
 -22131474.05308 -17245303.51308  15014187.78608  15014188.86508
  -9253005.18008  -7210136.57108  15901760.42208  15901761.95208
 -17076000.03408 -13305968.81608  15904817.29108  15904819.17808
  -4010260.77408  -3124874.85908  18211716.33808  18211720.12608
 -23562403.29808 -18360319.06308  14739972.66608  14739974.32308
 -19959245.33808 -15552661.60308  14251012.39708  14251012.70608
 93 04 16 16 32 00.0000000  0  6 22 19 28 18 14 29
  -8973078.57108  -6992012.08408  15955028.79008  15955030.35108
 -17313280.11108 -13490862.31408  15859664.32908  15859666.13408
  -4281918.46908  -3336555.93008  18160021.30708  18160025.10908
 -22383599.51208 -17441764.85508  14966209.84508  14966210.95308
 -23276590.79308 -18137608.17208  14794360.99608  14794362.69908
 -19990538.04008 -15577045.56108  14245057.61208  14245057.91908
 93 04 16 16 34 00.0000000  0  6 22 19 28 29 18 14
  -8683433.42308  -6766314.71608  16010146.50608  16010148.15408
 -17543786.96808 -13670477.97908  15815800.24908  15815802.12208
  -4548096.88308  -3543967.43908  18109369.05908  18109372.84308
 -20014540.15508 -15595748.53208  14240490.13308  14240490.44208
 -22629695.59908 -17633527.99508  14919379.30408  14919380.36908
 -22980493.18508 -17906882.93208  14850706.64008  14850708.37508
 93 04 16 16 36 00.0000000  0  7 22 19 28 27 18 14 29
  -8385713.43808  -6534325.27508  16066800.86008  16066802.51208
 -17769085.51408 -13846035.21808  15772927.29008  15772929.13708
  -4810225.26708  -3748223.01508  18059487.55108  18059491.13308
        -0.75517        -0.74017  18894243.76517  18894247.71017
 -22871345.74708 -17821826.77608  14873394.74808  14873395.80108
 -22675790.17508 -17669452.18308  14908689.82408  14908691.59508
 -20031994.44808 -15609349.29808  14237168.71908  14237169.04108
 93 04 16 16 38 00.0000000  0  7 22 14 19 28 27 18 29
  -8080119.70208  -6296200.46708  16124953.58008  16124955.20108
 -22362916.25908 -17425654.49508  14968227.87408  14968229.67908
 -17988849.77208 -14017280.02308  15731107.48308  15731109.34308
  -5068365.69208  -3949371.13408  18010364.84908  18010368.42608
   -329818.67707   -257001.52707  18831481.45807  18831485.36007
 -23108022.53808 -18006250.21608  14828356.61808  14828357.73208
 -20043118.24808 -15618017.22608  14235051.94508  14235052.29608
 93 04 16 16 40 00.0000000  0  8 22 14 19 28 27 31 18 29
  -7767428.28008  -6052545.01108  16184456.87008  16184458.59308
 -22042431.16508 -17175926.01908  15029214.26208  15029216.08808
 -18203907.46008 -14184857.35008  15690183.32508  15690185.17108
  -5322612.84108  -4147485.61008  17961983.03808  17961986.63708
   -657124.50707   -512044.72607  18769196.97207  18769200.56107
        -0.75918        -0.68417  18387449.65218  18387454.59117
 -23340550.21508 -18187440.57408  14784108.04908  14784109.09508
 -20048407.90208 -15622139.07908  14234045.37208  14234045.74908
 93 04 16 16 42 00.0000000  0  8 22 14 19 28 27 18 31 29
  -7446981.72408  -5802846.59808  16245435.98708  16245437.71808
 -21713375.36908 -16919519.07808  15091831.64508  15091833.51708
 -18413496.73608 -14348173.57208  15650299.70108  15650301.52208
  -5571721.42908  -4341595.98808  17914579.08508  17914582.53708
   -981118.48407   -764507.24807  18707542.60707  18707546.34507
 -23568197.46608 -18364828.01008  14740788.17808  14740789.22308
   -327615.28408   -255284.29007  18325106.33308  18325111.22507
 -20046724.48008 -15620827.35308  14234365.74208  14234366.13308
 93 04 16 16 44 00.0000000  0  8 22 14 28 27 31 18 29 19
  -7120066.55908  -5548107.73608  16307646.02508  16307647.89508
 -21377543.14108 -16657831.80008  15155738.45108  15155740.37308
  -5816900.76508  -4532644.55708  17867922.88408  17867926.39508
  -1302860.19407  -1015214.76207  18646316.98107  18646320.53907
   -655635.95908   -510884.47007  18262685.73608  18262690.61907
 -23791968.75208 -18539195.20908  14698205.87708  14698206.90708
 -20039395.87808 -15615116.77008  14235760.33608  14235760.69508
 -18618767.71808 -14508124.92508  15611237.92708  15611239.66508
 93 04 16 16 46 00.0000000  0  8 22 14 28 27 31 18 29 19
  -6788170.22008  -5289487.42408  16370803.96808  16370805.84608
 -21036166.75008 -16391824.40108  15220700.38408  15220702.31308
  -6059426.40108  -4721625.23708  17821771.27808  17821774.78608
  -1623442.00107  -1265018.43608  18585312.01807  18585315.65208
   -985506.74107   -767926.35308  18199913.12007  18199918.02408
 -24012866.30008 -18711323.12908  14656170.47808  14656171.52408
 -20027521.02008 -15605863.65208  14238020.07108  14238020.42308
 -18821017.66708 -14665722.23508  15572750.95608  15572752.65508
 93 04 16 16 48 00.0000000  0  8 22 14 28 27 31 18 29 19
  -6451797.68908  -5027379.17708  16434813.68608  16434815.55308
 -20689692.13508 -16121844.36308  15286632.44308  15286634.48008
  -6299302.39708  -4908541.31608  17776124.32308  17776127.51308
  -1943623.59607  -1514510.30208  18524383.32907  18524386.83508
  -1317326.82507  -1026487.11008  18136769.76007  18136774.46308
 -24230934.72208 -18881246.55508  14614673.40908  14614674.44508
 -20011479.13508 -15593363.51108  14241072.74508  14241073.13408
 -19020441.96408 -14821117.72308  15534801.74008  15534803.43708
 93 04 16 16 50 00.0000000  0  8 22 28 27 31 14 18 29 19
  -6111030.38008  -4761846.41208  16499659.71008  16499661.71808
  -6536151.14608  -5093098.48208  17731053.24808  17731056.34508
  -2263244.85807  -1763565.61508  18463561.21407  18463564.63608
  -1650853.87607  -1286377.88008  18073301.17207  18073305.99108
 -20338464.95008 -15848161.03308  15353468.88608  15353470.98708
 -24446068.30508 -19048883.06108  14573734.77108  14573735.78208
 -19991067.36408 -15577458.27408  14244957.00808  14244957.41408
 -19217151.87608 -14974398.08508  15497369.04408  15497370.73808
 93 04 16 16 52 00.0000000  0  8 22 28 27 31 14 18 29 19
  -5764410.43308  -4491753.17008  16565619.44408  16565621.49808
  -6768254.79608  -5273958.14408  17686885.25208  17686888.36108
  -2580512.15707  -2010786.65208  18403187.09907  18403190.45708
  -1984123.27207  -1546067.84508  18009881.74007  18009886.32008
 -19980673.90808 -15569363.00208  15421554.36008  15421556.45908
 -24656659.91308 -19212980.38208  14533660.50008  14533661.51608
 -19964425.12608 -15556698.14408  14250026.87308  14250027.29108
 -19409679.38708 -15124419.41108  15460732.15708  15460733.83008
 93 04 16 16 54 00.0000000  0  8 22 28 27 31 14 18 29 19
  -5412472.10008  -4217515.75708  16632591.28408  16632593.36908
  -6995712.61508  -5451197.69708  17643601.24108  17643604.17608
  -2895458.27307  -2256198.92308  18343254.63707  18343257.95808
  -2317455.92207  -1805807.15908  17946450.41607  17946454.90208
 -19617010.53608 -15285989.15408  15490757.42808  15490759.55808
 -24863399.37008 -19374076.04408  14494319.25708  14494320.28308
 -19932022.42208 -15531449.34108  14256192.90808  14256193.34208
 -19598198.92508 -15271317.67208  15424858.02008  15424859.71908
 93 04 16 16 56 00.0000000  0  8 14 28 27 31 22 18 29 19
 -19250527.92008 -15000418.49708  15560496.85008  15560499.04208
  -7221038.77508  -5626776.19308  17600722.76208  17600725.78108
  -3211150.22508  -2502192.41308  18283180.27508  18283183.49808
  -2653108.63008  -2067354.30807  17882577.67108  17882581.72707
  -5057949.32608  -3941264.51308  16700054.84308  16700057.06608
 -25068097.14408 -19533580.77108  14455366.54508  14455367.52908
 -19896381.39308 -15503677.15608  14262975.23208  14262975.68108
 -19785148.15108 -15416992.33108  15389282.72208  15389284.40208
 93 04 16 16 58 00.0000000  0  8 22 28 27 31 14 18 29 19
  -4699533.36608  -3661979.65008  16768259.34408  16768261.61708
  -7442794.99708  -5799573.00008  17558523.80508  17558526.78108
  -3525846.96508  -2747410.45508  18223295.26308  18223298.54108
  -2989479.85608  -2329461.39008  17818567.95808  17818571.99608
 -18879675.94908 -14711443.15008  15631067.79908  15631070.03708
 -25269142.85808 -19690239.73908  14417108.82208  14417109.81308
 -19855890.89308 -15472126.16308  14270680.35108  14270680.83008
 -19969338.27008 -15560517.04608  15354232.47308  15354234.09308
 93 04 16 17 00 00.0000000  0  8 14 28 27 31 22 18 29 19
 -18503361.81308 -14418211.57808  15702678.14208  15702680.49108
  -7659434.09008  -5968382.54008  17517298.56008  17517301.52008
  -3838664.20608  -2991163.97308  18163768.00108  18163771.20708
  -3325331.68808  -2591163.71607  17754657.20008  17754661.18807
  -4336417.68108  -3379032.69008  16837358.27008  16837360.61908
 -25465805.78809 -19843483.53808  14379684.98209  14379685.96908
 -19809644.90408 -15436090.37708  14279480.69608  14279481.19908
 -20149979.59108 -15701276.48308  15319857.57608  15319859.15808
 93 04 16 17 02 00.0000000  0  8 14 19 28 27 31 22 18 29
 -18122077.13608 -14121106.88008  15775234.38408  15775236.76108
 -20326992.25208 -15839208.36808  15286173.08808  15286174.66608
  -7871036.98308  -6133267.82908  17477031.93208  17477034.90908
  -4149779.88808  -3233591.59108  18104564.57908  18104567.55908
  -3660837.37508  -2852596.36207  17690812.25008  17690816.36507
  -3969104.77008  -3092815.16008  16907255.76508  16907258.28608
 -25658007.63009 -19993251.16308  14343110.20609  14343111.19108
 -19757564.05708 -15395507.94908  14289391.38808  14289391.85608
 93 04 16 17 04 00.0000000  0  8 14 19 28 27 31 22 18 29
 -17735455.93208 -13819843.85808  15848806.11608  15848808.55208
 -20499575.75308 -15973688.97808  15253331.49508  15253333.07908
  -8076646.93508  -6293483.33308  17437905.46908  17437908.38208
  -4458551.23508  -3474192.42208  18045807.18808  18045810.20308
  -3994944.23308  -3112938.97207  17627233.66308  17627237.60207
  -3596737.18908  -2802658.92508  16978115.27408  16978117.71808
 -25844667.01109 -20138700.01108  14307590.11609  14307591.07908
 -19698745.47308 -15349675.33908  14300584.18208  14300584.66008
 93 04 16 17 06 00.0000000  0  8 14 19 28 27 31 22 18 29
 -17345732.31908 -13516163.38708  15922968.23408  15922970.73308
 -20669809.62408 -16106338.70308  15220937.06408  15220938.65808
  -8278128.46908  -6450481.86308  17399564.87408  17399567.71208
  -4766507.15708  -3714157.84208  17987204.94108  17987207.90208
  -4328984.80408  -3373229.90907  17563667.52708  17563671.23707
  -3221490.24608  -2510259.00808  17049522.62308  17049525.17008
 -26027710.77809 -20281331.50108  14272758.03809  14272759.00108
 -19635248.20208 -15300197.00208  14312667.40608  14312667.89708
 93 04 16 17 08 00.0000000  0  8 19 14 28 27 31 22 18 29
 -20837827.88008 -16237261.97008  15188964.24308  15188965.79308
 -16952834.25508 -13210009.34308  15997734.50008  15997737.04208
  -8475482.14208  -6604263.84208  17362009.68508  17362012.63908
  -5073991.80608  -3953756.03508  17928692.32108  17928695.21008
  -4663439.90008  -3633843.76707  17500022.40908  17500026.14707
  -2843766.31808  -2215928.97208  17121401.25608  17121403.95908
 -26207449.35509 -20421387.52008  14238554.86509  14238555.82908
 -19567191.15008 -15247165.60008  14325618.25208  14325618.77608
 93 04 16 17 10 00.0000000  0  8 19 14 28 27 31 18 22 29
 -21002693.51308 -16365728.64408  15157591.27408  15157592.85808
 -16556241.74408 -12900976.52508  16073203.79408  16073206.41408
  -8667279.52208  -6753716.21408  17325511.66708  17325514.59708
  -5380210.97608  -4192368.13708  17870420.57108  17870423.39608
  -4997358.12108  -3894039.28407  17436479.43908  17436483.12407
 -26382521.52909 -20557807.37808  14205239.71709  14205240.71508
  -2462756.73408  -1919038.68908  17193905.26408  17193907.99808
 -19493427.50308 -15189687.49908  14339655.06808  14339655.61408
 93 04 16 17 12 00.0000000  0  8 19 14 28 27 31 18 22 29
 -21164357.31708 -16491700.40608  15126827.61208  15126829.17608
 -16156456.94708 -12589456.23808  16149280.53708  16149283.18408
  -8853704.40308  -6898982.22008  17290036.23508  17290038.90608
  -5685202.55008  -4430023.69708  17812382.46508  17812385.26108
  -5329616.31308  -4152941.35107  17373252.45208  17373255.93507
 -26552906.88309 -20690575.17408  14172816.46109  14172817.42108
  -2078578.22208  -1619679.13208  17267012.24808  17267015.11008
 -19413953.76408 -15127759.97908  14354778.47208  14354779.04708
 93 04 16 17 14 00.0000000  0  8 19 14 28 27 31 18 22 29
 -21322711.42908 -16615093.19008  15096693.83408  15096695.36408
 -15752926.94308 -12275017.62308  16226069.99608  16226072.75808
  -9034504.40308  -7039865.21308  17255630.82608  17255633.52808
  -5988842.94608  -4666626.38808  17754601.44808  17754604.26508
  -5660431.91508  -4410719.38207  17310300.07608  17310303.70007
 -26718419.83609 -20819546.30608  14141320.43709  14141321.38408
  -1691232.61608  -1317851.73908  17340721.91408  17340724.74008
 -19328371.37408 -15061072.49108  14371064.31608  14371064.95208
 93 04 16 17 16 00.0000000  0  8 19 14 28 27 31 18 22 29
 -21478447.55208 -16736445.98308  15067058.27408  15067059.84808
 -15346221.02608 -11958104.29508  16303463.89408  16303466.72108
  -9209654.28108  -7176345.51208  17222300.82208  17222303.63908
  -6291206.04708  -4902233.78708  17697063.52708  17697066.24808
  -5990240.71108  -4667712.97707  17247539.38708  17247542.86407
 -26879006.95109 -20944679.11808  14110761.70109  14110762.64908
  -1301402.94608  -1014088.69808  17414904.39208  17414907.26408
 -19237204.57708 -14990033.53208  14388412.85508  14388413.52308
 93 04 16 17 18 00.0000000  0  8 19 28 27 31 18 22 14 29
 -21632828.91908 -16856743.12308  15037680.38208  15037681.92908
  -9380347.42208  -7309353.07308  17189819.16308  17189821.88108
  -6593558.47508  -5137832.93108  17639527.73308  17639530.33408
  -6319790.69508  -4924504.87707  17184827.99108  17184831.10907
 -27036139.13609 -21067119.77208  14080860.44209  14080861.39208
   -910470.46108   -709466.34508  17489296.52808  17489299.72508
 -14938461.46508 -11640369.95008  16381058.18208  16381061.14808
 -19141875.79608 -14915751.45908  14406553.40608  14406554.06808
 93 04 16 17 20 00.0000000  0  8 19 28 18 27 31 22 14 29
 -21785332.05708 -16975576.72208  15008660.00308  15008661.56508
  -9545840.25908  -7438308.45708  17158326.64808  17158329.33708
 -27189141.12609 -21186342.10008  14051745.13809  14051746.06808
  -6895638.99308  -5373220.25608  17582043.54008  17582046.18408
  -6648549.30608  -5180680.15207  17122267.11708  17122269.98607
   -518107.26508   -403729.15108  17563961.06908  17563964.16108
 -14528841.43908 -11321185.92408  16459006.62408  16459009.63508
 -19041745.15008 -14837727.69008  14425607.74108  14425608.38408
 93 04 16 17 22 00.0000000  0  8 28 27 18 31 22 14 29 19
  -9706524.34908  -7563516.81208  17127749.53208  17127752.18508
  -7197846.10608  -5608706.25008  17524535.46808  17524538.09108
 -27338444.61509 -21302682.48808  14023333.54409  14023334.48208
  -6976500.24708  -5436226.11307  17059859.90508  17059863.03607
   -124967.15408    -97386.62108  17638773.48008  17638776.72108
 -14118106.48208 -11001133.12108  16537167.17008  16537170.35208
 -18936933.20208 -14756056.15108  14445552.85508  14445553.51308
 -21936272.81908 -17093192.89108  14979936.98208  14979938.49008
 93 04 16 17 24 00.0000000  0  8 28 27 18 31 22 14 29 19
  -9860944.88608  -7683844.46908  17098364.15408  17098366.88008
  -7499067.22308  -5843423.90108  17467214.92408  17467217.48508
 -27482546.23309 -21414969.47308  13995911.96109  13995912.90608
  -7302351.75408  -5690136.10607  16997852.27108  16997855.31707
    270054.24208    210421.84608  17713943.81008  17713947.24508
 -13705277.50608 -10679448.63108  16615726.20908  16615729.40908
 -18826620.14908 -14670098.03908  14466544.79808  14466545.50108
 -22084460.01808 -17208663.42208  14951737.82908  14951739.40908
 93 04 16 17 26 00.0000000  0  8 28 27 18 31 22 14 29 19
 -10008426.56908  -7798765.21108  17070299.34108  17070301.97408
  -7798369.02708  -6076645.93908  17410259.53808  17410262.14908
 -27620564.55509 -21522516.23608  13969647.92109  13969648.87708
  -7624957.37608  -5941516.90007  16936462.27808  16936465.36307
    667683.44608    520262.34808  17789610.41808  17789613.99708
 -13289484.81208 -10355454.76008  16694849.29008  16694852.67208
 -18709760.12508 -14579038.40608  14488782.61908  14488783.36108
 -22229298.00508 -17321524.19308  14924176.07208  14924177.72308
 93 04 16 17 28 00.0000000  0  8 28 18 27 31 22 14 29 19
 -10148100.79308  -7907602.21508  17043720.12308  17043722.94508
 -27751499.33909 -21624543.35408  13944731.93109  13944732.88708
  -8094978.30808  -6307769.86708  17353816.52208  17353819.04008
  -7943747.64508  -6189924.73307  16875798.45808  16875801.36907
   1068451.77108    832548.93408  17865874.47608  17865877.95708
 -12870463.79308 -10028945.32508  16774586.64908  16774590.10908
 -18585380.47608 -14482119.32008  14512451.34108  14512452.12708
 -22369746.67708 -17430964.74108  14897449.59408  14897451.16008
 93 04 16 17 30 00.0000000  0  8 28 18 27 31 22 14 29 19
 -10280146.23808  -8010494.74308  17018592.64508  17018595.36908
 -27875839.19909 -21721431.58308  13921070.90409  13921071.86608
  -8389471.09908  -6537244.58408  17297776.26208  17297778.79208
  -8258949.13108  -6435536.10507  16815817.32608  16815820.32407
   1471612.96608   1146700.10808  17942593.59508  17942597.37108
 -12448921.87208  -9700471.55208  16854803.73608  16854807.25008
 -18454353.04608 -14380020.15708  14537385.14508  14537385.95408
 -22506696.23608 -17537678.68308  14871388.95108  14871390.50908
 93 04 16 17 32 00.0000000  0  8 28 18 27 31 22 14 29 19
 -10404515.51008  -8107405.86008  16994926.17908  16994928.90008
 -27993888.92509 -21813418.42008  13898606.78809  13898607.73508
  -8682072.48608  -6765245.48808  17242095.96608  17242098.42008
  -8570124.65608  -6678010.35807  16756602.52608  16756605.46607
   1876976.45908   1462567.38907  18019732.16308  18019735.79307
 -12024848.89508  -9370025.59308  16935502.53208  16935506.13608
 -18316596.18908 -14272677.28208  14563599.50408  14563600.33408
 -22640167.53008 -17641682.29108  14845990.19608  14845991.76608
 93 04 16 17 34 00.0000000  0  8 28 18 27 31 22 14 29 19
 -10521076.04508  -8198232.24208  16972745.35808  16972748.01908
 -28105607.26909 -21900471.70108  13877347.50809  13877348.43608
  -8972888.97808  -6991855.61908  17186755.24308  17186757.73508
  -8877566.68808  -6917575.35907  16698098.15308  16698100.90507
   2284195.04308   1779880.16807  18097223.60208  18097227.42307
 -11598932.22408  -9038142.97208  17016552.17708  17016556.00008
 -18172108.06808 -14160089.28108  14591094.81208  14591095.69208
 -22770082.65908 -17742914.85108  14821268.17508  14821269.68608
 93 04 16 17 36 00.0000000  0  8 28 18 27 31 22 14 29 19
 -10630616.91308  -8283588.72608  16951900.38908  16951903.05208
 -28211037.41409 -21982625.09108  13857284.82909  13857285.76408
  -9262138.04708  -7217244.40308  17131712.95208  17131715.34908
  -9181433.59708  -7154354.57108  16640273.92508  16640276.80408
   2692674.06108   2098175.08007  18174954.95308  18174958.83207
 -11171733.25308  -8705261.18308  17097845.86508  17097849.78008
 -18021604.68008 -14042814.06408  14619734.73508  14619735.65408
 -22897315.49508 -17842057.31908  14797056.50508  14797058.16308
 93 04 16 17 38 00.0000000  0  8 28 18 27 31 22 14 29 19
 -10733146.77908  -8363482.08808  16932389.50708  16932392.28308
 -28310580.57309 -22060191.21908  13838342.46809  13838343.42108
  -9550417.60008  -7441877.71408  17076855.15308  17076857.49708
  -9481730.86708  -7388352.24508  16583129.21708  16583131.89008
   3101855.22407   2417017.12207  18252819.85507  18252823.68407
 -10743619.74608  -8371666.82308  17179313.66408  17179317.67208
 -17865145.89108 -13920898.27108  14649507.98508  14649508.91108
 -23022180.77809 -17939354.97608  14773295.52409  14773297.05508
 93 04 16 17 40 00.0000000  0  8 28 18 27 31 22 14 29 19
 -10827233.93408  -8436796.70408  16914485.33208  16914487.88608
 -28402993.06209 -22132200.97908  13820756.92309  13820757.86808
  -9836650.32108  -7664916.08708  17022386.72408  17022389.09508
  -9777193.80108  -7618582.93708  16526904.44008  16526907.14108
   3512922.47907   2737328.80407  18331043.63607  18331047.59307
 -10313760.59708  -8036712.26408  17261113.48808  17261117.76908
 -17701487.00508 -13793372.01208  14680651.34508  14680652.32008
 -23143262.09709 -18033704.08008  14750254.56309  14750256.15208
 93 04 16 17 42 00.0000000  0  8 28 18 27 31 22 14 29 19
 -10914172.38908  -8504540.89408  16897941.51108  16897944.11108
 -28489461.58509 -22199579.07208  13804302.54709  13804303.49208
 -10121943.60408  -7887222.45408  16968097.17408  16968099.50108
 -10068677.10508  -7845712.62708  16471436.87408  16471439.56408
   3924338.63507   3057912.40807  18409333.77307  18409338.27007
  -9883665.30108  -7701573.69708  17342958.34608  17342962.80008
 -17532057.99908 -13661349.54908  14712892.68908  14712893.68408
 -23262179.50909 -18126367.00308  14727625.32209  14727626.84808
 93 04 16 17 44 00.0000000  0  8 28 27 18 31 22 14 29 19
 -10993947.12808  -8566702.97808  16882760.76608  16882763.45608
 -10406367.51108  -8108851.39908  16913973.13508  16913975.34408
 -28569816.47809 -22262193.29208  13789011.53109  13789012.47408
 -10356430.57908  -8069935.99808  16416679.06608  16416681.76108
   4335906.86107   3378614.54207  18487652.82107  18487657.09707
  -9453466.52008  -7366354.51908  17424822.94408  17424827.59608
 -17357270.16108 -13525151.38708  14746153.84408  14746154.89308
 -23378904.01509 -18217321.16808  14705413.41809  14705415.00008
 93 04 16 17 46 00.0000000  0  8 28 18 27 31 22 14 29 19
 -11065876.63108  -8622751.88608  16869072.94608  16869075.54108
 -28643360.16809 -22319500.09808  13775016.59109  13775017.54008
 -10689190.88308  -8329233.16808  16860153.52508  16860155.71908
 -10639497.99008  -8290507.89508  16362813.04608  16362815.67308
   4748115.80407   3699815.95907  18566093.95307  18566098.41707
  -9022662.78408  -7030663.97408  17506802.75008  17506807.59108
 -17176175.99108 -13384039.19908  14780615.10108  14780616.17908
 -23492845.02509 -18306106.39508  14683731.06609  14683732.69308
 93 04 16 17 48 00.0000000  0  7 28 27 18 31 14 29 19
 -11128937.49708  -8671890.21008  16857072.78608  16857075.38808
 -10969633.78108  -8547760.00308  16806786.96108  16806789.17008
 -28709310.68209 -22370890.14708  13762466.71809  13762467.67408
 -10916491.65808  -8506347.00808  16310102.81908  16310105.43208
  -8590711.84308  -6694079.57508  17589000.74208  17589005.62308
 -16987751.32908 -13237214.95308  14816471.17308  14816472.32608
 -23602876.72709 -18391845.40008  14662792.89009  14662794.41108
 93 04 16 17 50 00.0000000  0  8 28 27 18 31 11 14 29 19
 -11182888.97408  -8713930.34308  16846806.30208  16846808.91608
 -11247769.81008  -8764489.27908  16753859.37208  16753861.57408
 -28767283.42609 -22416063.75908  13751434.89509  13751435.86408
 -11187497.08108  -8717519.92208  16258532.05408  16258534.64708
        -0.24317        -0.30317  18459543.68917  18459549.98017
  -8157599.91708  -6356590.48708  17671419.65508  17671424.86008
 -16791970.02208 -13084658.26808  14853727.27608  14853728.47008
 -23709050.72109 -18474578.37608  14642588.56209  14642590.15408
 93 04 16 17 52 00.0000000  0  8 28 27 18 31 11 14 29 19
 -11228551.78308  -8749511.78408  16838117.09108  16838119.66308
 -11524455.26408  -8980088.27008  16701207.80708  16701210.01808
 -28818085.35909 -22455649.72708  13741767.65109  13741768.61608
 -11452820.67508  -8924265.42908  16208042.52908  16208045.07108
   -339426.52608   -264488.11007  18394952.80808  18394959.19507
  -7724209.39908  -6018884.36408  17753891.87708  17753897.06908
 -16589614.91008 -12926979.14008  14892234.27208  14892235.49008
 -23812396.39809 -18555107.49808  14622922.58809  14622924.21708
 93 04 16 17 54 00.0000000  0  8 28 27 31 18 11 14 29 19
 -11265402.54308  -8778226.70608  16831104.55108  16831107.14008
 -11799122.38208  -9194114.53908  16648940.27008  16648942.54208
 -11712113.95908  -9126312.00108  16158700.56108  16158703.12408
 -28861450.01109 -22489440.40608  13733515.62909  13733516.63708
   -677335.05908   -527793.26007  18330650.76708  18330657.11707
  -7290572.50508  -5680986.27808  17836410.73208  17836416.26108
 -16380519.60408 -12764047.92008  14932023.92608  14932025.17608
 -23912306.35109 -18632959.44808  14603910.42409  14603911.94108
 93 04 16 17 56 00.0000000  0  8 29 28 27 31 18 11 14 19
 -16164639.39208 -12595829.77208  14973104.71208  14973106.02908
 -11293595.92108  -8800195.59008  16825739.61708  16825742.24908
 -12071772.17708  -9406568.86208  16597056.73308  16597058.94408
 -11965388.84208  -9323668.91508  16110503.84308  16110506.37708
 -28897098.42809 -22517218.43508  13726732.01609  13726733.00608
  -1013535.21008   -789767.09307  18266673.87908  18266679.97207
  -6856854.41408  -5343024.98508  17918945.26208  17918950.99708
 -24009308.32509 -18708545.42608  14585451.52709  14585453.09108
 93 04 16 17 58 00.0000000  0  8 29 28 27 31 18 11 14 19
 -15943634.54008 -12423618.40208  15015160.73408  15015162.06708
 -11314465.27008  -8816457.43408  16821768.13708  16821770.78808
 -12343901.24108  -9618617.44108  16545272.32608  16545274.43908
 -12213710.48708  -9517166.16808  16063249.75408  16063252.26108
 -28926154.82509 -22539859.82808  13721202.80609  13721203.82108
  -1349139.54708  -1051276.54907  18202810.14208  18202816.25807
  -6424626.11908  -5006224.51007  18001196.19908  18001201.92007
 -24104570.73109 -18782775.88108  14567323.73209  14567325.33008
 93 04 16 18 00 00.0000000  0  8 29 28 27 31 18 11 14 19
 -15717453.18108 -12247373.41008  15058201.76808  15058203.16108
 -11327814.52408  -8826859.45208  16819228.15808  16819230.77908
 -12615469.97308  -9830229.42508  16493594.44308  16493596.62808
 -12456789.91008  -9706578.53608  16016993.17708  16016995.62408
 -28948858.40509 -22557550.97508  13716882.48209  13716883.49408
  -1683836.93608  -1312079.25407  18139119.01908  18139124.96707
  -5993924.56208  -4670613.76307  18083156.68208  18083162.71707
 -24197951.02609 -18855539.76708  14549554.09109  14549555.64708
 93 04 16 18 02 00.0000000  0  8 29 28 27 31 18 11 14 19
 -15485565.71908 -12066682.09208  15102328.64508  15102330.10208
 -11333175.00008  -8831036.45208  16818207.92908  16818210.53608
 -12886195.19908 -10041184.10508  16442077.12108  16442079.29608
 -12694232.25308  -9891598.36808  15971809.17108  15971811.60508
 -28965052.12109 -22570169.50108  13713800.92909  13713801.96908
  -2017152.65308  -1571805.32507  18075690.75108  18075696.69507
  -5564770.28907  -4336208.71908  18164822.49807  18164828.92608
 -24289093.29109 -18926559.74608  14532210.28409  14532211.81308
 93 04 16 18 04 00.0000000  0  8 29 28 27 18 31 11 14 19
 -15246340.24908 -11880272.86008  15147851.86908  15147853.41208
 -11328873.07908  -8827684.32408  16819026.64508  16819029.23408
 -13154444.42908 -10250209.44908  16391030.93008  16391033.05208
 -28972506.13909 -22575977.87308  13712382.53009  13712383.57308
 -12923960.07808 -10070606.91908  15928093.35208  15928095.75508
  -2347138.07408  -1828936.52707  18012896.37208  18012902.19307
  -5135550.53607  -4001752.70907  18246501.00207  18246507.75107
 -24376461.05509 -18994638.52008  14515584.75109  14515586.39108
 93 04 16 18 06 00.0000000  0  8 28 27 31 18 11 14 29 19
 -11315663.69308  -8817391.35608  16821540.37208  16821542.93608
 -13420754.31608 -10457723.59608  16340353.85108  16340355.99708
 -13146614.07208 -10244103.43508  15885723.61608  15885726.06808
 -28971864.24509 -22575477.74708  13712504.70709  13712505.76908
  -2674147.81708  -2083749.17708  17950668.35708  17950674.25608
  -4706922.06107  -3667757.40407  18328067.33807  18328074.00307
 -15000630.05308 -11688810.58208  15194609.15108  15194610.72608
 -24460779.88109 -19060341.50408  14499539.40609  14499541.06308
 93 04 16 18 08 00.0000000  0  8 28 27 31 18 11 14 29 19
 -11294243.16408  -8800700.11508  16825616.68308  16825619.28308
 -13685886.77508 -10664320.27508  16289900.81408  16289902.91308
 -13362956.20808 -10412681.62908  15844555.00808  15844557.42808
 -28964223.71609 -22569524.14008  13713958.69809  13713959.77508
  -2998991.17208  -2336873.79008  17888852.72008  17888858.53808
  -4280235.16207  -3335275.17307  18409263.77407  18409270.65507
 -14749283.28308 -11492956.17408  15242439.00808  15242440.62708
 -24542919.07809 -19124346.09408  14483908.83609  14483910.44708
 93 04 16 18 10 00.0000000  0  8 28 27 18 31 11 14 29 19
 -11266991.20308  -8779464.88808  16830802.43408  16830805.06108
 -13952125.27008 -10871778.81608  16239237.32308  16239239.40908
 -28951567.57809 -22559662.26508  13716367.11709  13716368.16408
 -13574855.04608 -10577797.52408  15804232.06808  15804234.42708
  -3323493.77708  -2589732.81007  17827101.76608  17827107.55607
  -3857716.96707  -3006041.52807  18489667.21007  18489674.68407
 -14494406.99108 -11294351.51608  15290940.58008  15290942.21908
 -24624728.87309 -19188093.99208  14468340.94909  14468342.59508
 93 04 16 18 12 00.0000000  0  8 28 27 18 31 11 14 29 19
 -11230819.00408  -8751278.80808  16837685.73108  16837688.41108
 -14216977.09308 -11078156.82708  16188837.62008  16188839.65208
 -28930597.86809 -22543322.29508  13720357.54909  13720358.65108
 -13779172.82608 -10737006.11408  15765351.51508  15765353.89508
  -3644677.78808  -2840005.76307  17765982.25608  17765987.90307
  -3436783.71607  -2678042.97707  18569769.15207  18569776.99707
 -14233319.21208 -11090906.74808  15340624.07708  15340625.82208
 -24703904.87509 -19249789.59208  14453274.23109  14453275.95708
 93 04 16 18 14 00.0000000  0  7 28 27 31 18 11 29 19
 -11184571.36108  -8715241.74708  16846486.49708  16846489.27608
 -14479355.40608 -11282607.39208  16138908.62408  16138910.79008
 -13974932.11308 -10889545.73108  15728099.78808  15728102.10608
 -28900555.14209 -22519912.44508  13726074.56209  13726075.68808
  -3961278.94008  -3086707.56908  17705734.77508  17705740.33908
 -13964988.22708 -10881817.94108  15391686.00008  15391687.81708
 -24778969.39909 -19308281.45308  14438990.04309  14438991.69408
 93 04 16 18 16 00.0000000  0  8 28 27 31 18 11 02 29 19
 -11130366.91608  -8673004.58208  16856801.29408  16856804.01108
 -14740197.03208 -11485860.52908  16089272.04508  16089274.12208
 -14163720.15408 -11036653.20108  15692174.53508  15692176.82208
 -28863342.10709 -22490915.35408  13733156.00309  13733157.19408
  -4274784.94608  -3330997.61008  17646076.34108  17646081.85808
        -0.47718         0.17718  17753965.63218  17753969.77718
 -13691422.86408 -10668650.42208  15443743.93108  15443745.82708
 -24851898.41809 -19365109.29208  14425112.06709  14425113.71408
 93 04 16 18 18 00.0000000  0  8 28 27 18 31 11 02 29 19
 -11066437.95308  -8623189.87208  16868966.60908  16868969.39008
 -14998649.68708 -11687252.13708  16040090.06208  16040092.15208
 -28817530.17909 -22455217.83308  13741873.81309  13741875.01508
 -14343998.73008 -11177129.90908  15657868.51608  15657870.83608
  -4583497.05808  -3571552.22008  17587330.09308  17587335.51208
   -370511.47608   -288709.54908  17683459.63108  17683463.72108
 -13410884.13808 -10450049.12408  15497128.98808  15497130.90708
 -24921353.29109 -19419229.98508  14411895.23709  14411896.99508
 93 04 16 18 20 00.0000000  0  8 28 27 18 31 11 02 29 19
 -10992756.26008  -8565775.63308  16882987.83808  16882990.60708
 -15255017.08408 -11887018.86908  15991304.97508  15991306.97408
 -28762915.75408 -22412661.21708  13752266.65208  13752267.86008
 -14515351.62408 -11310651.53908  15625261.07108  15625263.35308
  -4887340.98108  -3808313.39308  17529510.35508  17529515.66708
   -737117.34308   -574376.28208  17613696.71208  17613700.80608
 -13123809.22908 -10226354.70808  15551757.77408  15551759.74208
 -24987294.30009 -19470612.61008  14399347.15109  14399348.89208
 93 04 16 18 22 00.0000000  0  8 28 27 31 18 11 02 29 19
 -10910412.27508  -8501611.55008  16898657.48008  16898660.26208
 -15509629.27808 -12085417.90408  15942853.81308  15942855.84308
 -14678672.28908 -11437914.32608  15594182.14208  15594184.36008
 -28700310.15408 -22363877.71508  13764180.13908  13764181.37308
  -5186934.65208  -4041762.65408  17472499.22108  17472504.46808
  -1100952.19908   -857883.75708  17544461.11508  17544465.15208
 -12830805.58308  -9998040.46808  15607514.68408  15607516.73708
 -25050388.67209 -19519777.07608  14387340.67309  14387342.36908
 93 04 16 18 24 00.0000000  0  8 28 27 31 18 11 02 29 19
 -10820761.83008  -8431754.11608  16915717.45008  16915720.17008
 -15763854.11408 -12283515.10208  15894476.36408  15894478.42708
 -14835239.43308 -11559914.63708  15564388.35908  15564390.63808
 -28630761.35608 -22309683.93208  13777414.89908  13777416.14908
  -5483327.59408  -4272717.84408  17416097.30408  17416102.46608
  -1462763.38108  -1139814.35108  17475610.60708  17475614.57708
 -12533686.39708  -9766519.31608  15664054.81808  15664056.95208
 -25112200.12409 -19567941.87408  14375578.42609  14375580.01508
 93 04 16 18 26 00.0000000  0  8 28 27 31 18 11 02 29 19
 -10722355.70008  -8355074.06708  16934443.51108  16934446.29508
 -16016133.33708 -12480096.23908  15846469.17008  15846471.19808
 -14983467.85308 -11675417.24208  15536181.39108  15536183.58308
 -28552793.44008 -22248929.81208  13792251.72208  13792253.00208
  -5774575.18608  -4499663.75608  17360674.54108  17360679.70008
  -1820955.80808  -1418925.18208  17407448.71408  17407452.63408
 -12230439.84308  -9530223.60108  15721760.94008  15721763.17408
 -25171000.18809 -19613760.11808  14364389.06309  14364390.82908
 93 04 16 18 28 00.0000000  0  8 28 27 31 18 11 02 29 19
 -10614596.78208  -8271106.15708  16954949.40508  16954952.19308
 -16266426.14108 -12675129.51408  15798839.96708  15798841.92808
 -15122582.07008 -11783817.86108  15509708.77208  15509710.94108
 -28466348.93708 -22181570.56308  13808701.69208  13808702.97508
  -6060422.40308  -4722401.67008  17306279.55508  17306284.51408
  -2175327.26008  -1695058.67508  17340013.92608  17340017.94008
 -11921096.62408  -9289177.25208  15780627.21008  15780629.47908
 -25226328.58809 -19656873.18408  14353860.46409  14353862.21108
 93 04 16 18 30 00.0000000  0  8 28 27 31 11 18 02 29 19
 -10497416.59708  -8179797.01508  16977248.15008  16977251.02908
 -16514506.09508 -12868438.49408  15751631.88408  15751633.81708
 -15252291.09508 -11884889.75208  15485025.93408  15485028.09308
  -6340451.36908  -4940605.90608  17252991.69008  17252996.69408
 -28371302.35508 -22107508.39308  13826788.54308  13826789.87808
  -2525556.24608  -1967964.24408  17273367.53508  17273371.46508
 -11605529.87608  -9043281.40908  15840677.82208  15840680.22808
 -25278263.21909 -19697341.76508  14343977.66009  14343979.41708
 93 04 16 18 32 00.0000000  0  8 28 27 31 11 18 02 29 19
 -10372679.19008  -8082599.15108  17000985.05708  17000987.92308
 -16761730.02908 -13061080.44108  15704586.64008  15704588.55408
 -15374235.83208 -11979911.57108  15461820.52708  15461822.68608
  -6615944.17308  -5155275.40508  17200566.89208  17200571.93008
 -28269026.90608 -22027813.33308  13846250.99808  13846252.34808
  -2873048.78508  -2238737.46908  17207241.78508  17207245.64008
 -11285567.78408  -8793960.63308  15901564.86108  15901567.32008
 -25328354.55109 -19736374.01208  14334445.68409  14334447.37208
 93 04 16 18 34 00.0000000  0  8 28 27 31 11 18 02 29 19
 -10239019.77608  -7978449.07408  17026419.53308  17026422.39608
 -17006809.08008 -13252051.08508  15657949.66508  15657951.53108
 -15487147.14208 -12067894.37108  15440334.20908  15440336.36508
  -6885570.34008  -5365373.44308  17149258.60808  17149263.45208
 -28158302.31508 -21941534.53108  13867321.23308  13867322.62008
  -3216646.08208  -2506475.42208  17141857.22308  17141861.01808
 -10960158.14308  -8540395.03708  15963488.51208  15963491.04608
 -25375277.62609 -19772937.48208  14325516.49909  14325518.32708
 93 04 16 18 36 00.0000000  0  8 28 27 31 11 18 02 29 19
 -10095765.03308  -7866822.11008  17053680.14508  17053682.99908
 -17249364.60908 -13441055.34208  15611792.78808  15611794.70708
 -15589858.93208 -12147929.48608  15420788.80608  15420790.90308
  -7147997.51508  -5569861.83708  17099320.07508  17099324.93308
 -28037767.22508 -21847611.19608  13890258.38908  13890259.78608
  -3555188.41508  -2770274.44808  17077434.61508  17077438.39108
 -10627546.14808  -8281217.24708  16026782.77708  16026785.36008
 -25417994.68509 -19806223.53508  14317387.75309  14317389.54208
 93 04 16 18 38 00.0000000  0  8 28 27 31 11 18 02 29 19
  -9944002.62408  -7748565.78708  17082559.51608  17082562.51908
 -17489919.44108 -13628500.60108  15566016.71808  15566018.58108
 -15683520.42908 -12220912.43308  15402965.56508  15402967.72108
  -7404447.95108  -5769693.06308  17050519.07008  17050523.76108
 -27909188.77108 -21747420.31008  13914726.13208  13914727.55308
  -3890038.91508  -3031196.75208  17013714.57008  17013718.30208
 -10290150.42908  -8018311.89108  16090987.31708  16090990.06708
 -25458192.49509 -19837546.52808  14309738.38809  14309740.16908
 93 04 16 18 40 00.0000000  0  8 28 27 31 11 18 02 29 19
  -9783747.88208  -7623692.06308  17113055.17008  17113058.11408
 -17728758.00708 -13814608.51008  15520567.11508  15520569.07508
 -15768010.57408 -12286748.86508  15386887.65508  15386889.74408
  -7654724.23008  -5964713.29608  17002892.84508  17002897.45408
 -27772795.44908 -21641139.92908  13940680.97508  13940682.45008
  -4221223.08408  -3289262.21008  16950692.28808  16950695.90308
  -9947652.60708  -7751430.88608  16156162.81408  16156165.65408
 -25495873.97709 -19866908.76308  14302567.88009  14302569.68108
 93 04 16 18 42 00.0000000  0  8 28 27 31 11 02 18 29 19
  -9614792.00208  -7492038.22908  17145206.54208  17145209.44508
 -17965375.16608 -13998985.44608  15475540.43508  15475542.28308
 -15842903.60508 -12345107.04508  15372635.90708  15372638.01408
  -7898046.37008  -6154314.75908  16956590.08308  16956594.63808
  -4548004.97108  -3543897.34308  16888507.67908  16888511.31908
 -27627780.57308 -21528141.46508  13968276.54208  13968278.05808
  -9599676.63408  -7480281.21108  16222380.76908  16222383.70408
 -25529775.83809 -19893325.83708  14296116.58309  14296118.37308
 93 04 16 18 44 00.0000000  0  8 28 27 31 11 18 02 29 19
  -9437443.04508  -7353844.29708  17178954.97408  17178957.96508
 -18200088.96308 -14181879.24008  15430875.80308  15430877.57008
 -15908542.59508 -12396254.28808  15360145.27608  15360147.33008
  -8134668.34408  -6338695.32908  16911562.23108  16911566.76608
 -27474640.27308 -21408811.50008  13997418.27608  13997419.80308
  -4870814.05208  -3795436.79108  16827079.06208  16827082.68108
  -9247111.57508  -7205555.63708  16289472.00708  16289475.11608
 -25560649.09309 -19917382.96808  14290241.59609  14290243.39108
 93 04 16 18 46 00.0000000  0  8 28 27 31 11 02 18 29 19
  -9252769.63508  -7209942.97108  17214097.14308  17214100.08308
 -18434309.85908 -14364388.95708  15386304.94108  15386306.79108
 -15965892.83508 -12440942.76708  15349231.86908  15349233.97408
  -8365493.53808  -6518558.91608  16867637.44808  16867641.98908
  -5190596.92908  -4044618.17908  16766226.35308  16766229.89308
 -27314404.35608 -21283952.49308  14027910.27208  14027911.84508
  -8890396.56108  -6927596.36908  16357352.98508  16357356.13608
 -25590024.92209 -19940273.26408  14284651.63009  14284653.45708
 93 04 16 18 48 00.0000000  0  8 28 27 31 11 02 18 29 19
  -9059095.33308  -7059028.00708  17250952.22008  17250955.12908
 -18665793.57108 -14544765.83208  15342255.06008  15342256.80608
 -16012971.37308 -12477627.31508  15340273.07308  15340275.15008
  -8588622.86108  -6692425.70808  16825177.24608  16825181.73808
  -5505622.63908  -4290092.65508  16706278.75208  16706282.35908
 -27145551.96308 -21152379.34908  14060041.92008  14060043.53208
  -8528305.64808  -6645448.10308  16426256.96408  16426260.27308
 -25615988.03609 -19960504.29908  14279711.02309  14279712.85208
 93 04 16 18 50 00.0000000  0  8 28 27 31 11 02 18 29 19
  -8856799.23408  -6901394.81208  17289447.91408  17289450.97908
 -18894351.76008 -14722863.09408  15298761.87008  15298763.75108
 -16049315.70808 -12505947.55408  15333356.99408  15333359.08808
  -8803645.87108  -6859975.87108  16784259.61208  16784263.94808
  -5815754.04508  -4531753.34708  16647262.60808  16647266.18508
 -26967863.56408 -21013921.00908  14093855.03308  14093856.67408
  -8160931.83708  -6359183.33108  16496166.29808  16496169.70408
 -25637860.17309 -19977547.55508  14275548.92709  14275550.78208
 93 04 16 18 52 00.0000000  0  8 28 27 31 11 02 29 18 19
  -8646510.31908  -6737533.49908  17329464.78308  17329467.80508
 -19120716.21708 -14899250.93908  15255686.09408  15255687.99308
 -16075577.89108 -12526411.54608  15328359.42408  15328361.51508
  -9010887.33708  -7021462.47208  16744822.61908  16744826.96908
  -6121321.01508  -4769857.31408  16589115.11108  16589118.55208
  -7788669.71408  -6069109.49208  16567005.82208  16567009.35008
 -26781770.39708 -20868913.50108  14129267.48908  14129269.17908
 -25656149.41909 -19991798.94608  14272068.62409  14272070.48408
 93 04 16 18 54 00.0000000  0  8 28 27 31 11 02 29 18 19
  -8428641.37708  -6567765.70408  17370923.93808  17370927.14208
 -19345336.88008 -15074279.97608  15212942.09508  15212943.96508
 -16092939.05308 -12539939.67408  15325055.60008  15325057.69608
  -9211046.06608  -7177430.04208  16706733.47908  16706737.76708
  -6423119.28508  -5005024.63908  16531684.68008  16531688.12908
  -7412360.88208  -5775882.43208  16638615.43708  16638619.12008
 -26588182.65708 -20718066.06908  14166106.11808  14166107.84108
 -25672238.43709 -20004335.87608  14269007.00809  14269008.84408
 93 04 16 18 56 00.0000000  0  8 28 27 31 11 02 29 18 19
  -8202203.23108  -6391320.60208  17414013.94508  17414017.08908
 -19567582.10508 -15247458.02908  15170650.36708  15170652.07608
 -16100005.93408 -12545446.27308  15323710.86408  15323712.89708
  -9402853.76008  -7326890.30908  16670233.47908  16670237.67508
  -6720097.06908  -5236435.77808  16475171.60308  16475175.02308
  -7031220.43708  -5478890.49408  16711144.45408  16711148.38108
 -26386199.80308 -20560676.99208  14204542.23808  14204543.97608
 -25684778.63409 -20014107.48708  14266620.75209  14266622.62608
 93 04 16 18 58 00.0000000  0  8 28 27 31 11 02 29 18 19
  -7968546.52108  -6209250.64208  17458477.37208  17458480.71208
 -19787895.35708 -15419130.65408  15128726.07108  15128727.87008
 -16097522.83608 -12543511.32808  15324183.33908  15324185.36108
  -9586789.67908  -7470216.74208  16635231.42108  16635235.62308
  -7012798.70408  -5464514.86208  16419472.20308  16419475.55708
  -6645866.51908  -5178615.36108  16784475.46008  16784479.51508
 -26176405.15308 -20397200.80708  14244465.07608  14244466.88008
 -25694086.86709 -20021360.69408  14264849.45709  14264851.33408
 93 04 16 19 00 00.0000000  0  8 28 27 31 11 02 29 18 19
  -7727486.31808  -6021411.73908  17504349.79708  17504353.12508
 -20006587.22308 -15589539.86608  15087110.41708  15087112.19308
 -16085989.61008 -12534524.35008  15326377.97708  15326379.99908
  -9763053.75908  -7607565.13008  16601689.32708  16601693.43108
  -7301500.07408  -5689476.84408  16364534.11808  16364537.49708
  -6256853.11308  -4875488.71108  16858502.74408  16858506.90608
 -25959189.69508 -20227942.18808  14285799.88808  14285801.72608
 -25700747.50309 -20026550.83808  14263581.98109  14263583.84608
 93 04 16 19 02 00.0000000  0  8 28 27 31 11 02 29 18 19
  -7477993.73108  -5827002.13908  17551826.81908  17551830.16508
 -20221910.96508 -15757324.56708  15046135.60508  15046137.40208
 -16063250.48708 -12516805.51008  15330705.06608  15330707.03108
  -9929967.36208  -7737627.48408  16569926.55608  16569930.62008
  -7584856.84008  -5910274.17008  16310613.01108  16310616.34008
  -5863200.26308  -4568746.94808  16933412.97508  16933417.29408
 -25733138.38808 -20051798.50208  14328816.16108  14328818.07208
 -25703182.99909 -20028448.66808  14263118.55909  14263120.43808
 93 04 16 19 04 00.0000000  0  8 31 28 11 02 29 18 27 19
 -16031033.91608 -12491701.65308  15336835.61708  15336837.63308
  -7221939.63008  -5627479.66008  17600552.50208  17600555.86108
 -10089122.10008  -7861643.99808  16539640.29708  16539644.30108
  -7864302.43208  -6128023.81308  16257436.11508  16257439.41708
  -5466096.90508  -4259316.49108  17008979.68308  17008984.11808
 -25500051.60608 -19870172.65208  14373171.28108  14373173.20708
 -20435607.88308 -15923841.62808  15005470.35208  15005472.09308
 -25703021.76209 -20028323.07508  14263149.29209  14263151.19608
 93 04 16 19 06 00.0000000  0  8 31 28 11 02 29 18 27 19
 -15988727.83708 -12458735.85308  15344886.21108  15344888.23008
  -6957947.56108  -5421771.73408  17650788.67108  17650792.10008
 -10239070.47008  -7978486.74908  16511106.00808  16511109.88908
  -8138646.72008  -6341798.41408  16205229.98208  16205233.25208
  -5064668.92908  -3946516.21808  17085369.59708  17085374.13208
 -25258773.35208 -19682163.84008  14419085.16008  14419087.12608
 -20646589.07108 -16088242.51808  14965321.93808  14965323.67208
 -25699129.59309 -20025290.26308  14263889.95509  14263891.88708
